[[{"header":{"parameterUnit":"m.s-1","parameterCategory":1,"la1":30.6,"la2":29.2853,"lo1":-89.7004,"lo2":-87.6739,"dy":0.0162,"dx":0.0183,"nx":112,"ny":82,"refTime":"2023-08-10T12:00:00:Z","depth":0,"parameterNumber":2,"parameterNumberName":"U-component_of_WINDS"},"data":[0.0,0.0,0.0,0.0,0.0,0.0,0.0,0.0,0.0,0.0,0.0,0.0,0.0,0.0,0.0,0.0,0.0,0.0,0.0,0.0,0.0,0.0,0.0,0.0,0.0,0.0,0.0,0.0,0.0,0.0,0.0,0.0,0.0,0.0,0.0,0.0,0.0,0.0,0.0,0.0,0.0,0.0,0.0,0.0,0.0,0.0,0.0,0.0,0.0,0.0,0.0,0.0,0.0,0.0,0.0,0.0,0.0,0.0,0.0,0.0,0.0,0.0,0.0,0.0,0.0,0.0,0.0,0.0,0.0,0.0,0.0,0.0,0.0,0.0,0.0,0.0,0.0,0.0,0.0,0.0,0.0,0.0,0.0,0.0,0.0,0.0,0.0,0.0,0.0,0.0,-4.0496,-4.0496,-4.0496,-4.0496,-4.0496,-4.0496,-4.0496,-4.0508,0.0,0.0,0.0,0.0,0.0,0.0,0.0,0.0,0.0,0.0,0.0,0.0,0.0,0.0,0.0,0.0,0.0,0.0,0.0,0.0,0.0,0.0,0.0,0.0,0.0,0.0,0.0,0.0,0.0,0.0,0.0,0.0,0.0,0.0,0.0,0.0,0.0,0.0,0.0,0.0,0.0,0.0,0.0,0.0,0.0,0.0,0.0,0.0,0.0,0.0,0.0,0.0,0.0,0.0,0.0,0.0,0.0,0.0,0.0,0.0,0.0,0.0,0.0,0.0,0.0,0.0,0.0,0.0,0.0,0.0,0.0,0.0,0.0,0.0,0.0,0.0,0.0,0.0,0.0,0.0,0.0,0.0,0.0,0.0,0.0,0.0,0.0,0.0,0.0,0.0,0.0,0.0,0.0,0.0,0.0,0.0,0.0,0.0,0.0,0.0,0.0,0.0,0.0,0.0,-4.0496,-4.0496,-4.0496,-4.0496,-4.0496,-4.0496,-4.05,-4.0499,0.0,0.0,0.0,0.0,0.0,0.0,0.0,0.0,0.0,0.0,0.0,0.0,0.0,0.0,0.0,0.0,0.0,0.0,0.0,0.0,0.0,0.0,0.0,0.0,0.0,0.0,0.0,0.0,0.0,0.0,0.0,0.0,0.0,0.0,0.0,0.0,0.0,0.0,0.0,0.0,0.0,0.0,0.0,0.0,0.0,0.0,0.0,0.0,0.0,0.0,0.0,0.0,0.0,0.0,0.0,0.0,0.0,0.0,0.0,0.0,0.0,0.0,0.0,0.0,0.0,0.0,0.0,0.0,0.0,0.0,0.0,0.0,0.0,0.0,0.0,0.0,0.0,0.0,0.0,0.0,0.0,0.0,0.0,0.0,0.0,0.0,0.0,0.0,0.0,0.0,0.0,0.0,0.0,0.0,0.0,0.0,0.0,0.0,0.0,0.0,0.0,0.0,0.0,-4.0496,-4.0496,-4.0496,-4.0496,-4.0496,-4.0496,-4.0389,-4.0313,-4.0298,-3.9791,0.0,0.0,0.0,0.0,0.0,0.0,0.0,0.0,0.0,0.0,0.0,0.0,0.0,0.0,0.0,0.0,0.0,0.0,0.0,0.0,0.0,0.0,0.0,0.0,0.0,0.0,0.0,0.0,0.0,0.0,0.0,0.0,0.0,0.0,0.0,0.0,0.0,0.0,0.0,0.0,0.0,0.0,0.0,0.0,0.0,0.0,0.0,0.0,0.0,0.0,0.0,0.0,0.0,0.0,0.0,0.0,0.0,0.0,0.0,0.0,0.0,0.0,0.0,0.0,0.0,0.0,0.0,0.0,0.0,0.0,0.0,0.0,0.0,0.0,0.0,0.0,0.0,0.0,0.0,0.0,0.0,0.0,0.0,0.0,0.0,0.0,0.0,0.0,0.0,0.0,0.0,0.0,0.0,0.0,0.0,0.0,0.0,0.0,0.0,0.0,0.0,0.0,-4.0496,-4.0496,-4.0496,-4.0496,-4.0481,-4.0441,-4.0286,-4.0139,-4.0011,-3.9549,0.0,0.0,0.0,0.0,0.0,0.0,0.0,0.0,0.0,0.0,0.0,0.0,0.0,0.0,0.0,0.0,0.0,0.0,0.0,0.0,0.0,0.0,0.0,0.0,0.0,0.0,0.0,0.0,0.0,0.0,0.0,0.0,0.0,0.0,0.0,0.0,0.0,0.0,0.0,0.0,0.0,0.0,0.0,0.0,0.0,0.0,0.0,0.0,0.0,0.0,0.0,0.0,0.0,0.0,0.0,0.0,0.0,0.0,0.0,0.0,0.0,0.0,0.0,0.0,0.0,0.0,0.0,0.0,0.0,0.0,0.0,0.0,0.0,0.0,0.0,0.0,0.0,0.0,0.0,0.0,0.0,0.0,0.0,0.0,0.0,0.0,0.0,0.0,0.0,0.0,0.0,0.0,0.0,0.0,0.0,0.0,0.0,0.0,0.0,0.0,0.0,0.0,-4.0496,-4.0496,-4.0496,-4.0496,-4.0414,-4.0242,-4.0214,-4.0061,-3.9751,-3.9464,0.0,0.0,0.0,0.0,0.0,0.0,0.0,0.0,0.0,0.0,0.0,0.0,0.0,0.0,0.0,0.0,0.0,0.0,0.0,0.0,0.0,0.0,0.0,0.0,0.0,0.0,0.0,0.0,0.0,0.0,0.0,0.0,0.0,0.0,0.0,0.0,0.0,0.0,0.0,0.0,0.0,0.0,0.0,0.0,0.0,0.0,0.0,0.0,0.0,0.0,0.0,0.0,0.0,0.0,0.0,0.0,0.0,0.0,0.0,0.0,0.0,0.0,0.0,0.0,0.0,0.0,0.0,0.0,0.0,0.0,0.0,0.0,0.0,0.0,0.0,0.0,0.0,0.0,0.0,0.0,0.0,0.0,0.0,0.0,0.0,0.0,0.0,0.0,0.0,0.0,0.0,0.0,0.0,0.0,0.0,0.0,0.0,0.0,0.0,0.0,0.0,0.0,-4.0496,-4.0496,-4.0496,-4.0496,-4.0425,-4.0223,-4.0052,-3.9805,-3.9471,0.0,0.0,0.0,0.0,0.0,0.0,0.0,0.0,0.0,0.0,0.0,0.0,0.0,0.0,0.0,0.0,0.0,0.0,0.0,0.0,0.0,0.0,0.0,0.0,0.0,0.0,0.0,0.0,0.0,0.0,0.0,0.0,0.0,0.0,0.0,0.0,0.0,0.0,0.0,0.0,0.0,0.0,0.0,0.0,0.0,0.0,0.0,0.0,0.0,0.0,0.0,0.0,0.0,0.0,0.0,0.0,0.0,0.0,0.0,0.0,0.0,0.0,0.0,0.0,0.0,0.0,0.0,0.0,0.0,0.0,0.0,0.0,0.0,0.0,0.0,0.0,0.0,0.0,0.0,0.0,0.0,0.0,0.0,0.0,0.0,0.0,0.0,0.0,0.0,0.0,0.0,0.0,0.0,0.0,0.0,0.0,0.0,0.0,0.0,0.0,0.0,0.0,-4.0496,-4.0496,-4.0496,-4.0496,-4.0449,-4.0302,-4.0081,-3.9848,-3.9543,-3.9192,0.0,0.0,0.0,0.0,0.0,0.0,0.0,0.0,0.0,0.0,0.0,0.0,0.0,0.0,0.0,0.0,0.0,0.0,0.0,0.0,0.0,0.0,0.0,0.0,0.0,0.0,0.0,0.0,0.0,0.0,0.0,0.0,0.0,0.0,0.0,0.0,0.0,0.0,0.0,0.0,0.0,0.0,0.0,0.0,0.0,0.0,0.0,0.0,0.0,0.0,0.0,0.0,0.0,0.0,0.0,0.0,0.0,0.0,0.0,0.0,0.0,0.0,0.0,0.0,0.0,0.0,0.0,0.0,0.0,0.0,0.0,0.0,0.0,0.0,0.0,0.0,0.0,0.0,0.0,0.0,0.0,0.0,0.0,0.0,0.0,0.0,0.0,0.0,0.0,0.0,0.0,0.0,0.0,0.0,0.0,0.0,0.0,0.0,0.0,0.0,0.0,0.0,-4.0496,-4.0496,-4.0496,-4.0496,-4.0313,-4.0101,-3.9819,-3.9621,-3.9337,0.0,0.0,0.0,0.0,0.0,0.0,0.0,0.0,0.0,0.0,0.0,0.0,0.0,0.0,0.0,0.0,0.0,0.0,0.0,0.0,0.0,0.0,0.0,0.0,0.0,0.0,0.0,0.0,0.0,0.0,0.0,0.0,0.0,0.0,0.0,0.0,0.0,0.0,0.0,0.0,0.0,0.0,0.0,0.0,0.0,0.0,0.0,0.0,0.0,0.0,0.0,0.0,0.0,0.0,0.0,0.0,0.0,0.0,0.0,0.0,0.0,0.0,0.0,0.0,0.0,0.0,0.0,0.0,0.0,0.0,0.0,0.0,0.0,0.0,0.0,0.0,0.0,0.0,0.0,0.0,0.0,0.0,0.0,0.0,0.0,0.0,0.0,0.0,0.0,0.0,0.0,0.0,0.0,0.0,0.0,0.0,0.0,0.0,0.0,0.0,0.0,0.0,0.0,-4.0496,-4.0372,-4.0286,-4.0286,-4.0072,-3.9827,-3.9609,-3.9532,-3.9337,-3.8921,0.0,0.0,0.0,0.0,0.0,0.0,0.0,0.0,0.0,0.0,0.0,0.0,0.0,0.0,0.0,0.0,0.0,0.0,0.0,0.0,0.0,0.0,0.0,0.0,0.0,0.0,0.0,0.0,0.0,0.0,0.0,0.0,0.0,0.0,0.0,0.0,0.0,0.0,0.0,0.0,0.0,0.0,0.0,0.0,0.0,0.0,0.0,0.0,0.0,0.0,0.0,0.0,0.0,0.0,0.0,0.0,0.0,0.0,0.0,0.0,0.0,0.0,0.0,0.0,0.0,0.0,0.0,0.0,0.0,0.0,0.0,0.0,0.0,0.0,0.0,0.0,0.0,0.0,0.0,0.0,0.0,0.0,0.0,0.0,0.0,0.0,0.0,0.0,0.0,0.0,0.0,0.0,0.0,0.0,0.0,0.0,0.0,0.0,0.0,0.0,0.0,0.0,-4.0381,-4.0278,-4.0158,-4.0052,-3.9827,-3.9632,-3.9508,-3.9376,-3.9197,-3.8925,0.0,0.0,0.0,0.0,0.0,0.0,0.0,0.0,0.0,0.0,0.0,0.0,0.0,0.0,0.0,0.0,0.0,0.0,0.0,0.0,0.0,0.0,0.0,0.0,0.0,0.0,0.0,0.0,0.0,0.0,0.0,0.0,0.0,0.0,0.0,0.0,0.0,0.0,0.0,0.0,0.0,0.0,0.0,0.0,0.0,0.0,0.0,0.0,0.0,0.0,0.0,0.0,0.0,0.0,0.0,0.0,0.0,0.0,0.0,0.0,0.0,0.0,0.0,0.0,0.0,0.0,0.0,0.0,0.0,0.0,0.0,0.0,0.0,0.0,0.0,0.0,0.0,0.0,0.0,0.0,0.0,0.0,0.0,0.0,0.0,0.0,0.0,0.0,0.0,0.0,0.0,0.0,0.0,0.0,0.0,0.0,0.0,0.0,0.0,0.0,0.0,0.0,-4.0223,-4.0148,-4.0032,-3.9797,-3.9585,-3.9464,-3.9446,-3.917,-3.8964,-3.891,0.0,0.0,0.0,0.0,0.0,0.0,0.0,0.0,0.0,0.0,0.0,0.0,0.0,0.0,0.0,0.0,0.0,0.0,0.0,0.0,0.0,0.0,0.0,0.0,0.0,0.0,0.0,0.0,0.0,0.0,0.0,0.0,0.0,0.0,0.0,0.0,0.0,0.0,0.0,0.0,0.0,0.0,0.0,0.0,0.0,0.0,0.0,0.0,0.0,0.0,0.0,0.0,0.0,0.0,0.0,0.0,0.0,0.0,0.0,0.0,-4.6308,0.0,0.0,0.0,0.0,0.0,0.0,0.0,0.0,0.0,0.0,0.0,0.0,0.0,0.0,0.0,0.0,0.0,0.0,0.0,0.0,0.0,0.0,0.0,0.0,0.0,0.0,0.0,0.0,0.0,0.0,0.0,0.0,0.0,0.0,0.0,0.0,0.0,0.0,0.0,0.0,0.0,-4.0214,-3.9867,-3.964,-3.958,-3.9331,-3.917,-3.9101,-3.9036,-3.8935,-3.8837,-3.8807,0.0,0.0,0.0,0.0,0.0,0.0,0.0,0.0,0.0,0.0,0.0,0.0,0.0,0.0,0.0,0.0,0.0,0.0,0.0,0.0,0.0,0.0,0.0,0.0,0.0,0.0,0.0,0.0,0.0,0.0,0.0,0.0,0.0,0.0,0.0,0.0,0.0,0.0,0.0,0.0,0.0,0.0,0.0,0.0,0.0,0.0,0.0,0.0,0.0,0.0,0.0,0.0,0.0,0.0,0.0,0.0,0.0,0.0,0.0,0.0,-4.6308,0.0,0.0,0.0,0.0,0.0,0.0,0.0,0.0,0.0,0.0,0.0,0.0,0.0,0.0,0.0,0.0,0.0,0.0,0.0,0.0,0.0,0.0,0.0,0.0,0.0,0.0,0.0,0.0,0.0,0.0,0.0,0.0,0.0,0.0,0.0,0.0,0.0,0.0,0.0,0.0,-4.0013,-3.9713,-3.9446,-3.9324,-3.9178,-3.9087,-3.9064,-3.8993,-3.8921,-3.8848,-3.8777,0.0,0.0,0.0,0.0,0.0,0.0,0.0,0.0,0.0,0.0,0.0,0.0,0.0,0.0,0.0,0.0,0.0,0.0,0.0,0.0,0.0,0.0,0.0,0.0,0.0,0.0,0.0,0.0,0.0,0.0,0.0,0.0,0.0,0.0,0.0,0.0,0.0,0.0,0.0,0.0,0.0,0.0,0.0,0.0,0.0,0.0,0.0,0.0,0.0,0.0,0.0,0.0,0.0,-4.6308,-4.6291,-4.6291,-4.6297,-4.6303,-4.6306,-4.6308,-4.6289,-4.6267,-4.615,0.0,0.0,0.0,0.0,0.0,0.0,0.0,0.0,0.0,0.0,0.0,0.0,0.0,0.0,0.0,0.0,0.0,0.0,0.0,0.0,0.0,0.0,0.0,0.0,-4.0473,-4.0489,-4.0457,0.0,0.0,0.0,0.0,0.0,0.0,0.0,0.0,0.0,0.0,0.0,-3.9775,-3.9561,-3.935,-3.9129,-3.8971,-3.8897,-3.8869,-3.8627,-3.8541,-3.8674,-3.8578,-3.8576,0.0,0.0,0.0,0.0,0.0,0.0,0.0,0.0,0.0,0.0,0.0,0.0,0.0,0.0,0.0,0.0,0.0,0.0,0.0,0.0,0.0,0.0,0.0,0.0,0.0,0.0,0.0,0.0,0.0,0.0,0.0,0.0,-4.2737,-4.3042,0.0,0.0,0.0,0.0,0.0,0.0,0.0,0.0,0.0,0.0,0.0,0.0,0.0,-4.6275,-4.63,-4.63,-4.63,-4.63,-4.6302,-4.6302,-4.6303,-4.6291,-4.6297,-4.6303,-4.6306,0.0,-4.6207,-4.6131,0.0,0.0,0.0,0.0,0.0,0.0,0.0,0.0,0.0,0.0,0.0,0.0,0.0,0.0,0.0,0.0,0.0,0.0,0.0,0.0,0.0,0.0,-4.0457,-4.0286,-4.0364,-4.0457,0.0,-4.0372,-4.0449,-4.0278,-4.0372,0.0,0.0,0.0,0.0,0.0,0.0,0.0,-3.958,-3.9305,-3.9142,-3.9101,-3.8469,-3.8034,-3.7984,-3.7308,-3.7147,-3.7735,-3.7742,-3.8029,-3.867,-3.8707,0.0,0.0,0.0,0.0,0.0,0.0,0.0,0.0,0.0,0.0,0.0,0.0,0.0,0.0,0.0,0.0,0.0,0.0,0.0,0.0,0.0,0.0,0.0,0.0,0.0,0.0,0.0,0.0,0.0,-4.2441,-4.3333,-4.3599,-4.3981,-4.4449,0.0,0.0,0.0,0.0,0.0,0.0,0.0,0.0,0.0,-4.5225,-4.5775,-4.6144,-4.63,-4.63,-4.63,-4.63,-4.63,-4.63,-4.63,-4.6305,-4.6293,-4.6301,-4.6304,-4.6247,-4.6142,-4.6112,-4.6052,-4.5991,0.0,0.0,0.0,0.0,-4.4987,-4.4452,-4.3465,-4.2567,-4.1743,-4.117,0.0,0.0,0.0,0.0,0.0,0.0,0.0,0.0,0.0,0.0,-4.0082,-3.9993,-4.0043,-4.0082,-3.9993,-4.0043,-4.0139,0.0,-4.0278,-4.0304,-4.0223,0.0,0.0,0.0,0.0,-3.8931,-3.8843,-3.8189,-3.7745,-3.7745,-3.7429,-3.7212,-3.7172,-3.6816,-3.6726,-3.7022,-3.6999,-3.7108,-3.739,-3.7408,-3.7393,0.0,0.0,0.0,0.0,0.0,0.0,0.0,0.0,0.0,0.0,0.0,0.0,0.0,0.0,0.0,0.0,0.0,0.0,0.0,0.0,0.0,0.0,0.0,0.0,0.0,0.0,0.0,0.0,-4.1993,-4.2761,-4.3053,-4.3369,-4.3826,0.0,0.0,0.0,0.0,0.0,0.0,-4.3104,-4.3904,-4.4462,-4.47,-4.5502,-4.6061,-4.63,-4.63,-4.63,-4.63,-4.63,-4.63,-4.63,-4.63,-4.6308,-4.63,-4.6301,-4.6225,-4.6105,-4.6102,-4.6039,-4.5947,-4.5848,-4.5807,-4.5787,-4.5568,-4.5104,-4.4445,-4.3435,-4.2479,-4.1577,-4.0828,-4.0423,-4.0196,-4.0129,0.0,0.0,0.0,0.0,-3.984,-4.0042,-3.9953,-3.9786,-3.975,-3.9765,-3.9786,-3.972,-3.9765,-3.984,0.0,-4.0052,-4.0072,-4.0031,0.0,0.0,0.0,-3.9044,-3.8281,-3.8209,-3.7311,-3.6699,-3.6699,-3.6532,-3.6402,-3.6402,-3.6133,-3.6062,-3.629,-3.6255,-3.6274,-3.6426,-3.6412,-3.637,-3.6332,0.0,0.0,0.0,0.0,0.0,0.0,0.0,0.0,0.0,0.0,0.0,0.0,0.0,0.0,0.0,0.0,0.0,0.0,0.0,0.0,0.0,0.0,0.0,0.0,0.0,0.0,0.0,0.0,0.0,-4.0102,-4.1141,0.0,0.0,0.0,0.0,-4.3162,-4.3124,-4.3104,-4.3104,-4.3974,-4.455,-4.47,-4.5609,-4.617,-4.63,-4.63,-4.63,-4.63,-4.63,-4.63,-4.63,-4.63,-4.6305,-4.6294,-4.63,-4.6227,-4.6105,-4.6109,-4.5998,-4.5814,-4.5807,-4.5807,-4.571,-4.4949,-4.4632,-4.4478,-4.3581,-4.2589,-4.1689,-4.1643,-4.0989,-4.0158,-3.9895,-3.9908,0.0,0.0,-3.988,-3.9808,-3.9819,-3.9808,-3.9742,-3.9568,-3.966,-3.9742,-3.9568,-3.966,-3.9761,0.0,-3.9683,-3.9754,-3.9568,0.0,-3.975,-3.9568,-3.8825,-3.8209,-3.796,-3.7201,-3.6699,-3.6699,-3.603,-3.5566,-3.5566,-3.4791,-3.4643,-3.5401,-3.5462,-3.5769,-3.6477,-3.6426,-3.6398,-3.6398,-3.5942,0.0,0.0,0.0,0.0,0.0,0.0,0.0,0.0,0.0,0.0,0.0,0.0,0.0,0.0,0.0,0.0,0.0,0.0,0.0,0.0,0.0,0.0,0.0,0.0,0.0,0.0,0.0,0.0,-4.1464,-4.1469,0.0,-4.2452,-4.2324,-4.2225,-4.225,-4.1739,-4.1439,-4.1439,-4.2283,-4.284,-4.301,-4.3898,-4.4451,-4.4621,-4.4621,-4.4621,-4.4621,-4.4621,-4.4621,-4.4621,-4.4621,-4.4626,-4.4634,-4.4637,-4.4549,-4.4426,-4.4423,-4.4661,-4.5026,-4.5026,-4.4697,-4.4156,-4.3866,-4.3769,-4.362,-4.2621,-4.2025,-4.158,-4.0778,-4.0207,-3.9834,-3.9848,-3.9747,-3.9658,-3.9899,-3.9671,-3.9389,-3.9561,-3.9489,-3.9326,-3.9272,-3.9292,-3.9195,-3.86,-3.852,-3.839,-3.7816,-3.8726,-3.9573,-3.9508,-3.9421,-3.9208,-3.8788,-3.7897,-3.7056,-3.6433,-3.5621,-3.5089,-3.5089,-3.4829,-3.4674,-3.4674,-3.4395,-3.4315,-3.4606,-3.4624,-3.4717,-3.4949,-3.4924,-3.4903,-3.4863,-3.4475,-3.4371,0.0,0.0,0.0,0.0,0.0,0.0,0.0,0.0,0.0,0.0,0.0,0.0,0.0,0.0,0.0,0.0,0.0,0.0,0.0,0.0,0.0,0.0,0.0,0.0,0.0,-4.002,-4.0266,-4.1235,-4.1021,-4.1119,-4.1914,-4.1571,-4.1311,-4.1354,-4.0843,-4.0496,-4.0496,-4.1335,-4.1889,-4.2097,-4.2947,-4.3502,-4.3704,-4.3705,-4.3705,-4.3705,-4.3705,-4.3705,-4.3705,-4.3705,-4.3708,-4.3693,-4.3696,-4.3633,-4.3524,-4.3501,-4.3599,-4.3789,-4.4053,-4.3808,-4.3305,-4.3305,-4.3305,-4.3149,-4.2071,-4.1708,-4.1498,-4.0278,-3.9811,-3.9715,-3.9777,-3.9631,-3.9489,-3.9739,-3.9276,-3.876,-3.8926,-3.8635,-3.8284,-3.8284,-3.8284,-3.8135,-3.7596,-3.7503,-3.7336,-3.6811,-3.771,-3.8552,-3.8552,-3.8417,-3.8165,-3.7798,-3.6907,-3.6105,-3.5566,-3.4736,-3.4197,-3.4197,-3.4197,-3.4197,-3.4197,-3.4197,-3.4197,-3.4197,-3.4197,-3.4185,-3.4136,-3.4111,-3.4086,-3.4036,-3.3556,-3.3429,-3.3689,0.0,0.0,0.0,0.0,0.0,0.0,0.0,0.0,0.0,0.0,0.0,0.0,0.0,0.0,0.0,0.0,0.0,0.0,0.0,0.0,0.0,0.0,0.0,-3.9087,-3.9087,-3.9087,-3.9101,-3.9614,-3.9973,-4.0012,-4.0294,-4.0489,-4.0496,-4.0496,-4.0496,-4.0496,-4.1296,-4.1851,-4.2053,-4.2889,-4.3405,-4.3604,-4.3626,-4.3627,-4.3627,-4.3627,-4.3627,-4.3627,-4.3627,-4.3627,-4.3627,-4.3596,-4.3533,-4.3467,-4.3383,-4.2797,-4.2073,-4.293,-4.3247,-4.3227,-4.3189,-4.3169,-4.2995,-4.1944,-4.1601,-4.1382,-4.0222,-3.9838,-3.9783,-3.958,-3.9483,-3.9407,-3.9337,-3.868,-3.7949,-3.7883,-3.7294,-3.6699,-3.6699,-3.6699,-3.6686,-3.663,-3.6612,-3.6606,-3.6569,-3.6551,-3.6588,-3.6681,-3.6699,-3.6686,-3.6681,-3.6012,0.0,-3.5454,-3.4729,-3.4197,-3.4197,-3.4197,-3.4197,-3.4197,-3.4197,-3.4197,-3.4197,-3.4197,-3.4197,-3.4185,-3.4124,-3.4086,-3.4074,-3.3292,-3.3045,-3.3291,0.0,0.0,0.0,0.0,0.0,0.0,0.0,0.0,0.0,0.0,0.0,0.0,0.0,0.0,0.0,0.0,0.0,0.0,0.0,0.0,0.0,-3.8765,-3.881,-3.881,-3.881,-3.8881,-3.9073,-3.9279,-3.9573,-3.9953,-4.0139,-4.0295,-4.0481,-4.0496,-4.0496,-4.0496,-4.0727,-4.0933,-4.1077,-4.1353,-4.1587,-4.1741,-4.1798,-4.1812,-4.1812,-4.1812,-4.1812,-4.1812,-4.1812,-4.1812,-4.1773,-4.115,-4.0855,-4.0797,-4.01,-3.962,-3.9552,-4.1581,-4.199,-4.1409,-4.0777,-4.0133,-3.9566,-3.9251,-3.9075,-3.8881,-3.8556,-3.8242,-3.8004,-3.794,-3.7818,-3.7685,-3.7673,-3.7399,-3.7143,-3.7098,-3.6892,-3.6699,-3.6699,-3.6699,-3.6383,-3.5144,-3.4884,-3.4544,-3.3373,-3.315,-3.3912,-3.6278,-3.6699,-3.6513,-3.5919,-3.564,0.0,-3.4637,-3.4346,-3.4197,-3.4197,-3.4197,-3.4197,-3.4197,-3.4197,-3.4197,-3.4197,-3.4197,-3.4111,-3.3908,-3.3895,-3.3743,-3.3443,-3.3087,-3.2934,0.0,0.0,0.0,0.0,0.0,0.0,0.0,0.0,0.0,0.0,0.0,0.0,0.0,0.0,0.0,0.0,0.0,0.0,0.0,0.0,0.0,0.0,-3.8707,-3.8707,-3.8707,-3.8707,-3.875,-3.8906,-3.9069,-3.9294,-3.9671,-3.9941,-4.0177,-4.0356,-4.0457,-4.0496,-4.0496,-4.0496,-4.0571,-4.0694,-4.0746,-4.066,-4.0464,-4.0482,-4.0352,-4.0055,-4.0055,-4.0055,-4.0055,-4.0055,-4.0055,-4.0016,-3.9528,-3.9306,-3.9258,-3.865,-3.8383,0.0,0.0,0.0,0.0,0.0,-3.8624,-3.8193,-3.8193,-3.8125,-3.8001,-3.793,-3.7677,-3.7414,-3.7325,-3.7181,-3.704,-3.7004,-3.6677,-3.6323,-3.6298,-3.5727,-3.5144,-3.5144,-3.4897,-3.4376,-3.341,-3.3187,-3.2927,-3.1979,-3.1794,0.0,-3.4321,-3.4934,-3.499,-3.4525,-3.4748,-3.4773,-3.4271,-3.4197,-3.4197,-3.4197,-3.4197,-3.4197,-3.4197,-3.4197,0.0,0.0,0.0,-3.4136,-3.3972,-3.3972,0.0,0.0,0.0,-3.2901,-3.2874,0.0,0.0,0.0,-3.4914,-3.6214,0.0,0.0,0.0,0.0,0.0,0.0,0.0,0.0,0.0,0.0,0.0,0.0,0.0,0.0,0.0,0.0,-3.8707,-3.8707,-3.8707,-3.8707,-3.8707,-3.8707,-3.8923,-3.9117,-3.9266,-3.9736,-4.0071,-4.0186,-4.0356,-4.0434,-4.0381,0.0,0.0,0.0,0.0,-4.0119,-3.9526,-3.9542,-3.9229,-3.8587,-3.859,-3.8591,-3.8591,-3.8591,-3.8591,-3.8591,-3.8494,-3.846,-3.843,-3.8211,-3.8107,-3.8098,-3.817,-3.8135,-3.8057,-3.8057,-3.7999,-3.7922,-3.7922,0.0,0.0,-3.767,-3.7474,-3.7268,-3.707,-3.692,-3.6817,-3.6747,-3.6108,-3.5413,-3.5354,-3.412,-3.2871,-3.2871,-3.2314,-3.1775,-3.1682,-3.1663,-3.1645,-3.1552,-3.1533,-3.1552,-3.1645,-3.2407,-3.3001,-3.3001,-3.3677,-3.4197,-3.4197,-3.4197,-3.4197,-3.4197,0.0,0.0,-3.4197,-3.4173,-3.4161,-3.4161,-3.408,-3.4037,-3.4037,-3.3999,-3.3773,-3.3372,-3.3054,-3.284,-3.2699,-3.2109,-3.2381,-3.3509,-3.4945,-3.6065,0.0,0.0,0.0,0.0,0.0,0.0,0.0,0.0,0.0,0.0,0.0,0.0,0.0,0.0,0.0,-3.8707,-3.8707,-3.8707,-3.8707,-3.8707,-3.8707,-3.8707,-3.8788,-3.8923,-3.9117,-3.9389,-3.9709,-4.0091,-4.0214,-4.0062,-3.9565,-3.9534,-3.9215,-3.8532,-3.8575,-3.8537,-3.8412,-3.8564,-3.8589,-3.8444,0.0,0.0,-3.8591,-3.8591,-3.8591,-3.8552,-3.7869,-3.7529,-3.7402,-3.6682,-3.6328,-3.6343,-3.7685,-3.7767,-3.7154,-3.7154,-3.6748,-3.6187,-3.6187,-3.6085,-3.5932,-3.5905,-3.5679,-3.542,-3.5372,-3.5233,0.0,-3.5079,-3.4442,-3.3761,-3.3739,-3.2933,-3.211,-3.211,-3.1946,-3.1626,-3.0976,-3.0827,-3.0641,-2.9991,-2.9861,-3.0065,-3.0716,-3.2035,-3.3001,-3.3001,-3.3677,-3.4197,-3.4197,-3.4197,-3.4197,-3.4197,-3.4197,-3.4197,-3.4197,-3.3998,-3.3868,-3.3868,-3.3372,-3.3072,-3.3072,-3.2747,-3.2537,-3.2454,-3.2335,-3.2214,-3.2074,-3.1948,-3.2585,-3.3988,-3.4602,-3.5632,0.0,0.0,0.0,0.0,0.0,0.0,0.0,0.0,0.0,0.0,0.0,-3.8725,-3.8606,0.0,-3.8352,-3.8385,-3.8401,-3.8401,-3.8401,-3.858,-3.8707,-3.8707,-3.8719,-3.8803,-3.8937,-3.8769,-3.8765,-3.9082,-3.8884,-3.8633,-3.8369,-3.8435,-3.8303,-3.7854,-3.7973,-3.7868,-3.7502,-3.7599,-3.7459,-3.7049,-3.7174,-3.7256,-3.7258,-3.7276,-3.7301,-3.7262,-3.6833,-3.6626,-3.6559,-3.608,-3.5836,-3.5839,-3.6632,-3.6682,-3.6303,-3.6303,-3.6052,-3.5704,-3.5704,-3.5631,-3.5527,-3.5418,-3.522,-3.4999,-3.4917,-3.4478,-3.4001,-3.4001,-3.3377,-3.2697,-3.2697,-3.1998,-3.1307,-3.1294,-3.0937,-3.0477,-3.0095,-2.9991,-2.988,-2.9471,-2.9396,-2.9657,-3.0456,-3.1608,-3.2537,-3.2946,-3.3677,-3.4197,-3.4197,-3.4197,-3.4197,-3.4197,-3.4197,-3.4197,-3.4197,-3.4074,-3.3998,-3.3998,-3.368,-3.3496,-3.3496,-3.3181,-3.291,-3.2702,-3.2487,-3.2266,-3.2002,-3.193,-3.2482,-3.3604,-3.3739,-3.4923,0.0,0.0,0.0,0.0,0.0,0.0,0.0,-3.831,-3.8168,-3.8168,-3.8168,-3.8167,-3.8249,-3.8016,-3.7879,-3.793,-3.7929,-3.7948,-3.7965,-3.8142,-3.8245,-3.8245,-3.8373,-3.8499,-3.8538,-3.7988,-3.7664,-3.7841,-3.7457,-3.7207,-3.7146,-3.7299,-3.7332,-3.7213,-3.7364,-3.7189,-3.663,-3.664,-3.6327,-3.5672,-3.5797,-3.5878,-3.5892,-3.5968,-3.5986,-3.5992,-3.5998,-3.598,-3.5985,-3.5924,-3.5864,-3.5782,-3.5723,-3.5697,-3.5695,-3.5709,-3.5704,-3.5704,-3.5704,-3.5673,-3.562,-3.5457,-3.5254,-3.5034,-3.4745,-3.4073,-3.3395,-3.3204,-3.2524,-3.1875,-3.1875,-3.1169,-3.0482,-3.0487,-2.9936,-2.9412,-2.9399,-2.9399,-2.9388,-2.9407,-2.9396,-2.9657,-3.0456,-3.1143,-3.1886,-3.2871,-3.3677,-3.4197,-3.4197,-3.4197,-3.4197,-3.4197,-3.4197,-3.4185,-3.4124,-3.4124,-3.4068,-3.3935,-3.3935,-3.391,-3.3845,-3.3703,-3.3447,-3.3139,-3.286,-3.2554,-3.2232,-3.2037,-3.2365,-3.311,-3.3074,-3.4284,-3.3071,-3.4463,-3.6078,-3.6579,-3.701,-3.7323,0.0,-3.736,-3.7323,-3.7323,-3.7323,-3.734,-3.7341,-3.7304,-3.7304,-3.7379,-3.7379,-3.7433,-3.756,-3.7041,-3.6664,-3.6664,-3.723,-3.7639,-3.7636,-3.6988,-3.6665,-3.6926,-3.6953,-3.6731,-3.6263,-3.6264,-3.6026,-3.5488,-3.5493,-3.5561,-3.5662,-3.5724,-3.569,-3.5609,-3.5691,-3.5771,-3.5908,-3.5916,-3.5942,-3.5994,-3.5934,-3.5918,-3.5918,-3.5898,-3.5861,-3.5788,-3.573,-3.5708,-3.5702,-3.5695,-3.5704,-3.5704,-3.5704,-3.5577,-3.5438,-3.5405,-3.5254,-3.492,-3.4014,-3.3676,-3.3393,-3.2503,-3.1663,-3.1034,-3.1034,-3.0376,-2.9719,-2.9709,-2.9605,-2.9472,-2.9412,-2.9402,-2.9411,-2.9407,-2.9396,-2.9657,-3.0456,-3.066,-3.1255,-3.2778,-3.3677,-3.4197,-3.4197,-3.4197,-3.4197,-3.4197,-3.4197,-3.4099,-3.3855,-3.3842,-3.3592,-3.2981,-3.2968,-3.2844,-3.2607,-3.2798,-3.289,-3.2842,-3.2795,-3.2732,-3.2636,-3.2318,-3.2509,-3.3204,-3.3494,-3.4075,-3.164,-3.2865,-3.3999,-3.4937,-3.5459,-3.59,-3.6438,-3.6556,-3.6654,-3.6962,-3.7036,-3.7038,-3.7078,-3.6884,-3.6764,-3.6865,-3.6943,-3.6823,-3.644,-3.6398,-3.6237,-3.5755,-3.5558,-3.5724,-3.6383,-3.5937,-3.5657,-3.5858,-3.5466,-3.5124,-3.4952,-3.5128,-3.5121,-3.486,-3.5081,-3.5242,-3.5331,-3.5463,-3.5534,-3.5534,-3.5604,-3.5679,-3.5724,-3.5856,-3.5936,-3.5992,-3.5965,-3.5934,-3.5898,-3.5891,-3.5878,-3.5858,-3.5771,-3.5724,-3.5703,-3.5701,-3.5704,-3.5704,-3.5704,-3.5637,-3.5559,-3.5444,-3.5004,-3.4431,-3.3922,-3.3092,-3.2213,-3.1673,-3.093,-3.0299,-3.0218,-2.9927,-2.9645,-2.9607,-2.9588,-2.954,-2.9472,-2.9463,-2.9443,-2.9411,-2.9401,-2.9651,-3.0466,-3.0604,-3.0995,-3.2128,-3.2593,-3.2797,-3.2797,-3.2797,-3.2797,-3.2797,-3.2797,-3.2691,-3.2426,-3.2401,-3.2213,-3.178,-3.1908,-3.1936,-3.1812,-3.219,-3.2379,-3.2379,-3.2505,-3.2539,-3.2523,-3.2301,-3.2336,-3.2615,-3.2721,-3.3107,-2.9134,-3.0267,-3.1133,-3.2924,-3.3729,-3.4294,-3.5138,-3.543,-3.564,-3.6015,-3.6096,-3.61,-3.6167,-3.593,-3.5722,-3.5668,-3.5702,-3.5549,-3.501,-3.5101,-3.5046,-3.4624,-3.3948,-3.3867,-3.4683,-3.4528,-3.4444,-3.4566,-3.4105,-3.3876,-3.3967,-3.4281,-3.4506,-3.4602,-3.487,-3.5063,-3.5115,-3.5324,-3.5417,-3.5424,-3.5509,-3.5574,-3.5618,-3.581,-3.5929,-3.598,-3.5988,-3.5964,-3.5936,-3.5918,-3.5891,-3.5888,-3.5828,-3.5767,-3.573,-3.5713,-3.5695,-3.5704,-3.5704,-3.5704,-3.5635,-3.5257,-3.4674,-3.4012,-3.3394,-3.2344,-3.1264,-3.0827,-3.0294,-2.9815,-2.9719,-2.9701,-2.9692,-2.9636,-2.9626,-2.9607,-2.954,-2.9531,-2.9521,-2.9443,-2.9412,-2.9597,-3.0161,-3.0262,-3.0474,-3.105,-3.1143,-3.1292,-3.1738,-3.1794,-3.1794,-3.1794,-3.1794,-3.1726,-3.1525,-3.1513,-3.1391,-3.1099,-3.1272,-3.1335,-3.1265,-3.1655,-3.1869,-3.1869,-3.1951,-3.2109,-3.2323,-3.2054,-3.2039,-3.2249,-3.2161,-3.2387,-2.4856,-2.6074,-2.7218,-3.0239,-3.1732,-3.2627,-3.3246,-3.3744,-3.407,-3.4095,-3.4095,-3.4095,-3.4095,-3.407,-3.3892,-3.3378,-3.3312,-3.3307,-3.327,-3.2671,-3.2414,-3.2902,-3.2597,-3.2371,-3.2405,-3.267,-3.2894,-3.297,-3.3258,-3.3472,-3.3607,-3.3923,-3.4257,-3.4602,-3.4604,-3.471,-3.4917,-3.5107,-3.5218,-3.5218,-3.5417,-3.5541,-3.5618,-3.581,-3.5892,-3.5914,-3.5978,-3.5992,-3.5996,-3.5936,-3.5898,-3.5897,-3.5838,-3.5807,-3.5791,-3.5722,-3.5711,-3.5704,-3.5704,-3.5704,-3.5549,-3.4717,-3.4317,-3.3865,-3.2027,-3.1344,-3.0993,-3.0019,-2.9711,-2.9711,-2.9711,-2.9701,-2.9701,-2.9701,-2.9701,-2.9683,-2.9607,-2.9598,-2.9588,-2.9502,-2.9443,-2.9402,-2.944,-2.9446,-2.9434,-2.9471,-2.9471,-3.0028,-3.1608,-3.1794,-3.1794,-3.1794,-3.1794,-3.1812,-3.1782,-3.1782,-3.1649,-3.1304,-3.1292,-3.1183,-3.0943,-3.1175,-3.1316,-3.1316,-3.1074,-3.1341,-3.2108,-3.1521,-3.1633,-3.2388,-3.2267,-3.2161,-2.0362,-2.1934,-2.3436,-2.5953,-2.7526,-2.8895,-3.0709,-3.15,-3.2097,-3.2914,-3.3061,-3.2945,-3.2554,-3.2695,-3.2688,-3.2096,-3.2286,-3.2361,-3.1808,-3.1772,-3.165,-3.1345,-3.1317,-3.1302,-3.1302,-3.2196,-3.2811,-3.2842,-3.2965,-3.3087,-3.313,-3.3538,-3.38,-3.3865,-3.4344,-3.4604,-3.4628,-3.487,-3.5072,-3.5209,-3.541,-3.5541,-3.5593,-3.5665,-3.5761,-3.5892,-3.5929,-3.5951,-3.5992,-3.5983,-3.5934,-3.5898,-3.5872,-3.5838,-3.5804,-3.5767,-3.573,-3.5692,-3.5695,-3.5322,-3.48,-3.451,-3.3594,-3.2488,-3.1852,-3.118,-3.0508,-3.0095,-2.9905,-2.9798,-2.9719,-2.9701,-2.9701,-2.9701,-2.9701,-2.9683,-2.9664,-2.9673,-2.9645,-2.9588,-2.954,-2.9521,-2.9472,-2.9423,-2.939,-2.9407,-2.9396,-2.9601,-3.014,-3.0214,-3.0142,-2.9968,-2.9938,-2.9781,-2.9383,-2.9357,-2.9227,-2.8929,-2.908,-2.9134,-2.9044,-2.9642,-2.9971,-2.9971,-3.0229,-3.0505,-3.0772,-3.057,-3.0615,-3.0896,-3.155,-3.1861,-1.6336,-1.7867,-1.9453,-2.218,-2.3696,-2.5133,-2.7554,-2.8555,-2.9276,-3.0477,-3.0704,-3.0639,-3.0475,-3.0654,-3.0706,-3.0316,-3.0546,-3.0625,-3.0211,-3.0453,-3.0636,-3.0506,-3.0683,-3.0804,-3.0804,-3.1588,-3.2144,-3.2248,-3.2535,-3.2699,-3.2713,-3.3115,-3.3397,-3.35,-3.3955,-3.4262,-3.4351,-3.4618,-3.4898,-3.5209,-3.5331,-3.5442,-3.5564,-3.5585,-3.5665,-3.5799,-3.5872,-3.5929,-3.5976,-3.5988,-3.5963,-3.5935,-3.5918,-3.5871,-3.583,-3.5808,-3.5585,-3.5262,-3.5243,-3.4863,-3.4297,-3.3673,-3.268,-3.1664,-3.1355,-3.0772,-3.0209,-3.0117,-2.9992,-2.9891,-2.9799,-2.9738,-2.9701,-2.9701,-2.9701,-2.9701,-2.9701,-2.9701,-2.9692,-2.9636,-2.9617,-2.9588,-2.954,-2.9453,-2.9392,-2.9409,-2.9388,-2.9396,-2.9396,-2.9396,-2.9326,-2.9156,-2.9145,-2.8984,-2.8597,-2.8471,-2.8399,-2.8321,-2.8277,-2.8337,-2.8547,-2.886,-2.908,-2.9188,-2.9322,-2.9538,-2.9806,-2.9714,-2.9825,-3.0124,-3.0804,-3.1093,-1.2668,-1.39,-1.5179,-1.8838,-2.0252,-2.1409,-2.3867,-2.4882,-2.5654,-2.6831,-2.71,-2.7319,-2.7883,-2.8054,-2.8107,-2.8062,-2.8107,-2.8237,-2.8479,-2.874,-2.9284,-3.0234,-3.0563,-3.0707,-3.0707,-3.0747,-3.0905,-3.1237,0.0,-3.2266,-3.2351,-3.2681,-3.3057,-3.3429,-3.3486,-3.3666,-3.4061,-3.4351,-3.4722,-3.5176,-3.5201,-3.5308,-3.5493,-3.5558,-3.5602,-3.5599,-3.5802,-3.5883,-3.5894,-3.5917,-3.5932,-3.5917,-3.5818,-3.5762,-3.5761,-3.5706,-3.5142,-3.4429,-3.4307,-3.4265,-3.3988,-3.2338,-3.1692,-3.1389,-3.0562,-3.0216,-3.0103,-3.0103,-3.0007,-2.9905,-2.9905,-2.9816,-2.9701,-2.9701,-2.9692,-2.9701,-2.9701,-2.9701,-2.9701,-2.9701,-2.9655,-2.9598,-2.9598,-2.9491,-2.9402,-2.9402,-2.9409,-2.9396,-2.9396,-2.9396,-2.9396,-2.9386,-2.9386,-2.9357,-2.9365,-2.9123,-2.9071,-2.9336,-2.882,-2.8754,-2.9326,-2.8802,-2.8646,-2.898,-2.8407,-2.8491,-2.9262,-2.8988,-2.9259,-3.0031,-3.005,-3.0002,-0.8617,-0.9743,-1.1108,-1.4307,-1.5607,-1.6891,-1.9918,-2.1117,-2.2037,-2.3673,-2.4553,-2.5001,-2.5005,-2.6072,-2.6793,-2.6338,-2.6898,-2.7391,-2.7479,-2.771,-2.8006,-2.8369,-2.8996,-2.9422,-2.9534,-3.0081,-3.046,-3.0543,-3.1181,-3.1564,-3.1582,-3.2179,-3.2551,-3.2602,-3.3196,-3.3514,-3.3588,-3.4191,-3.4594,-3.4761,-3.5063,-3.5226,-3.5273,-3.5455,-3.5553,-3.5593,-3.565,-3.5753,-3.5853,-3.522,-3.4993,-3.4979,-3.4303,-3.4039,-3.4043,-3.4018,-3.3848,-3.3495,-3.2781,-3.2492,-3.2396,-3.1947,-3.1371,-3.081,-3.0598,-3.0384,-3.0253,-3.0253,-3.0151,-3.0044,-3.0044,-2.9942,-2.9849,-2.9849,-2.9764,-2.9701,-2.9701,-2.9701,-2.9701,-2.9701,-2.9655,-2.9588,-2.954,-2.9453,-2.9392,-2.9399,-2.9407,-2.9396,-2.9396,-2.9396,-2.9315,-2.9123,-2.9112,-2.8996,-2.8742,-2.867,-2.8658,-2.873,-2.8591,-2.8566,-2.873,-2.8578,-2.8541,-2.8633,-2.8478,-2.851,-2.8696,-2.8433,-2.8513,-2.8932,-2.9365,-2.9535,-0.6796,-0.7733,-0.8816,-1.1104,-1.2222,-1.345,-1.6055,-1.7512,-1.875,-2.0262,-2.1656,-2.2622,-2.2768,-2.402,-2.496,-2.4908,-2.5384,-2.5903,-2.6373,-2.6675,-2.7038,-2.754,-2.8183,-2.8591,-2.8646,-2.9118,-2.9518,-2.9755,-3.0584,-3.1083,-3.1083,-3.1621,-3.1967,-3.2074,-3.2665,-3.3045,-3.3181,-3.3813,-3.4165,-3.43,-3.4724,-3.4783,-3.4499,-3.4699,-3.4632,-3.434,0.0,-3.4579,-3.4641,-3.4213,-3.4057,-3.4044,-3.3587,-3.3405,-3.3395,-3.3398,-3.3137,-3.2691,-3.214,-3.1641,-3.1261,-3.1269,-3.0965,-3.0598,-3.0598,-3.025,-2.9857,-2.9857,-2.9763,-2.966,-2.966,-2.982,-2.9988,-2.9988,-2.9926,-2.9855,-2.9808,-2.979,-2.9764,-2.9701,-2.9683,-2.9626,-2.9589,-2.9531,-2.9481,-2.946,-2.9429,-2.9399,-2.9407,-2.9396,-2.9294,-2.9026,-2.9003,-2.8862,-2.8529,-2.8402,-2.8358,-2.8485,-2.8389,-2.8376,-2.8504,-2.8504,-2.8435,-2.8337,-2.8324,-2.8272,-2.8156,-2.8129,-2.8166,-2.8342,-2.8797,-2.8968,-0.6228,-0.6892,-0.7582,-0.8918,-0.9825,-1.0874,-1.2641,-1.4334,-1.5854,-1.7002,-1.8772,-2.0358,-2.1021,-2.2138,-2.3165,-2.3787,-2.3933,-2.4326,-2.5273,-2.5604,-2.6117,-2.7078,-2.757,-2.7893,-2.7966,-2.8192,-2.8519,-2.9051,-3.0021,-3.0625,-3.0727,-3.1044,-3.1395,-3.1789,-3.2144,-3.2486,-3.2903,-3.3339,-3.3597,-3.3703,-3.418,-3.4038,-3.3421,-3.3614,-3.3322,-3.271,-3.2946,-3.3072,-3.3093,-3.3099,-3.3117,-3.3115,-3.3069,-3.3042,-3.3049,-3.3045,-3.2578,-3.1913,-3.1857,-3.1304,-3.0604,-3.0602,-3.0592,-3.0578,-3.0462,-2.9901,-2.9287,-2.9171,-2.9043,-2.8959,-2.8923,-2.9347,-2.9758,-2.9744,-2.9723,-2.9691,-2.9575,-2.9542,-2.9538,-2.9532,-2.9532,-2.9561,-2.9673,-2.9626,-2.9578,-2.9502,-2.9453,-2.9402,-2.9399,-2.9407,-2.9294,-2.9026,-2.9026,-2.8927,-2.8591,-2.8394,-2.8363,-2.8603,-2.8402,-2.8376,-2.8603,-2.8615,-2.8504,-2.829,-2.8259,-2.8156,-2.7929,-2.8075,-2.8179,-2.8259,-2.8363,-2.8422,-0.5613,-0.5844,-0.6239,-0.7512,-0.835,-0.9282,-1.0902,-1.2421,-1.3865,-1.5118,-1.6908,-1.8579,-1.9568,-2.1124,-2.2506,-2.3135,-2.3669,-2.405,-2.4239,-2.4326,-2.4656,-2.5494,-2.6158,-2.6776,-2.7384,-2.7972,-2.8519,-2.9051,-2.9264,-2.9689,-3.0356,-3.0707,-3.1167,-3.1789,-3.2144,-3.2486,-3.2903,-3.3151,-3.3055,-3.2672,-3.3084,-3.2957,-3.2363,-3.2568,-3.2673,-3.2703,-3.2754,0.0,-3.3045,-3.2343,-3.2131,-3.2153,-3.1458,-3.1209,-3.125,-3.1255,-3.1168,-3.1015,-3.1013,-3.0863,-3.0671,-3.0626,-3.0595,-3.0462,-2.9747,-2.9422,-2.9152,-2.8436,-2.821,-2.8178,-2.8062,-2.8036,-2.8012,-2.7897,-2.7774,-2.771,-2.7677,-2.7669,-2.7859,-2.85,-2.8633,-2.8839,-2.9504,-2.956,-2.9502,-2.9502,-2.9492,-2.9463,-2.9402,-2.9399,-2.9294,-2.9026,-2.92,-2.9211,-2.8938,-2.9082,-2.9181,-2.9243,-2.9211,-2.92,-2.9243,-2.9243,-2.9222,-2.9189,-2.9171,-2.9149,-2.9104,-2.8658,-2.8694,-2.9149,-2.825,-2.8075,-0.5885,-0.6017,-0.6148,-0.6773,-0.7717,-0.871,-0.9532,-1.1408,-1.318,-1.3878,-1.6036,-1.8049,-1.894,-2.046,-2.1822,-2.2506,-2.2871,-2.316,-2.3505,-2.3787,-2.4266,-2.5006,-2.5783,-2.6375,-2.6733,-2.724,-2.773,-2.8216,-2.8264,-2.881,-3.0044,-3.0372,-3.0848,-3.1528,-3.1712,-3.1776,-3.1754,-3.2064,-3.1978,-3.1515,-3.1923,-3.183,-3.1325,-3.1478,-3.1399,-3.1097,-3.1264,0.0,-3.1518,-3.1249,-3.1184,-3.1234,-3.0855,-3.0735,-3.08,-3.08,-3.0808,-3.0795,-3.0797,-3.0488,-3.0065,-3.0045,-2.9997,-2.9881,-2.944,-2.8664,-2.7871,-2.7445,-2.7329,-2.7316,-2.7238,-2.7513,-2.7788,-2.7725,-2.7567,-2.7388,-2.7319,-2.7242,-2.7317,-2.7703,-2.7788,-2.7901,-2.8276,-2.8315,-2.8437,-2.8867,-2.8942,-2.9045,-2.9407,-2.9451,-2.9339,-2.9026,-2.9123,-2.9071,-2.8761,-2.8855,-2.8925,-2.8925,-2.9104,-2.9115,-2.8943,-2.9232,-2.9254,-2.8943,-2.9104,-2.9104,-2.8925,-2.8827,-2.8897,-2.9178,-2.8779,-2.8725,-0.6284,-0.6387,-0.642,-0.6486,-0.7521,-0.8549,-0.8801,-1.0996,-1.3039,-1.3221,-1.5602,-1.7829,-1.8473,-1.9862,-2.1166,-2.1839,-2.2092,-2.2359,-2.2841,-2.3327,-2.3859,-2.4523,-2.5217,-2.5783,-2.6084,-2.6258,-2.6669,-2.7439,-2.7615,-2.8264,-2.9643,-3.0092,-3.0543,-3.1064,-3.1065,-3.0916,-3.0589,-3.0852,-3.0765,-3.0324,-3.0739,-3.0687,-3.0209,-3.0406,-3.0151,-2.9589,-2.9872,-3.0025,0.0,-3.0337,-3.0491,-3.0598,-3.065,-3.0722,-3.0773,-3.0799,-3.0683,-3.0548,-3.0548,-2.9975,-2.9238,-2.9237,-2.9187,-2.9087,-2.8846,-2.7865,-2.6773,-2.6517,-2.6435,-2.6435,-2.641,-2.6912,-2.7415,-2.7397,-2.7201,-2.7,-2.6885,-2.6759,-2.6716,-2.6904,-2.6942,-2.6998,-2.7167,-2.7204,-2.7421,-2.8061,-2.8146,-2.8353,-2.8914,-2.9157,-2.9152,-2.8879,-2.8983,-2.8962,-2.8633,-2.867,-2.8676,-2.8676,-2.895,-2.8973,-2.8706,-2.9149,-2.9171,-2.8706,-2.8962,-2.8962,-2.8676,-2.8904,-2.9026,-2.91,-2.916,-2.9243,-0.6383,-0.6387,-0.6486,-0.6782,-0.7684,-0.8651,-0.9294,-1.1291,-1.31,-1.342,-1.5393,-1.7221,-1.779,-1.9256,-2.0564,-2.1118,-2.1757,-2.2216,-2.2278,-2.2328,-2.2592,-2.3207,-2.3463,-2.4066,-2.537,-2.5134,-2.5617,-2.7373,-2.7947,-2.8496,-2.9159,-2.9886,-3.0335,-3.0377,-3.0325,-3.0275,-3.0245,-3.0041,-2.964,-2.9082,-2.9615,-2.9499,-2.8881,-2.9336,-2.9527,-2.9514,-2.9607,-2.9815,0.0,-3.0136,-3.0283,-3.0524,-3.0575,-3.0647,-3.072,-3.0773,-3.0333,-2.9709,-2.9709,-2.9144,-2.8408,-2.834,-2.8279,-2.8067,-2.726,-2.7128,-2.7019,-2.5925,-2.5615,-2.5588,-2.5466,-2.5495,-2.5514,-2.5401,-2.5247,-2.5149,-2.5136,-2.5027,-2.5158,-2.5955,-2.6113,-2.633,-2.7073,-2.7204,-2.7223,-2.729,-2.7308,-2.731,-2.7324,-2.8006,-2.8465,-2.8361,-2.8964,-2.9249,-2.8991,-2.9178,-2.9326,-2.9326,-2.9336,-2.9347,-2.9326,-2.9357,-2.9368,-2.9326,-2.9347,-2.9347,-2.9326,-2.9093,-2.9134,-2.9347,-2.8832,-2.8749,-0.6387,-0.6387,-0.6482,-0.6815,-0.7717,-0.8683,-0.9358,-1.1322,-1.31,-1.342,-1.5083,-1.6729,-1.7626,-1.8873,-2.0062,-2.0948,-2.1726,-2.2306,-2.263,-2.3001,-2.3319,-2.3553,-2.4034,-2.4593,-2.5314,-2.5301,-2.5741,-2.6997,-2.7555,-2.7898,-2.8134,-2.9065,-2.9605,-2.97,-2.9666,-2.9334,-2.8647,-2.8681,-2.8468,-2.7997,-2.8386,-2.8515,-2.846,-2.8867,-2.9049,-2.91,-2.9456,-2.9741,0.0,-3.0073,-3.0253,-3.0501,-3.0522,-3.0305,-2.9988,-2.9965,-2.9478,-2.881,-2.881,-2.8244,-2.7506,-2.7495,-2.7109,-2.6674,-2.6827,-2.6595,-2.6176,-2.5644,-2.5508,-2.5484,-2.5432,-2.5415,-2.5393,-2.5253,-2.5171,-2.5121,-2.505,-2.4987,-2.5043,-2.5385,-2.5461,-2.5529,-2.577,-2.5831,-2.597,-2.6403,-2.648,-2.6641,-2.7095,-2.7451,-2.764,-2.7586,-2.8717,-2.9402,-2.9238,-2.9349,-2.9409,-2.9407,-2.9396,-2.9396,-2.9396,-2.9396,-2.9396,-2.9396,-2.9396,-2.9396,-2.9396,-2.9294,-2.9294,-2.9396,-2.916,-2.9097,-0.6387,-0.6387,-0.6519,-0.7073,-0.7912,-0.8839,-0.9856,-1.1633,-1.3191,-1.3683,-1.505,-1.6487,-1.7605,-1.8734,-1.9843,0.0,-2.1855,-2.2558,-2.2963,-2.3484,-2.3857,-2.3857,-2.4185,-2.4623,-2.5207,-2.5633,-2.596,-2.6163,-2.6878,-2.7352,-2.7489,-2.8032,-2.8521,-2.8904,-2.8796,-2.8313,-2.7464,-2.7587,-2.7502,-2.7222,-2.7607,-2.7897,-2.8125,-2.8491,-2.8706,-2.8784,-2.9185,-2.9523,0.0,-2.9977,-3.0036,-3.0025,-3.0091,-2.9687,-2.9069,-2.9058,-2.8542,-2.7884,-2.791,-2.7348,-2.6625,-2.6625,-2.6198,-2.5814,-2.6363,-2.6126,-2.5605,-2.5525,-2.5502,-2.5491,-2.5496,-2.5507,-2.5476,-2.5388,-2.5327,-2.5269,-2.5176,-2.5132,-2.509,-2.509,-2.509,-2.5061,-2.4987,-2.4968,-2.5144,-2.5664,-2.5706,-2.5875,-2.6451,-2.6712,-2.6839,-2.6778,-2.7997,-2.8895,-2.906,-2.9302,-2.9412,-2.9399,-2.9419,-2.9419,-2.9407,-2.9399,-2.9399,-2.9407,-2.9396,-2.9396,-2.9396,-2.9396,-2.9396,-2.9396,-2.9396,-2.9396,-0.6387,-0.6387,-0.6646,-0.7727,-0.8361,-0.918,-1.1041,-1.2381,-1.3433,-1.4321,-1.5449,-1.6601,-1.7604,-1.8838,-2.0005,-2.0931,-2.215,-2.2999,-2.3011,-2.3469,-2.3794,-2.3794,-2.3336,-2.3547,-2.49,-2.5897,-2.6,-2.4797,-2.6028,0.0,-2.7464,-2.695,-2.7054,-2.7987,-2.7631,-2.7312,-2.7111,-2.6909,-2.6808,-2.6808,-2.7489,-2.7774,-2.773,-2.8129,-2.8453,-2.8712,-2.879,-2.91,0.0,-2.9828,-2.9513,-2.8944,-2.9143,-2.8711,-2.8028,-2.8162,-2.7653,-2.6919,-2.6988,-2.645,-2.5707,-2.5707,-2.5707,-2.5707,-2.5708,-2.57,-2.5679,-2.5539,-2.5492,-2.5491,-2.5496,-2.5507,-2.5507,-2.5507,-2.5402,-2.5308,-2.5303,-2.5187,-2.509,-2.509,-2.509,-2.509,-2.5109,-2.5109,-2.5109,-2.5109,-2.4994,-2.4902,-2.4921,-2.5567,-2.6019,-2.6019,-2.6743,-2.7518,-2.825,-2.9044,-2.9472,-2.9402,-2.9463,-2.9471,-2.9407,-2.9401,-2.9401,-2.9407,-2.9396,-2.9396,-2.9396,-2.9396,-2.9396,-2.9396,-2.9396,-2.9396,-0.7882,-0.7842,-0.8096,-0.9233,-0.9793,-1.045,-1.1981,-1.3127,-1.4004,-1.441,-1.5743,-1.7052,-1.7687,-1.9133,-2.0427,-2.102,-2.2162,-2.3144,-2.3505,-2.3965,-2.4278,-2.4278,-2.396,-2.3766,-2.3816,-2.462,-2.5176,-2.5301,-2.5742,-2.627,-2.6985,-2.6407,-2.6414,-2.7233,-2.6725,-2.6326,-2.6089,-2.6198,-2.6243,-2.6261,-2.664,-2.6939,-2.71,-2.7512,-2.797,-2.8453,-2.8688,-2.91,0.0,-2.9078,-2.8836,-2.8722,-2.8287,-2.7635,-2.6983,-2.7137,-2.669,-2.6011,-2.5974,-2.585,-2.5684,-2.5647,-2.5654,-2.5707,-2.5707,-2.5699,-2.5682,-2.5598,-2.5539,-2.5492,-2.5505,-2.5501,-2.5507,-2.5507,-2.5468,-2.5447,-2.5447,-2.5406,-2.5369,-2.5369,-2.5369,-2.5346,-2.5253,-2.5238,-2.5217,-2.5101,-2.5055,-2.505,-2.505,-2.5241,-2.538,-2.538,-2.6108,-2.6828,-2.7436,-2.8269,-2.8718,-2.866,-2.9184,-2.9482,-2.9471,-2.9463,-2.9443,-2.9401,-2.9401,-2.939,-2.9396,-2.9396,-2.9396,-2.9396,-2.9396,-2.9396,-0.9794,-0.9477,-0.9673,-1.0476,-1.0944,-1.1534,-1.2868,-1.3882,-1.471,-1.5359,-1.6487,-1.7671,-1.8648,-1.9744,-2.0784,-2.1669,-2.265,-2.3493,-2.3977,-2.4494,-2.4675,-2.4278,-2.427,-2.396,-2.2994,-2.3816,-2.4625,-2.5161,-2.5439,-2.5947,-2.6753,-2.5923,-2.5725,-2.6339,-2.5934,-2.5573,-2.5336,-2.5772,-2.5992,-2.5992,-2.6261,-2.6556,-2.6808,-2.705,-2.7527,-2.8112,-2.8146,0.0,0.0,-2.8202,-2.7826,-2.7618,-2.7219,-2.6631,-2.5978,-2.6082,-2.5874,-2.5521,-2.5507,-2.5549,-2.5611,-2.5585,-2.5625,-2.5694,-2.5704,-2.5699,-2.5683,-2.5657,-2.5609,-2.5563,-2.5501,-2.5492,-2.5498,-2.5507,-2.5496,-2.5507,-2.5507,-2.5507,-2.5507,-2.5507,-2.5507,-2.5472,-2.5393,-2.5384,-2.5346,-2.5269,-2.5203,-2.5171,-2.5171,-2.5138,-2.509,-2.509,-2.5556,-2.5983,-2.6322,-2.742,-2.8075,-2.7997,-2.8493,-2.8767,-2.8704,-2.9059,-2.9184,-2.9055,-2.9354,-2.9483,-2.944,-2.944,-2.9429,-2.9409,-2.9409,-2.9399,0.0,-1.1472,-1.1363,-1.1681,-1.1988,-1.2574,-1.3946,-1.4796,0.0,-1.6936,-1.7631,-1.8505,-2.0186,-2.0611,-2.1198,-2.2759,-2.3493,-2.3989,-2.4458,-2.4975,-2.4927,-2.3926,-2.4308,-2.3974,-2.2356,-2.3382,-2.425,-2.4498,-2.512,-2.5892,-2.668,-2.5506,-2.4999,-2.5363,-2.5181,-2.5035,-2.4902,-2.5607,-2.5956,-2.5974,-2.6208,-2.6504,-2.6758,-2.6707,-2.7062,0.0,-2.7219,0.0,0.0,-2.7205,-2.6606,-2.5893,-2.6038,-2.5665,-2.5078,-2.5152,-2.5272,-2.5395,-2.5467,-2.5495,-2.5501,-2.5501,-2.5581,-2.5707,-2.5698,-2.5698,-2.5703,-2.5683,-2.5696,-2.5653,-2.5531,-2.5501,-2.551,-2.5508,-2.5499,-2.5507,-2.5499,-2.5499,-2.5496,-2.5492,-2.5507,-2.5507,-2.5507,-2.5507,-2.5507,-2.5507,-2.5397,-2.5317,-2.5317,-2.5217,-2.5138,-2.5138,-2.5138,-2.5138,-2.5138,-2.6587,-2.7484,-2.7425,-2.7535,-2.754,-2.7412,-2.8249,-2.8628,-2.8433,-2.9166,-2.9474,-2.9344,-2.9344,-2.9296,-2.9226,-2.9226,-2.9243,-1.7296,0.0,-1.3303,-1.4125,-1.4405,-1.4884,0.0,-1.7032,-1.741,-1.8231,-1.9188,-2.0007,-2.0408,-2.1545,-2.2552,-2.2943,-2.3749,-2.4386,-2.4472,-2.4975,-2.4927,-2.3926,-2.3926,-2.3535,-2.2325,-2.2482,-2.3203,-2.4412,-2.4669,-2.5122,-2.5988,-2.5299,-2.4679,-2.4288,-2.4089,-2.4263,-2.4883,-2.5416,-2.5694,-2.5694,-2.5768,-2.6028,-2.647,-2.5916,-2.6098,-2.6855,0.0,0.0,-2.6716,-2.6189,-2.5893,-2.5705,-2.5233,-2.4941,-2.4818,-2.503,-2.5186,-2.5259,-2.5315,-2.5406,-2.5501,-2.5501,-2.5581,-2.5701,-2.5691,-2.5696,-2.5696,-2.5644,-2.5619,-2.5619,-2.5572,-2.5572,-2.559,-2.5578,-2.5576,-2.5556,-2.5508,-2.5499,-2.5502,-2.5503,-2.5507,-2.5507,-2.5507,-2.5507,-2.5507,-2.5507,-2.5472,-2.5459,-2.5459,-2.5423,-2.541,-2.541,-2.541,-2.541,-2.541,-2.6132,-2.66,-2.6575,-2.7211,-2.7586,-2.7547,-2.777,-2.7831,-2.7728,-2.7869,-2.7872,-2.7735,-2.7735,-2.7685,-2.7559,-2.7559,-2.7559,-1.9211,-1.7613,-1.6159,-1.6522,-1.6682,-1.6974,-1.7842,-1.8299,-1.8695,-1.9238,-2.0101,-2.0927,-2.1432,-2.2329,-2.3135,-2.3604,-2.4157,-2.4568,-2.482,-2.5131,-2.4927,-2.3926,-2.3806,-2.3384,-2.2294,-2.2197,-2.2793,-2.4295,-2.441,-2.4791,-2.5657,-2.5112,-2.4486,-2.3905,-2.3711,-2.3937,-2.4619,-2.5052,-2.5394,-2.5597,-2.526,-2.5303,-2.5695,-2.508,-2.5129,-2.5657,0.0,0.0,-2.5559,-2.5067,-2.493,-2.4986,-2.4698,-2.4655,-2.4738,-2.4942,-2.5065,-2.5175,-2.5274,-2.5359,-2.5406,-2.5443,-2.5499,-2.5579,-2.5667,-2.5694,-2.5696,-2.5657,-2.5625,-2.5597,-2.5607,-2.5591,-2.5603,-2.5608,-2.5573,-2.5557,-2.5551,-2.5526,-2.5501,-2.5534,-2.5553,-2.5553,-2.5553,-2.5528,-2.5505,-2.5505,-2.5505,-2.549,-2.5496,-2.5503,-2.549,-2.5492,-2.5507,-2.5507,-2.5507,-2.5774,-2.5936,-2.5936,-2.6378,-2.6642,-2.6642,-2.6987,-2.7338,-2.7625,-2.7535,-2.7452,-2.738,-2.738,-2.7328,-2.7218,-2.7218,-2.7213,-2.0031,-1.9587,-1.9187,-1.86,-1.8576,-1.87,-1.8669,-1.9127,-1.9704,-2.0183,-2.0743,-2.1487,-2.2506,-2.2878,-2.3346,-2.4328,-2.4556,-2.4795,-2.5252,-2.524,-2.4843,-2.3914,-2.3734,-2.33,-2.2294,-2.2197,-2.2744,-2.4047,-2.4134,-2.4498,-2.5232,-2.4776,-2.4244,-2.3751,-2.3489,-2.3588,-2.4045,-2.4503,-2.4952,-2.5325,-2.4675,-2.4516,-2.4778,-2.4263,-2.4198,-2.4466,0.0,0.0,-2.4277,-2.4059,-2.404,-2.4192,-2.4384,-2.4549,-2.4692,-2.4811,-2.4948,-2.5055,-2.5222,-2.5274,-2.5303,-2.5365,-2.5398,-2.5437,-2.5593,-2.5663,-2.5697,-2.5694,-2.5658,-2.5605,-2.5597,-2.5615,-2.5617,-2.5615,-2.5565,-2.5537,-2.5579,-2.5563,-2.5529,-2.5578,-2.558,-2.5583,-2.5589,-2.5534,-2.5504,-2.5515,-2.5515,-2.5517,-2.5517,-2.5522,-2.5514,-2.5513,-2.5526,-2.5503,-2.5511,-2.5507,-2.5507,-2.5507,-2.5496,-2.5507,-2.5507,-2.6145,-2.6818,-2.7439,-2.7334,-2.7268,-2.7249,-2.7249,-2.7217,-2.7127,-2.7127,-2.71,-2.2347,-2.183,-2.0937,-1.949,-1.9187,-1.9393,-2.0081,-2.0339,-2.0619,-2.1307,-2.1545,-2.1839,-2.2582,-2.2968,-2.3453,-2.4354,-2.4891,-2.5216,-2.53,-2.4927,-2.4422,-2.3878,-2.3408,-2.2891,-2.2258,-2.2197,-2.2561,-2.3374,-2.3463,-2.3566,-2.3806,-2.3847,-2.3576,-2.3005,-2.2505,-2.245,-2.2851,-2.3647,-2.41,-2.4176,-2.3822,-2.3882,-2.4279,-2.3591,-2.3513,-2.3898,0.0,-2.3291,-2.3342,-2.3631,-2.386,-2.405,-2.4201,-2.4357,-2.4559,-2.4684,-2.4742,-2.4801,-2.5037,-2.5217,-2.5308,-2.5303,-2.5348,-2.5395,-2.5363,-2.5512,-2.5704,-2.5697,-2.5688,-2.5664,-2.5605,-2.5643,-2.5679,-2.5677,-2.5681,-2.5658,-2.5609,-2.5587,-2.5563,-2.5512,-2.5517,-2.5527,-2.5526,-2.551,-2.5521,-2.5585,-2.5572,-2.5587,-2.558,-2.5587,-2.5587,-2.558,-2.558,-2.5561,-2.5492,-2.5505,-2.5505,-2.5505,-2.5506,-2.5507,-2.5507,-2.5623,-2.5735,-2.5854,-2.5837,-2.5769,-2.5643,-2.5643,-2.5595,-2.5479,-2.5479,-2.5423,-2.2816,-2.2365,-2.1718,-2.0592,-2.0463,-2.0656,-2.0976,-2.1126,-2.1233,-2.1391,-2.1771,-2.223,-2.278,-2.3285,-2.3894,-2.4693,-2.5085,-2.5312,-2.5312,-2.4855,-2.4338,-2.3866,-2.3336,-2.2775,-2.2246,-2.2197,-2.2469,-2.3148,-2.2917,-2.293,-2.3357,-2.3246,-2.287,-2.2283,-2.2084,-2.1908,-2.1742,-2.2,-2.2533,-2.3359,-2.3047,-2.3013,-2.321,-2.261,-2.2517,-2.2816,0.0,-2.282,-2.3012,-2.3352,-2.3537,-2.3656,-2.4011,-2.4173,-2.4275,-2.4578,-2.4742,-2.4832,-2.5024,-2.5143,-2.5192,-2.5288,-2.5317,-2.5348,-2.5317,-2.5398,-2.5479,-2.5488,-2.5585,-2.568,-2.5664,-2.5682,-2.5696,-2.5657,-2.5659,-2.5658,-2.5644,-2.5643,-2.5642,-2.5606,-2.56,-2.5614,-2.5607,-2.5587,-2.5556,-2.5598,-2.5601,-2.5601,-2.5601,-2.5639,-2.5644,-2.5603,-2.5601,-2.5593,-2.5552,-2.5521,-2.5505,-2.5508,-2.5492,-2.5494,-2.5492,-2.5507,-2.5507,-2.5507,-2.5507,-2.5468,-2.5406,-2.5406,-2.5388,-2.5327,-2.5327,-2.5303,-2.3148,-2.2659,-2.213,-2.1537,-2.1486,-2.1529,-2.138,-2.1486,-2.1498,-2.1265,-2.1786,-2.2439,-2.2897,-2.3709,-2.4436,-2.4957,-2.5182,-2.5264,-2.5143,-2.4675,-2.4157,-2.3685,-2.3144,-2.263,-2.2234,-2.2197,-2.2389,-2.2859,-2.2379,-2.2375,-2.3003,-2.2532,-2.2082,-2.1757,-2.1578,-2.1272,-2.0785,-2.0522,-2.1093,-2.2506,-2.2174,-2.2102,-2.2216,-2.1865,-2.1842,-2.2115,-2.2304,-2.2582,-2.2863,-2.311,-2.3218,-2.3294,-2.3811,-2.404,-2.4145,-2.4495,-2.4727,-2.4867,-2.4962,-2.5062,-2.5126,-2.5266,-2.5307,-2.5303,-2.5299,-2.5301,-2.5298,-2.5302,-2.5447,-2.5627,-2.5676,-2.5683,-2.5662,-2.5637,-2.5616,-2.5638,-2.5661,-2.5681,-2.5682,-2.5683,-2.5683,-2.5682,-2.5694,-2.5655,-2.5621,-2.5629,-2.5627,-2.5627,-2.5627,-2.5665,-2.5686,-2.5639,-2.5614,-2.5607,-2.5587,-2.5529,-2.5493,-2.5496,-2.5508,-2.5492,-2.5492,-2.5507,-2.5507,-2.5507,-2.5507,-2.5507,-2.5507,-2.5507,-2.5507,-2.5507,-2.5507,-2.5507,-2.4192,-2.3386,-2.2451,-2.197,-2.1557,-2.1221,-2.1221,-2.1221,-2.1221,-2.119,-2.1604,-2.2143,-2.2863,-2.4107,-2.4981,-2.4849,-2.5087,-2.5131,-2.465,-2.4145,-2.3661,-2.3132,-2.257,-2.2234,-2.2197,-2.2197,-2.2216,-2.2247,-2.1753,-2.1695,-2.2239,-2.1366,-2.1093,-2.1611,-2.0608,-2.0096,-2.0161,-1.989,-2.0295,-2.1332,-2.1053,-2.1215,-2.1745,-2.1711,-2.1947,-2.2377,-2.2391,-2.2528,-2.2725,-2.2863,-2.2987,-2.3153,-2.3577,-2.3989,-2.4385,-2.4412,-2.4557,-2.4723,-2.4738,-2.4895,-2.5115,-2.526,-2.5288,-2.5308,-2.5293,-2.5298,-2.5298,-2.5298,-2.531,-2.5392,-2.5648,-2.5652,-2.5611,-2.5683,-2.5681,-2.568,-2.5618,-2.56,-2.5603,-2.5609,-2.5601,-2.5624,-2.5698,-2.5696,-2.5696,-2.5684,-2.5683,-2.5683,-2.5683,-2.5703,-2.5701,-2.5687,-2.5685,-2.5644,-2.5518,-2.5504,-2.5493,-2.5496,-2.5496,-2.5496,-2.5507,-2.5507,-2.5507,-2.5507,-2.5507,-2.5507,-2.5507,-2.5507,-2.5507,-2.5507,-2.5507,-2.5507,-2.4509,-2.3829,-2.3195,-2.25,-2.197,-2.1557,-2.1285,-2.119,-2.1282,-2.1571,-2.2042,-2.2684,-2.3583,-2.4132,-2.4389,-2.4308,-2.4337,-2.429,-2.4073,-2.3604,-2.324,-2.3035,-2.2522,-2.2197,-2.2197,-2.2197,-2.2197,-2.2197,-2.1392,-2.1003,-2.1183,-2.0575,-2.0114,-1.9927,-1.9861,-1.9708,-1.9411,-1.9322,-1.97,-2.0591,-2.0721,-2.1039,-2.1449,-2.1449,-2.1708,-2.2144,-2.2144,-2.2371,-2.2712,-2.2838,-2.2889,-2.2905,-2.3387,-2.3798,-2.4163,-2.4349,-2.4464,-2.459,-2.4668,-2.4764,-2.49,-2.51,-2.5239,-2.5302,-2.5307,-2.5308,-2.5293,-2.5293,-2.5306,-2.5331,-2.5426,-2.5495,-2.5547,-2.5563,-2.5616,-2.5629,-2.561,-2.5637,-2.5661,-2.5664,-2.5664,-2.5664,-2.57,-2.5697,-2.5696,-2.57,-2.5699,-2.57,-2.5703,-2.5703,-2.5703,-2.5701,-2.5701,-2.5675,-2.5639,-2.5616,-2.5617,-2.5568,-2.5528,-2.5501,-2.5492,-2.5507,-2.5507,-2.5507,-2.5507,-2.5507,-2.5507,-2.5507,-2.5507,-2.5507,-2.5507,-2.5507,-2.4808,-2.4292,-2.3829,-2.304,-2.2494,-2.2002,-2.1526,-2.1412,-2.1502,-2.1825,-2.2203,-2.2696,-2.3557,-2.37,-2.3709,-2.3733,-2.3732,-2.3667,-2.3577,-2.324,-2.2951,-2.2782,-2.2414,-2.2197,-2.2197,-2.2197,-2.2197,-2.2197,-2.1043,-2.043,-2.0586,-1.9643,-1.8959,-1.8681,-1.8886,-1.8945,-1.8788,-1.8774,-1.9199,-2.005,-2.0325,-2.0745,-2.1293,-2.1293,-2.1509,-2.1897,-2.1969,-2.2243,-2.2623,-2.2777,-2.2842,-2.285,-2.3236,-2.3562,-2.3886,-2.4163,-2.4294,-2.4375,-2.4564,-2.466,-2.4719,-2.4922,-2.5114,-2.529,-2.5308,-2.5301,-2.5306,-2.5298,-2.5308,-2.5298,-2.531,-2.5376,-2.5457,-2.5498,-2.5534,-2.5578,-2.5578,-2.5603,-2.5644,-2.5648,-2.5648,-2.5637,-2.5636,-2.5641,-2.5643,-2.5643,-2.5644,-2.5644,-2.5661,-2.5661,-2.5683,-2.5702,-2.568,-2.5673,-2.5677,-2.5676,-2.5647,-2.5603,-2.5552,-2.5523,-2.549,-2.5503,-2.5507,-2.5507,-2.5507,-2.5507,-2.5507,-2.5507,-2.5507,-2.5507,-2.5507,-2.5507,-2.5216,-2.4765,-2.4321,-2.3599,-2.2992,-2.2482,-2.2002,-2.1891,-2.1883,-2.1894,-2.1894,-2.2088,-2.2593,-2.2855,-2.3058,-2.3169,-2.337,-2.3358,-2.3039,-2.2999,-2.2806,-2.2258,-2.2197,-2.2197,-2.2197,-2.2185,-2.2185,-2.2185,-2.0682,-2.0031,-2.0561,-1.8482,-1.7559,-1.817,-1.7615,-1.7619,-1.8285,-1.8305,-1.8769,-1.9708,-1.9708,-2.0258,-2.1309,-2.1309,-2.1433,-2.1724,-2.1897,-2.2144,-2.2405,-2.2605,-2.2838,-2.3107,-2.3107,-2.3259,-2.3533,-2.3886,-2.3989,-2.405,-2.4375,-2.459,-2.47,-2.47,-2.4978,-2.529,-2.5309,-2.5306,-2.5291,-2.5297,-2.5303,-2.5303,-2.5303,-2.5301,-2.5329,-2.5463,-2.5501,-2.5501,-2.5501,-2.5501,-2.5501,-2.5501,-2.5501,-2.5501,-2.5501,-2.5493,-2.5502,-2.5502,-2.5501,-2.5529,-2.5587,-2.5597,-2.5638,-2.5693,-2.5644,-2.5601,-2.5601,-2.5601,-2.5601,-2.5601,-2.5601,-2.5561,-2.5507,-2.5494,-2.5492,-2.5492,-2.5492,-2.5511,-2.5507,-2.5507,-2.5507,-2.5507,-2.5507,-2.5507,-2.5687,-2.5147,-2.4622,-2.3628,-2.2992,-2.258,-2.2492,-2.1923,-2.1491,-2.1814,-2.2214,-2.2501,-2.2684,-2.2566,-2.2455,-2.2488,-2.2445,-2.2341,-2.2249,-2.2363,-2.2366,-2.2209,-2.2197,-2.2197,-2.2197,-2.1861,-2.1644,-2.1644,-2.0141,-1.9139,-1.8908,-1.7879,-1.7206,-1.702,-1.7138,-1.7503,-1.8068,-1.8153,-1.8626,-1.9566,-1.9639,-2.0135,-2.0958,-2.0958,-2.123,-2.1693,-2.1768,-2.1913,-2.2144,-2.2388,-2.2619,-2.2842,-2.3033,-2.3152,-2.3288,-2.3806,-2.3989,-2.405,-2.4375,-2.4534,-2.4574,-2.4668,-2.4719,-2.4768,-2.4966,-2.5152,-2.5298,-2.5292,-2.5304,-2.5304,-2.5296,-2.5308,-2.5316,-2.5354,-2.5402,-2.5429,-2.5429,-2.547,-2.5501,-2.5501,-2.5501,-2.5501,-2.5501,-2.5493,-2.5502,-2.5502,-2.5501,-2.5515,-2.5531,-2.5561,-2.5605,-2.5638,-2.5643,-2.5664,-2.5679,-2.5678,-2.5678,-2.5678,-2.5667,-2.5644,-2.5563,-2.5566,-2.5557,-2.5493,-2.5493,-2.5505,-2.5507,-2.5507,-2.5507,-2.5507,-2.5507,-2.5507,-2.6027,-2.5508,-2.4934,-2.3839,-2.319,-2.269,-2.221,-2.1762,-2.1548,-2.1825,-2.2007,-2.2109,-2.2109,-2.1933,-2.1823,-2.1876,-2.1779,-2.1757,-2.1894,-2.1968,-2.2042,-2.2185,-2.2123,-2.2039,-2.1897,-2.1596,-2.1223,-2.0791,-1.9468,-1.8446,-1.7917,-1.7128,-1.6564,-1.6231,-1.65,-1.6913,-1.7482,-1.774,-1.8243,-1.9035,-1.9328,-1.9782,-2.0376,-2.0678,-2.1006,-2.1356,-2.1603,-2.1811,-2.2027,-2.229,-2.2474,-2.2592,-2.2855,-2.2947,-2.2995,-2.3522,-2.3717,-2.3783,-2.4229,-2.4384,-2.4411,-2.4582,-2.4567,-2.4535,-2.4685,-2.4849,-2.4984,-2.499,-2.4984,-2.4985,-2.4974,-2.505,-2.5175,-2.5273,-2.5336,-2.5357,-2.5357,-2.5379,-2.5418,-2.5418,-2.5418,-2.5418,-2.5418,-2.5425,-2.5413,-2.5413,-2.5431,-2.5459,-2.5465,-2.5512,-2.5565,-2.56,-2.5647,-2.5657,-2.5653,-2.5654,-2.5654,-2.5654,-2.5683,-2.5681,-2.5635,-2.5605,-2.5589,-2.5537,-2.5537,-2.554,-2.5541,-2.5511,-2.5498,-2.5498,-2.5503,-2.5507,-2.6336,-2.5839,-2.5229,-2.4047,-2.3327,-2.2634,-2.1463,-2.1525,-2.1825,-2.1825,-2.1491,-2.119,-2.119,-2.119,-2.1253,-2.1368,-2.1388,-2.1494,-2.18,-2.1761,-2.1824,-2.2135,-2.1951,-2.1706,-2.1392,-2.1308,-2.0827,-1.9808,-1.8734,-1.7905,-1.7376,-1.6367,-1.5792,-1.5792,-1.5792,-1.6113,-1.6744,-1.7287,-1.7821,-1.8369,-1.8908,-1.9346,-1.9672,-2.041,-2.0778,-2.0876,-2.1433,-2.1766,-2.1984,-2.2234,-2.2363,-2.2419,-2.2592,-2.2685,-2.2747,-2.3141,-2.33,-2.3392,-2.3961,-2.4182,-2.422,-2.4411,-2.4482,-2.4498,-2.4498,-2.45,-2.4493,-2.4502,-2.4499,-2.4506,-2.4494,-2.4685,-2.4929,-2.5168,-2.5264,-2.5293,-2.5303,-2.5308,-2.5308,-2.5308,-2.5308,-2.5308,-2.5308,-2.5308,-2.5308,-2.5308,-2.5344,-2.5387,-2.5383,-2.5447,-2.5502,-2.5574,-2.5598,-2.5585,-2.5598,-2.56,-2.5601,-2.5601,-2.5651,-2.5684,-2.5684,-2.5635,-2.5611,-2.5607,-2.5607,-2.5605,-2.5601,-2.5537,-2.551,-2.551,-2.5505,-2.5507,-2.6666,-2.6042,-2.5131,-2.3623,-2.2421,-2.1526,-2.1253,-2.1282,-2.1362,-2.1362,-2.127,-2.119,-2.119,-2.119,-2.1221,-2.1253,-2.1336,-2.142,-2.1494,-2.1624,-2.173,-2.1792,-2.1476,-2.1241,-2.1164,-2.0536,-1.9865,-1.9215,-1.8181,-1.7327,-1.6799,-1.6163,-1.5792,-1.5792,-1.5792,-1.6229,-1.7149,-1.7761,-1.8283,0.0,-1.9421,-1.9551,-1.925,-1.9997,-2.0647,-2.1198,-2.1324,-2.1526,-2.1768,-2.1844,-2.2063,-2.2391,-2.2446,-2.2569,-2.2734,-2.3026,-2.32,-2.3357,-2.3756,-2.3989,-2.4135,-2.4229,-2.4367,-2.4503,-2.4507,-2.4495,-2.4503,-2.4499,-2.4497,-2.4503,-2.4501,-2.4539,-2.4602,-2.4651,-2.4915,-2.5171,-2.5288,-2.5308,-2.5308,-2.5308,-2.5308,-2.5308,-2.5308,-2.5308,-2.5308,-2.5308,-2.5308,-2.5322,-2.5327,-2.5387,-2.5422,-2.5431,-2.5483,-2.554,-2.5607,-2.5595,-2.5601,-2.5601,-2.5609,-2.5614,-2.5614,-2.5662,-2.5676,-2.568,-2.568,-2.565,-2.5601,-2.5591,-2.5587,-2.5587,-2.5576,-2.5549,-2.6953,-2.6297,-2.5342,-2.38,-2.2604,-2.1671,-2.1368,-2.1253,-2.119,-2.119,-2.119,-2.119,-2.119,-2.119,-2.119,-2.119,-2.1253,-2.1336,-2.1388,-2.1411,-2.1436,-2.1346,-2.1124,-2.0849,-2.041,-2.0033,-1.9348,-1.8313,-1.7724,-1.7051,-1.6271,-1.5936,-1.5912,-1.6164,-1.6164,-1.6553,-1.7344,-1.7651,-1.7952,-1.8191,-1.8761,-1.9137,-1.931,-1.9912,-2.0497,-2.1071,-2.123,-2.1371,-2.151,-2.1649,-2.1827,-2.2092,-2.2307,-2.246,-2.2592,-2.2892,-2.3049,-2.3158,-2.354,-2.3685,-2.3769,-2.4009,-2.4273,-2.4497,-2.4505,-2.4503,-2.45,-2.45,-2.45,-2.4498,-2.4508,-2.4505,-2.449,-2.4493,-2.4769,-2.5056,-2.5097,-2.5109,-2.5126,-2.5187,-2.5198,-2.5214,-2.5298,-2.5308,-2.5308,-2.5308,-2.5308,-2.5308,-2.5308,-2.5322,-2.536,-2.5397,-2.5426,-2.546,-2.5509,-2.5499,-2.5505,-2.5505,-2.5521,-2.5559,-2.5559,-2.5657,-2.5701,-2.5703,-2.5701,-2.5677,-2.565,-2.5655,-2.5648,-2.5651,-2.5613,-2.5589,-2.7199,-2.6416,-2.5425,-2.4253,-2.3165,-2.2249,-2.1702,-2.1368,-2.119,-2.119,-2.119,-2.119,-2.119,-2.119,-2.119,-2.119,-2.119,-2.1219,-2.1209,-2.1115,-2.0973,-2.0726,-2.0646,-2.0317,-1.9582,-1.957,-1.9008,-1.7483,-1.7387,-1.6931,-1.5852,-1.5876,-1.6128,-1.6595,-1.6691,-1.6943,-1.7412,-1.7492,-1.7501,-1.7409,-1.7894,-1.8588,-1.942,-1.9909,-2.0361,-2.0827,-2.1151,-2.1293,-2.1309,-2.1526,-2.1664,-2.1739,-2.212,-2.2335,-2.2432,-2.2712,-2.2855,-2.2952,-2.3277,-2.3352,-2.3364,-2.3753,-2.4103,-2.4378,-2.4466,-2.4497,-2.4502,-2.4502,-2.4501,-2.45,-2.45,-2.45,-2.4497,-2.4508,-2.4712,-2.4903,-2.4895,-2.4902,-2.4923,-2.5037,-2.508,-2.5115,-2.5243,-2.5264,-2.5269,-2.5303,-2.5308,-2.5308,-2.5308,-2.5308,-2.5317,-2.5384,-2.5394,-2.5403,-2.5402,-2.5406,-2.541,-2.541,-2.5453,-2.5476,-2.5476,-2.5602,-2.5665,-2.5671,-2.5699,-2.5703,-2.5702,-2.57,-2.5696,-2.5698,-2.5638,-2.5621,-2.7276,-2.5984,-2.4811,-2.4641,-2.3479,-2.2372,-2.2279,-2.1702,-2.119,-2.119,-2.119,-2.119,-2.119,-2.119,-2.119,-2.119,-2.119,-2.104,-2.0603,-2.0504,-2.0362,-1.9897,-1.9564,-1.9285,-1.9186,-1.903,-1.8467,-1.7324,-1.7326,-1.6931,-1.5852,-1.6247,-1.6535,-1.6607,-1.7039,-1.7315,-1.7387,-1.7855,-1.7859,-1.7409,-1.8004,-1.8553,-1.9074,-1.9545,-2.0152,-2.0827,-2.1151,-2.1293,-2.1293,-2.134,-2.148,-2.1709,-2.1769,-2.2034,-2.2422,-2.2446,-2.2646,-2.2919,-2.2965,-2.3126,-2.3319,-2.3375,-2.3573,-2.3886,-2.4364,-2.4509,-2.4506,-2.4506,-2.4496,-2.45,-2.45,-2.45,-2.4508,-2.4507,-2.4532,-2.4631,-2.4847,-2.4902,-2.4908,-2.4929,-2.4935,-2.4981,-2.509,-2.5132,-2.5165,-2.5274,-2.5308,-2.5308,-2.5308,-2.5308,-2.5308,-2.5313,-2.538,-2.5398,-2.5403,-2.5397,-2.541,-2.541,-2.5404,-2.5412,-2.5412,-2.5485,-2.5528,-2.5531,-2.5637,-2.57,-2.57,-2.5702,-2.5702,-2.5702,-2.5683,-2.5683,-2.7323,-2.6361,-2.5577,-2.5007,-2.4021,-2.3088,-2.2768,-2.197,-2.1305,-2.1305,-2.1022,-2.0856,-2.1144,-2.119,-2.1098,-2.0791,-2.0745,-2.0468,-1.9568,-1.944,-1.9261,-1.8791,-1.8649,-1.8629,-1.87,-1.8468,-1.7962,-1.7208,-1.6998,-1.6675,-1.6231,-1.6444,-1.6871,-1.7471,-1.7423,-1.7531,-1.7857,-1.7495,-1.73,-1.7282,-1.7589,-1.8133,-1.8908,-1.9365,-1.9909,-2.0479,-2.0844,-2.1135,-2.1293,-2.1293,-2.1372,-2.148,-2.1649,-2.1829,-2.2034,-2.2307,-2.2501,-2.2646,-2.2842,-2.2932,-2.2977,-2.3128,-2.3165,-2.3244,-2.3779,-2.3935,-2.4026,-2.4399,-2.4505,-2.4496,-2.4496,-2.4494,-2.45,-2.45,-2.45,-2.4524,-2.4653,-2.4684,-2.4696,-2.4779,-2.4847,-2.4922,-2.4987,-2.5,-2.5019,-2.5068,-2.508,-2.5103,-2.5176,-2.5182,-2.5222,-2.5279,-2.5341,-2.5351,-2.5351,-2.5337,-2.5346,-2.5346,-2.5384,-2.5393,-2.5393,-2.5453,-2.5494,-2.5494,-2.5563,-2.5584,-2.5597,-2.564,-2.5619,-2.5597,-2.5672,-2.568,-2.7434,-2.6823,-2.639,-2.5467,-2.4509,-2.3682,-2.325,-2.217,-2.1265,-2.1233,-2.0715,-2.0362,-2.0753,-2.0822,-2.0695,-2.0297,-2.0228,-1.9822,-1.8684,-1.8528,-1.8294,-1.7651,-1.7662,-1.7759,-1.786,-1.7705,-1.7394,-1.6877,-1.6746,-1.6651,-1.65,-1.668,-1.7159,-1.7977,-1.7616,-1.7544,-1.7796,-1.6859,-1.6626,-1.7031,-1.7201,-1.776,-1.8655,-1.9128,-1.9639,-2.0102,-2.0579,-2.0942,-2.1183,-2.1262,-2.1293,-2.1309,-2.151,-2.1649,-2.1771,-2.2092,-2.2324,-2.2497,-2.2703,-2.2738,-2.2738,-2.2927,-2.2905,-2.2833,-2.32,-2.3381,-2.3605,-2.412,-2.4245,-2.43,-2.4466,-2.4496,-2.4496,-2.4494,-2.4503,-2.4493,-2.4491,-2.45,-2.4534,-2.4621,-2.4727,-2.4804,-2.484,-2.4847,-2.4861,-2.4895,-2.4902,-2.4942,-2.505,-2.5072,-2.5143,-2.5243,-2.5274,-2.5308,-2.5308,-2.5308,-2.5308,-2.5308,-2.5351,-2.5365,-2.5365,-2.5427,-2.5456,-2.5456,-2.5457,-2.5462,-2.5499,-2.555,-2.555,-2.5499,-2.5602,-2.5638,-2.7665,-2.7185,-2.6718,-2.6015,-2.4823,-2.38,-2.3771,-2.23,-2.0892,-2.0764,-2.0296,-1.99,-1.9787,-1.9769,-1.9757,-1.9734,-1.9734,-1.9333,-1.8181,-1.8057,-1.7629,-1.6519,-1.64,-1.6389,-1.6397,-1.668,-1.6629,-1.6105,-1.6788,-1.7043,-1.6537,-1.7058,-1.7375,-1.7423,-1.7399,-1.7159,-1.6691,-1.6126,-1.6081,-1.6531,-1.7055,-1.7585,-1.8165,-1.876,-1.9284,-1.9764,-2.0478,-2.0811,-2.0844,-2.1167,-2.1293,-2.1293,-2.1325,-2.1512,-2.179,-2.1756,-2.2132,-2.2664,-2.2483,-2.2555,-2.2699,-2.2712,-2.2834,-2.2949,-2.2784,-2.3112,-2.3518,-2.3546,-2.3548,-2.3697,-2.4325,-2.4502,-2.4509,-2.4495,-2.4506,-2.4506,-2.4511,-2.45,-2.45,-2.4508,-2.4525,-2.4557,-2.4692,-2.4715,-2.4749,-2.4881,-2.4902,-2.4908,-2.4915,-2.5012,-2.5096,-2.5121,-2.5208,-2.5308,-2.5308,-2.5308,-2.5308,-2.5308,-2.5308,-2.5308,-2.5308,-2.5313,-2.5317,-2.5317,-2.5303,-2.5378,-2.5504,-2.5507,-2.5507,-2.5504,-2.551,-2.5542,-2.7883,-2.6855,-2.5894,-2.5387,-2.4024,-2.2852,-2.2852,-2.1613,-2.0488,-2.0441,-1.9953,-1.9459,-1.9339,-1.9529,-1.9456,-1.8724,-1.8621,-1.8083,-1.6545,-1.6338,-1.619,-1.5768,-1.5806,-1.6017,-1.6446,-1.6418,-1.626,-1.6076,-1.5886,-1.5968,-1.6413,-1.6449,-1.6716,-1.7375,-1.7063,-1.6631,-1.6102,-1.5888,-1.6035,-1.6522,-1.6997,-1.7551,-1.8125,-1.8649,-1.9026,-1.9362,-2.0102,-2.0562,-2.0827,-2.1167,-2.1293,-2.1293,-2.1293,-2.1372,-2.1497,-2.1649,-2.1749,-2.1861,-2.226,-2.2398,-2.2399,-2.2628,-2.2755,-2.279,-2.2721,-2.2838,-2.3051,-2.3394,-2.3259,-2.3046,-2.3276,-2.3603,-2.3902,-2.4129,-2.4236,-2.4303,-2.4312,-2.4411,-2.45,-2.45,-2.45,-2.4517,-2.4557,-2.4574,-2.459,-2.4637,-2.4645,-2.4665,-2.4764,-2.4804,-2.4874,-2.4955,-2.5,-2.508,-2.5165,-2.5171,-2.5217,-2.5284,-2.5308,-2.5308,-2.5308,-2.5308,-2.5308,-2.5308,-2.5308,-2.5322,-2.5374,-2.541,-2.5406,-2.5374,-2.546,-2.5492,-2.816,-2.6953,-2.5734,-2.5066,-2.3879,-2.2764,-2.239,-2.132,-2.0342,-2.0099,-1.9582,-1.9089,-1.895,-1.8988,-1.8747,-1.7873,-1.7561,-1.6953,-1.5595,-1.541,-1.5323,-1.5128,-1.5196,-1.54,-1.5855,-1.5807,-1.5739,-1.5739,-1.5382,0.0,-1.6363,-1.6072,-1.6208,-1.6835,-1.6523,-1.6175,-1.5792,-1.5792,-1.5969,-1.6262,-1.6744,-1.7263,-1.7847,-1.8311,-1.8741,-1.9097,-1.9696,-2.0206,-2.0646,-2.1119,-2.1293,-2.1293,-2.1293,-2.1293,-2.1309,-2.1495,-2.1521,-2.1529,-2.2001,-2.2141,-2.2175,-2.246,-2.2609,-2.2697,-2.2695,-2.269,-2.2772,-2.3135,-2.2972,-2.2699,-2.2699,-2.3027,-2.344,-2.3759,-2.3949,-2.4078,-2.4182,-2.4367,-2.45,-2.45,-2.45,-2.45,-2.45,-2.45,-2.45,-2.45,-2.45,-2.4524,-2.4613,-2.4668,-2.4727,-2.4818,-2.4874,-2.4942,-2.5037,-2.5024,-2.5097,-2.5208,-2.5238,-2.5253,-2.5303,-2.5308,-2.5308,-2.5308,-2.5308,-2.5308,-2.5308,-2.5335,-2.5335,-2.5308,-2.5398,-2.5403,0.0,0.0,0.0,-2.5198,-2.4421,-2.3654,-2.2565,-2.1412,-2.0414,-1.9741,-1.9182,-1.8798,-1.864,-1.8116,-1.76,-1.7257,-1.6698,-1.6083,-1.5468,-1.5391,-1.5157,-1.4565,-1.4515,-1.4506,-1.4506,-1.4803,-1.5,-1.5009,-1.5415,-1.5873,-1.6337,-1.605,-1.5846,-1.5804,-1.5792,-1.5792,-1.5792,-1.5792,-1.5792,-1.5814,-1.6284,-1.6774,-1.7312,-1.7794,-1.8372,-1.9031,-1.9347,-1.9767,-2.026,-2.099,-2.1293,-2.1293,-2.1293,-2.1293,-2.1293,-2.1293,-2.1512,-2.179,-2.1709,-2.1825,-2.201,-2.2144,-2.2425,-2.2706,-2.2697,-2.2695,-2.269,-2.2708,-2.2708,-2.2699,-2.2712,-2.2891,-2.3158,-2.3419,-2.3649,-2.3868,-2.4116,-2.4339,-2.4491,-2.4491,-2.4491,-2.4491,-2.4491,-2.4491,-2.4491,-2.4491,-2.4491,-2.4491,-2.4491,-2.4596,-2.4692,-2.4692,-2.4816,-2.4895,-2.4895,-2.4895,-2.4942,-2.5097,-2.5084,-2.5154,-2.5274,-2.5279,-2.5284,-2.5284,-2.5303,-2.5308,-2.5308,-2.5308,-2.5308,-2.5308,-2.5308,-2.5308,-2.8332,0.0,0.0,0.0,0.0,0.0,-2.2301,-2.1374,-2.0438,-1.9854,-1.9638,-1.9344,-1.8839,-1.8263,-1.7776,-1.7573,-1.6567,-1.5584,-1.4971,-1.4813,-1.4684,-1.4515,-1.4586,-1.4695,-1.4862,-1.495,-1.5039,0.0,-1.5001,-1.4987,-1.5163,-1.5266,-1.5463,-1.5804,-1.5792,-1.5792,-1.5792,-1.5792,-1.5792,-1.5814,-1.6284,-1.6774,-1.7312,-1.7794,-1.8372,-1.9031,-1.9347,-1.9767,-2.0243,-2.0729,-2.1071,-2.1293,-2.1293,-2.1293,-2.1293,-2.1293,-2.1356,-2.1433,-2.1409,-2.145,-2.1554,-2.1931,-2.2344,-2.2695,-2.2702,-2.2688,-2.2694,-2.2702,-2.2701,-2.2695,-2.2703,-2.2758,-2.287,-2.3087,-2.3375,-2.3599,-2.3674,-2.3929,-2.4163,-2.4266,-2.421,-2.4134,-2.4134,-2.4134,-2.4134,-2.4134,-2.4134,-2.4134,-2.4134,-2.4257,-2.4347,-2.4347,-2.4495,-2.4653,-2.4742,-2.4757,-2.4804,-2.4955,-2.4961,-2.4962,-2.5013,-2.5109,-2.5154,-2.5154,-2.5248,-2.5308,-2.5308,-2.5308,-2.5308,-2.5308,-2.5308,-2.5308,-2.8579,-2.7068,-2.5531,-2.4855,0.0,0.0,-2.2389,-2.1767,-2.1015,-2.0016,-1.9798,-1.9604,-1.8999,-1.8398,-1.7968,-1.7886,-1.6905,-1.595,-1.5294,-1.4931,-1.4714,-1.4714,-1.4793,-1.4843,-1.4872,-1.5,-1.5088,-1.5117,-1.4859,-1.4621,-1.4501,-1.4885,-1.5221,-1.5491,-1.5703,-1.5792,-1.5792,-1.5792,-1.5792,-1.5792,-1.6066,-1.6466,-1.6972,-1.7441,-1.8022,-1.8649,-1.9049,-1.9515,-2.0015,-2.0239,-2.0646,-2.1087,-2.1087,-2.1087,-2.1103,-2.1246,-2.1293,-2.1309,-2.1304,-2.1286,-2.1363,-2.1619,-2.1893,-2.2185,-2.2575,-2.2702,-2.2706,-2.2694,-2.2702,-2.2709,-2.2693,-2.2703,-2.2751,-2.2952,-2.3164,-2.3359,-2.3477,-2.3613,-2.3782,-2.4057,-2.4008,-2.3917,-2.3917,-2.3876,-2.3827,-2.3827,-2.3886,-2.3917,-2.3917,-2.4027,-2.4115,-2.4115,-2.4219,-2.4348,-2.4478,-2.4495,-2.4575,-2.4797,-2.483,-2.484,-2.4902,-2.4987,-2.5031,-2.5031,-2.5097,-2.5132,-2.5132,-2.5243,-2.5308,-2.5308,-2.5308,-2.5308,-2.9016,-2.7927,-2.6733,-2.5222,-2.4772,0.0,-2.2877,-2.2478,-2.1955,-2.0421,-2.0042,-1.9824,-1.9212,-1.867,-1.8282,-1.8201,-1.7556,-1.6747,-1.6017,-1.5449,-1.5088,-1.5,-1.5,-1.4941,-1.4775,-1.5,-1.5127,-1.5029,-1.4859,-1.4631,-1.4296,-1.4785,-1.5097,-1.5108,-1.5558,-1.5792,-1.5792,-1.5792,-1.5792,-1.5792,-1.5792,-1.6057,-1.6522,-1.6989,-1.753,-1.8125,-1.8616,-1.9143,-1.9708,-1.9654,-2.0065,-2.0745,-2.0745,-2.0761,-2.0844,-2.1183,-2.131,-2.1293,-2.1293,-2.1293,-2.1308,-2.1299,-2.1311,-2.145,-2.2283,-2.2531,-2.2529,-2.2529,-2.2531,-2.2543,-2.2533,-2.2558,-2.2655,-2.2877,-2.2962,-2.3072,-2.3341,-2.3295,-2.3313,-2.3742,-2.3764,-2.3721,-2.3721,-2.3617,-2.3562,-2.3555,-2.3678,-2.3742,-2.3764,-2.3886,-2.3976,-2.3976,-2.3986,-2.4056,-2.4163,-2.4173,-2.4321,-2.4618,-2.4634,-2.4712,-2.4847,-2.4867,-2.4881,-2.4881,-2.499,-2.5034,-2.5034,-2.517,-2.5306,-2.5383,-2.5383,-2.5446,-2.9236,-2.8076,-2.6881,-2.5973,-2.5218,0.0,-2.4297,-2.3606,-2.2809,-2.2044,-2.1558,-2.0957,-1.9965,-1.9605,-1.9331,-1.8895,-1.7902,-1.6905,-1.6161,-1.5874,-1.5536,-1.5059,-1.5,-1.5029,-1.5088,-1.5059,-1.5059,-1.5156,-1.483,-1.4688,-1.4759,-1.4931,-1.504,-1.5097,-1.5558,-1.5792,-1.5792,-1.5792,-1.5792,-1.5792,-1.5792,-1.6057,-1.6522,-1.6989,-1.753,-1.8125,-1.8616,-1.9143,-1.9672,-1.9362,-1.9642,-2.0311,-2.0311,-2.0513,-2.0826,-2.1181,-2.1311,-2.1293,-2.1293,-2.1293,-2.1293,-2.1308,-2.1302,-2.1324,-2.1513,-2.158,-2.158,-2.158,-2.1564,-2.1571,-2.158,-2.1766,-2.2062,-2.2429,-2.2436,-2.2456,-2.2708,-2.2682,-2.2595,-2.2695,-2.3,-2.3247,-2.3247,-2.3206,-2.323,-2.3342,-2.3377,-2.3453,-2.3544,-2.3675,-2.3764,-2.3764,-2.3907,-2.4016,-2.4046,-2.4046,-2.4106,-2.4293,-2.4302,-2.4374,-2.4574,-2.4684,-2.4734,-2.4734,-2.5475,-2.5873,-2.5854,-2.5271,-2.5316,-2.593,-2.593,-2.6371,-2.9607,-2.869,-2.7791,-2.6526,-2.5777,0.0,0.0,-2.4435,-2.3649,-2.2602,-2.2188,-2.17,-2.0683,-2.0169,-1.9824,-1.954,-1.8712,-1.7847,-1.7185,-1.6265,-1.5642,-1.5642,-1.5391,-1.5196,-1.5215,-1.5205,-1.5225,-1.5284,-1.4916,-1.4743,-1.4844,-1.4961,-1.5011,-1.5054,-1.553,-1.5792,-1.5792,-1.5792,-1.5792,-1.5792,-1.5792,-1.6057,-1.6522,-1.6989,-1.753,-1.8125,-1.8616,-1.903,-1.9398,-1.9195,-1.9328,-1.9678,-1.9874,-2.0172,-2.0561,-2.1098,-2.1295,-2.1293,-2.1293,-2.1293,-2.1293,-2.1293,-2.1291,-2.1303,-2.1303,-2.1299,-2.1293,-2.1293,-2.1298,-2.13,-2.1301,-2.1407,-2.1657,-2.2099,-2.2198,-2.2234,-2.2375,-2.2344,-2.23,-2.23,-2.2443,-2.2567,-2.2647,-2.2721,-2.2777,-2.2842,-2.2977,-2.3156,-2.3289,-2.3424,-2.3531,-2.3587,-2.3693,-2.3779,-2.3837,-2.3937,-2.4047,-2.4127,-2.4275,-2.4402,-2.45,-2.4949,-2.5383,-2.5794,-2.6264,-2.6493,-2.6493,-2.6089,-2.6169,-2.6703,-2.6703,-2.6975,-2.9971,-2.9265,-2.8595,-2.6961,-2.6296,-2.5957,0.0,0.0,0.0,-2.3157,-2.2796,-2.2449,-2.1486,-2.083,-2.037,-2.008,-1.9462,-1.8804,-1.8228,-1.6669,0.0,-1.6255,-1.5777,-1.5362,-1.5264,-1.5313,-1.5362,-1.541,-1.5069,-1.4845,-1.4785,-1.5102,-1.5194,-1.501,-1.5626,-1.5888,-1.5792,-1.5792,-1.5792,-1.5792,-1.5792,-1.6013,-1.6392,-1.6947,-1.7482,-1.8007,-1.8544,-1.8898,-1.9101,-1.9101,-1.9101,-1.9139,-1.9472,-1.98,-2.0187,-2.0831,-2.1181,-2.1295,-2.1295,-2.131,-2.1293,-2.1293,-2.1293,-2.1293,-2.1293,-2.1293,-2.1293,-2.1293,-2.1293,-2.1292,-2.13,-2.1298,-2.1405,-2.1834,-2.1982,-2.2037,-2.2096,-2.2051,-2.2039,-2.2039,-2.1938,-2.1924,-2.2139,-2.2301,-2.2405,-2.2415,-2.2699,-2.2957,-2.3077,-2.3217,-2.3336,-2.3459,-2.3494,-2.3544,-2.3646,-2.3803,-2.3929,-2.4041,-2.4423,-2.4588,-2.4494,-2.5522,-2.6349,-2.6888,-2.7055,-2.713,-2.713,-2.7297,-2.7409,-2.7452,-2.7452,-2.7571,-3.0229,-2.9248,-2.8325,-2.7291,-2.6691,-2.6279,-2.5992,0.0,-2.5112,-2.4712,0.0,-2.3593,-2.2608,0.0,0.0,-2.0395,-1.9568,-1.8888,-1.8348,-1.709,-1.6226,-1.6283,-1.5777,-1.5381,-1.5391,-1.5284,-1.5264,-1.5381,-1.5245,-1.5061,-1.4805,-1.5725,-1.5868,-1.5031,-1.5986,-1.6283,-1.5792,-1.5792,-1.5792,-1.5792,-1.5792,-1.5836,-1.5903,-1.6799,-1.7338,-1.7605,-1.8428,-1.8898,-1.9101,-1.9101,-1.9101,-1.9101,-1.9157,-1.9402,-1.9812,-2.017,-2.074,-2.1294,-2.1294,-2.1311,-2.1293,-2.1293,-2.1293,-2.1293,-2.1293,-2.1293,-2.1293,-2.1293,-2.1293,-2.1293,-2.1308,-2.1292,-2.1371,-2.1663,-2.1572,-2.148,-2.1708,-2.1572,-2.1402,-2.1402,-2.1402,-2.1509,-2.1955,-2.2231,-2.2446,-2.2561,-2.276,-2.2957,-2.3077,-2.3217,-2.3301,-2.3313,-2.3436,-2.3517,-2.351,-2.3533,-2.3634,-2.3828,-2.4642,-2.4919,-2.4511,-2.6404,-2.7289,-2.6907,-2.7594,-2.7966,-2.7966,-2.8746,-2.8729,-2.8006,-2.8006,-2.8493,-3.0551,-2.9419,-2.8273,-2.7604,-2.6971,-2.6555,-2.6624,-2.6157,-2.5612,-2.5221,0.0,0.0,0.0,0.0,0.0,0.0,-2.0815,-2.0029,-1.9489,-1.8546,-1.7517,-1.6443,0.0,0.0,-1.541,-1.5362,-1.5332,-1.541,-1.5362,-1.5255,-1.5156,-1.5938,-1.607,-1.5372,-1.6171,-1.6355,-1.5804,-1.5792,-1.5792,-1.5792,-1.5792,-1.5947,-1.6219,-1.6595,-1.7005,-1.7435,-1.81,-1.8486,-1.8669,-1.8969,-1.9101,-1.9101,-1.9101,-1.9362,-1.9693,-1.9612,-2.003,-2.072,-2.1146,-2.1294,-2.1295,-2.1294,-2.1311,-2.1295,-2.131,-2.1293,-2.1293,-2.1293,-2.1293,-2.1293,-2.1293,-2.1293,-2.1341,-2.1433,-2.1371,-2.1324,-2.1433,-2.1371,-2.1293,-2.1293,-2.1293,-2.1356,-2.157,-2.1812,-2.2046,-2.2226,-2.2467,-2.2699,-2.2957,-2.3028,-2.3132,-2.3289,-2.3348,-2.3424,-2.3494,-2.399,-2.4118,-2.3652,-2.6143,-2.7243,-2.6387,-2.7217,-2.792,-2.8337,-2.8672,-2.8839,-2.8858,-2.9211,-2.9211,-2.8839,-2.8839,-2.9076,-3.0441,-2.9336,-2.8285,-2.7889,-2.7336,-2.694,-2.7069,-2.6691,-2.6174,-2.5709,-2.5449,0.0,0.0,0.0,-2.32,-2.2721,0.0,-2.1099,-2.0131,-1.953,-1.8534,-1.68,-1.5892,0.0,0.0,-1.5362,-1.5439,-1.5633,-1.5613,-1.5671,-1.5882,-1.6518,-1.6618,-1.6082,-1.6569,-1.6559,-1.6008,-1.5864,-1.5792,-1.5792,-1.5792,-1.5991,-1.6328,-1.6565,-1.6921,-1.7353,-1.7987,-1.8369,-1.8514,-1.8931,-1.9101,-1.9101,-1.9101,-1.9288,-1.9497,-1.9207,-1.9445,-1.9976,-2.0512,-2.0696,-2.0732,-2.0943,-2.1135,-2.1294,-2.1295,-2.1293,-2.1293,-2.1293,-2.1293,-2.1293,-2.1293,-2.1293,-2.1293,-2.1293,-2.1293,-2.1293,-2.1293,-2.1293,-2.1293,-2.1293,-2.1293,-2.1293,-2.1293,-2.151,-2.1753,-2.1899,-2.2132,-2.2371,-2.2624,-2.2677,-2.2807,-2.3077,-2.3339,-2.3577,-2.3768,-2.4628,-2.4955,-2.4485,-2.7368,-2.8802,-2.8195,-2.8054,-2.8445,-2.9371,-2.9291,-2.9294,-2.9396,-2.9336,-2.9355,-2.9396,-2.9396,-2.9396,0.0,0.0,0.0,-2.8042,0.0,0.0,0.0,0.0,-2.6923,0.0,0.0,-2.6122,-2.5414,-2.5246,-2.4689,-2.3062,-2.2667,0.0,0.0,-1.9401,-1.8826,-1.7506,-1.6197,-1.541,0.0,-1.5284,-1.5488,-1.6226,-1.6161,-1.6389,-1.709,-1.7715,-1.7813,-1.7257,-1.733,-1.7111,-1.6583,-1.6066,-1.5792,-1.5792,-1.5792,-1.5814,-1.5859,-1.6765,-1.7214,-1.7353,-1.835,-1.8855,-1.8993,-1.9078,-1.9101,-1.9101,-1.9101,-1.9101,-1.912,-1.9087,-1.9108,-1.9138,-1.9161,-1.9172,-1.9284,-1.9997,-2.0715,-2.1294,-2.1295,-2.1293,-2.1293,-2.1293,-2.1293,-2.1293,-2.1293,-2.1293,-2.1293,-2.1293,-2.1293,-2.1293,-2.1293,-2.1293,-2.1293,-2.1293,-2.1293,-2.1293,-2.1293,-2.151,-2.1709,-2.1724,-2.1884,-2.2027,-2.2041,-2.2139,-2.2334,-2.2598,-2.3484,-2.419,-2.4445,-2.5275,-2.609,-2.6843,-2.7749,-2.8567,-2.9308,-2.8979,-2.8977,-2.9392,-2.9025,-2.9003,-2.9396,-2.9207,-2.9207,-2.9396,-2.9396,-2.9396,0.0,0.0,-2.7961,-2.8255,0.0,0.0,0.0,0.0,0.0,0.0,0.0,0.0,-2.6104,-2.5619,-2.5115,-2.455,-2.4049,-2.3238,0.0,-2.0393,-1.9113,-1.8217,-1.695,-1.595,-1.5439,0.0,-1.6036,-1.6273,-1.6624,-1.6933,-1.7202,-1.7754,-1.7863,-1.7332,-1.771,-1.7495,-1.6607,-1.6427,-1.6163,-1.5792,-1.5792,-1.5792,-1.5814,-1.6457,-1.6744,-1.6837,-1.7867,-1.833,-1.8378,-1.8893,-1.9078,-1.9036,-1.9082,-1.9101,-1.9101,-1.9101,-1.9114,-1.917,-1.9666,-1.9512,-1.9226,-1.9958,-2.0501,-2.0883,-2.1215,-2.1293,-2.1293,-2.1293,-2.1293,-2.1293,-2.1293,-2.1293,-2.1293,-2.1293,-2.1293,-2.1293,-2.1293,-2.1293,-2.1293,-2.1293,-2.1293,-2.1293,-2.1293,-2.1388,-2.1511,-2.1663,-2.1753,-2.1899,-2.2217,-2.2725,-2.3226,-2.368,-2.4274,-2.4832,-2.5326,-2.5628,-2.6378,-2.7705,-2.8054,-2.8327,-2.8589,-2.8488,-2.8625,-2.9126,-2.8899,-2.8934,-2.9207,-2.9123,-2.9123,-2.9207,-2.9344,-2.9396,-2.9206,-2.8534,0.0,-2.8313,-2.8081,0.0,-2.8228,0.0,-2.7519,0.0,0.0,0.0,0.0,-2.6177,-2.5878,-2.5451,-2.5028,-2.4292,0.0,-2.1431,-2.0029,-1.8967,-1.7468,-1.6397,-1.614,-1.6226,-1.6472,-1.6922,-1.7313,-1.7617,0.0,0.0,-1.825,-1.7923,-1.811,-1.7881,-1.7171,-1.6787,-1.6427,-1.609,-1.5876,-1.5792,-1.5814,-1.6457,-1.6765,-1.6837,-1.7874,-1.8324,-1.8378,-1.887,-1.904,-1.9036,-1.9082,-1.9101,-1.9101,-1.9101,-1.9099,-1.9167,-1.963,-1.9485,-1.9203,-1.9808,-2.0213,-2.0536,-2.099,-2.1198,-2.1293,-2.1293,-2.1293,-2.1293,-2.1293,-2.1293,-2.1293,-2.1293,-2.1293,-2.1293,-2.1293,-2.1293,-2.1293,-2.1293,-2.1293,-2.1293,-2.1293,-2.152,-2.1664,-2.1575,-2.1786,-2.2058,-2.236,-2.3024,-2.3705,-2.4215,-2.4838,-2.5608,-2.6556,-2.665,-2.7099,-2.8128,-2.821,-2.8205,-2.8205,-2.8196,-2.836,-2.8705,-2.873,-2.8822,-2.8998,-2.8998,-2.9033,-2.9089,-2.9323,-2.9396]},{"header":{"parameterUnit":"m.s-1","parameterCategory":1,"la1":30.6,"la2":29.2853,"lo1":-89.7004,"lo2":-87.6739,"dy":0.0162,"dx":0.0183,"nx":112,"ny":82,"refTime":"2023-08-10T12:00:00:Z","depth":0,"parameterNumber":3,"parameterNumberName":"V-component_of_WINDS"},"data":[0.0,0.0,0.0,0.0,0.0,0.0,0.0,0.0,0.0,0.0,0.0,0.0,0.0,0.0,0.0,0.0,0.0,0.0,0.0,0.0,0.0,0.0,0.0,0.0,0.0,0.0,0.0,0.0,0.0,0.0,0.0,0.0,0.0,0.0,0.0,0.0,0.0,0.0,0.0,0.0,0.0,0.0,0.0,0.0,0.0,0.0,0.0,0.0,0.0,0.0,0.0,0.0,0.0,0.0,0.0,0.0,0.0,0.0,0.0,0.0,0.0,0.0,0.0,0.0,0.0,0.0,0.0,0.0,0.0,0.0,0.0,0.0,0.0,0.0,0.0,0.0,0.0,0.0,0.0,0.0,0.0,0.0,0.0,0.0,0.0,0.0,0.0,0.0,0.0,0.0,-0.7095,-0.7095,-0.7095,-0.7095,-0.7095,-0.7095,-0.7095,-0.7143,0.0,0.0,0.0,0.0,0.0,0.0,0.0,0.0,0.0,0.0,0.0,0.0,0.0,0.0,0.0,0.0,0.0,0.0,0.0,0.0,0.0,0.0,0.0,0.0,0.0,0.0,0.0,0.0,0.0,0.0,0.0,0.0,0.0,0.0,0.0,0.0,0.0,0.0,0.0,0.0,0.0,0.0,0.0,0.0,0.0,0.0,0.0,0.0,0.0,0.0,0.0,0.0,0.0,0.0,0.0,0.0,0.0,0.0,0.0,0.0,0.0,0.0,0.0,0.0,0.0,0.0,0.0,0.0,0.0,0.0,0.0,0.0,0.0,0.0,0.0,0.0,0.0,0.0,0.0,0.0,0.0,0.0,0.0,0.0,0.0,0.0,0.0,0.0,0.0,0.0,0.0,0.0,0.0,0.0,0.0,0.0,0.0,0.0,0.0,0.0,0.0,0.0,0.0,0.0,-0.7095,-0.7095,-0.7095,-0.7095,-0.7095,-0.7095,-0.7187,-0.7415,0.0,0.0,0.0,0.0,0.0,0.0,0.0,0.0,0.0,0.0,0.0,0.0,0.0,0.0,0.0,0.0,0.0,0.0,0.0,0.0,0.0,0.0,0.0,0.0,0.0,0.0,0.0,0.0,0.0,0.0,0.0,0.0,0.0,0.0,0.0,0.0,0.0,0.0,0.0,0.0,0.0,0.0,0.0,0.0,0.0,0.0,0.0,0.0,0.0,0.0,0.0,0.0,0.0,0.0,0.0,0.0,0.0,0.0,0.0,0.0,0.0,0.0,0.0,0.0,0.0,0.0,0.0,0.0,0.0,0.0,0.0,0.0,0.0,0.0,0.0,0.0,0.0,0.0,0.0,0.0,0.0,0.0,0.0,0.0,0.0,0.0,0.0,0.0,0.0,0.0,0.0,0.0,0.0,0.0,0.0,0.0,0.0,0.0,0.0,0.0,0.0,0.0,0.0,-0.7095,-0.7095,-0.7095,-0.7095,-0.7095,-0.7095,-0.7577,-0.7973,-0.8245,-1.0106,0.0,0.0,0.0,0.0,0.0,0.0,0.0,0.0,0.0,0.0,0.0,0.0,0.0,0.0,0.0,0.0,0.0,0.0,0.0,0.0,0.0,0.0,0.0,0.0,0.0,0.0,0.0,0.0,0.0,0.0,0.0,0.0,0.0,0.0,0.0,0.0,0.0,0.0,0.0,0.0,0.0,0.0,0.0,0.0,0.0,0.0,0.0,0.0,0.0,0.0,0.0,0.0,0.0,0.0,0.0,0.0,0.0,0.0,0.0,0.0,0.0,0.0,0.0,0.0,0.0,0.0,0.0,0.0,0.0,0.0,0.0,0.0,0.0,0.0,0.0,0.0,0.0,0.0,0.0,0.0,0.0,0.0,0.0,0.0,0.0,0.0,0.0,0.0,0.0,0.0,0.0,0.0,0.0,0.0,0.0,0.0,0.0,0.0,0.0,0.0,0.0,0.0,-0.7095,-0.7095,-0.7095,-0.7095,-0.7183,-0.7404,-0.8105,-0.8715,-0.9283,-1.1015,0.0,0.0,0.0,0.0,0.0,0.0,0.0,0.0,0.0,0.0,0.0,0.0,0.0,0.0,0.0,0.0,0.0,0.0,0.0,0.0,0.0,0.0,0.0,0.0,0.0,0.0,0.0,0.0,0.0,0.0,0.0,0.0,0.0,0.0,0.0,0.0,0.0,0.0,0.0,0.0,0.0,0.0,0.0,0.0,0.0,0.0,0.0,0.0,0.0,0.0,0.0,0.0,0.0,0.0,0.0,0.0,0.0,0.0,0.0,0.0,0.0,0.0,0.0,0.0,0.0,0.0,0.0,0.0,0.0,0.0,0.0,0.0,0.0,0.0,0.0,0.0,0.0,0.0,0.0,0.0,0.0,0.0,0.0,0.0,0.0,0.0,0.0,0.0,0.0,0.0,0.0,0.0,0.0,0.0,0.0,0.0,0.0,0.0,0.0,0.0,0.0,0.0,-0.7095,-0.7095,-0.7095,-0.7095,-0.7445,-0.8324,-0.8456,-0.9065,-1.0419,-1.1456,0.0,0.0,0.0,0.0,0.0,0.0,0.0,0.0,0.0,0.0,0.0,0.0,0.0,0.0,0.0,0.0,0.0,0.0,0.0,0.0,0.0,0.0,0.0,0.0,0.0,0.0,0.0,0.0,0.0,0.0,0.0,0.0,0.0,0.0,0.0,0.0,0.0,0.0,0.0,0.0,0.0,0.0,0.0,0.0,0.0,0.0,0.0,0.0,0.0,0.0,0.0,0.0,0.0,0.0,0.0,0.0,0.0,0.0,0.0,0.0,0.0,0.0,0.0,0.0,0.0,0.0,0.0,0.0,0.0,0.0,0.0,0.0,0.0,0.0,0.0,0.0,0.0,0.0,0.0,0.0,0.0,0.0,0.0,0.0,0.0,0.0,0.0,0.0,0.0,0.0,0.0,0.0,0.0,0.0,0.0,0.0,0.0,0.0,0.0,0.0,0.0,0.0,-0.7095,-0.7095,-0.7095,-0.7095,-0.7492,-0.8412,-0.9017,-0.9971,-1.1365,0.0,0.0,0.0,0.0,0.0,0.0,0.0,0.0,0.0,0.0,0.0,0.0,0.0,0.0,0.0,0.0,0.0,0.0,0.0,0.0,0.0,0.0,0.0,0.0,0.0,0.0,0.0,0.0,0.0,0.0,0.0,0.0,0.0,0.0,0.0,0.0,0.0,0.0,0.0,0.0,0.0,0.0,0.0,0.0,0.0,0.0,0.0,0.0,0.0,0.0,0.0,0.0,0.0,0.0,0.0,0.0,0.0,0.0,0.0,0.0,0.0,0.0,0.0,0.0,0.0,0.0,0.0,0.0,0.0,0.0,0.0,0.0,0.0,0.0,0.0,0.0,0.0,0.0,0.0,0.0,0.0,0.0,0.0,0.0,0.0,0.0,0.0,0.0,0.0,0.0,0.0,0.0,0.0,0.0,0.0,0.0,0.0,0.0,0.0,0.0,0.0,0.0,-0.7095,-0.7095,-0.7095,-0.7095,-0.736,-0.7925,-0.8886,-0.9797,-1.0966,-1.2357,0.0,0.0,0.0,0.0,0.0,0.0,0.0,0.0,0.0,0.0,0.0,0.0,0.0,0.0,0.0,0.0,0.0,0.0,0.0,0.0,0.0,0.0,0.0,0.0,0.0,0.0,0.0,0.0,0.0,0.0,0.0,0.0,0.0,0.0,0.0,0.0,0.0,0.0,0.0,0.0,0.0,0.0,0.0,0.0,0.0,0.0,0.0,0.0,0.0,0.0,0.0,0.0,0.0,0.0,0.0,0.0,0.0,0.0,0.0,0.0,0.0,0.0,0.0,0.0,0.0,0.0,0.0,0.0,0.0,0.0,0.0,0.0,0.0,0.0,0.0,0.0,0.0,0.0,0.0,0.0,0.0,0.0,0.0,0.0,0.0,0.0,0.0,0.0,0.0,0.0,0.0,0.0,0.0,0.0,0.0,0.0,0.0,0.0,0.0,0.0,0.0,0.0,-0.7095,-0.7095,-0.7095,-0.7095,-0.7973,-0.889,-0.9836,-1.0755,-1.1886,0.0,0.0,0.0,0.0,0.0,0.0,0.0,0.0,0.0,0.0,0.0,0.0,0.0,0.0,0.0,0.0,0.0,0.0,0.0,0.0,0.0,0.0,0.0,0.0,0.0,0.0,0.0,0.0,0.0,0.0,0.0,0.0,0.0,0.0,0.0,0.0,0.0,0.0,0.0,0.0,0.0,0.0,0.0,0.0,0.0,0.0,0.0,0.0,0.0,0.0,0.0,0.0,0.0,0.0,0.0,0.0,0.0,0.0,0.0,0.0,0.0,0.0,0.0,0.0,0.0,0.0,0.0,0.0,0.0,0.0,0.0,0.0,0.0,0.0,0.0,0.0,0.0,0.0,0.0,0.0,0.0,0.0,0.0,0.0,0.0,0.0,0.0,0.0,0.0,0.0,0.0,0.0,0.0,0.0,0.0,0.0,0.0,0.0,0.0,0.0,0.0,0.0,0.0,-0.7095,-0.7665,-0.8105,-0.8105,-0.893,-0.9884,-1.0799,-1.1149,-1.1886,-1.3307,0.0,0.0,0.0,0.0,0.0,0.0,0.0,0.0,0.0,0.0,0.0,0.0,0.0,0.0,0.0,0.0,0.0,0.0,0.0,0.0,0.0,0.0,0.0,0.0,0.0,0.0,0.0,0.0,0.0,0.0,0.0,0.0,0.0,0.0,0.0,0.0,0.0,0.0,0.0,0.0,0.0,0.0,0.0,0.0,0.0,0.0,0.0,0.0,0.0,0.0,0.0,0.0,0.0,0.0,0.0,0.0,0.0,0.0,0.0,0.0,0.0,0.0,0.0,0.0,0.0,0.0,0.0,0.0,0.0,0.0,0.0,0.0,0.0,0.0,0.0,0.0,0.0,0.0,0.0,0.0,0.0,0.0,0.0,0.0,0.0,0.0,0.0,0.0,0.0,0.0,0.0,0.0,0.0,0.0,0.0,0.0,0.0,0.0,0.0,0.0,0.0,0.0,-0.7621,-0.8149,-0.8627,-0.9017,-0.9884,-1.0712,-1.1235,-1.1757,-1.2406,-1.3355,0.0,0.0,0.0,0.0,0.0,0.0,0.0,0.0,0.0,0.0,0.0,0.0,0.0,0.0,0.0,0.0,0.0,0.0,0.0,0.0,0.0,0.0,0.0,0.0,0.0,0.0,0.0,0.0,0.0,0.0,0.0,0.0,0.0,0.0,0.0,0.0,0.0,0.0,0.0,0.0,0.0,0.0,0.0,0.0,0.0,0.0,0.0,0.0,0.0,0.0,0.0,0.0,0.0,0.0,0.0,0.0,0.0,0.0,0.0,0.0,0.0,0.0,0.0,0.0,0.0,0.0,0.0,0.0,0.0,0.0,0.0,0.0,0.0,0.0,0.0,0.0,0.0,0.0,0.0,0.0,0.0,0.0,0.0,0.0,0.0,0.0,0.0,0.0,0.0,0.0,0.0,0.0,0.0,0.0,0.0,0.0,0.0,0.0,0.0,0.0,0.0,0.0,-0.8412,-0.8671,-0.9104,-0.9923,-1.0885,-1.1456,-1.1451,-1.2491,-1.3179,-1.3398,0.0,0.0,0.0,0.0,0.0,0.0,0.0,0.0,0.0,0.0,0.0,0.0,0.0,0.0,0.0,0.0,0.0,0.0,0.0,0.0,0.0,0.0,0.0,0.0,0.0,0.0,0.0,0.0,0.0,0.0,0.0,0.0,0.0,0.0,0.0,0.0,0.0,0.0,0.0,0.0,0.0,0.0,0.0,0.0,0.0,0.0,0.0,0.0,0.0,0.0,0.0,0.0,0.0,0.0,0.0,0.0,0.0,0.0,0.0,0.0,0.0202,0.0,0.0,0.0,0.0,0.0,0.0,0.0,0.0,0.0,0.0,0.0,0.0,0.0,0.0,0.0,0.0,0.0,0.0,0.0,0.0,0.0,0.0,0.0,0.0,0.0,0.0,0.0,0.0,0.0,0.0,0.0,0.0,0.0,0.0,0.0,0.0,0.0,0.0,0.0,0.0,0.0,-0.8456,-0.9802,-1.0761,-1.0977,-1.1837,-1.2491,-1.2705,-1.2966,-1.3264,-1.361,-1.3695,0.0,0.0,0.0,0.0,0.0,0.0,0.0,0.0,0.0,0.0,0.0,0.0,0.0,0.0,0.0,0.0,0.0,0.0,0.0,0.0,0.0,0.0,0.0,0.0,0.0,0.0,0.0,0.0,0.0,0.0,0.0,0.0,0.0,0.0,0.0,0.0,0.0,0.0,0.0,0.0,0.0,0.0,0.0,0.0,0.0,0.0,0.0,0.0,0.0,0.0,0.0,0.0,0.0,0.0,0.0,0.0,0.0,0.0,0.0,0.0,0.0,0.0,0.0,0.0,0.0,0.0,0.0,0.0,0.0,0.0,0.0,0.0,0.0,0.0,0.0,0.0,0.0,0.0,0.0,0.0,0.0,0.0,0.0,0.0,0.0,0.0,0.0,0.0,0.0,0.0,0.0,0.0,0.0,0.0,0.0,0.0,0.0,0.0,0.0,0.0,0.0,-0.91,-1.0409,-1.1451,-1.1929,-1.24,-1.2747,-1.2881,-1.3094,-1.3307,-1.3519,-1.3779,0.0,0.0,0.0,0.0,0.0,0.0,0.0,0.0,0.0,0.0,0.0,0.0,0.0,0.0,0.0,0.0,0.0,0.0,0.0,0.0,0.0,0.0,0.0,0.0,0.0,0.0,0.0,0.0,0.0,0.0,0.0,0.0,0.0,0.0,0.0,0.0,0.0,0.0,0.0,0.0,0.0,0.0,0.0,0.0,0.0,0.0,0.0,0.0,0.0,0.0,0.0,0.0,0.0,0.1364,0.1263,0.1263,0.101,0.0707,0.0455,0.0202,-0.005,-0.0454,-0.2368,0.0,0.0,0.0,0.0,0.0,0.0,0.0,0.0,0.0,0.0,0.0,0.0,0.0,0.0,0.0,0.0,0.0,0.0,0.0,0.0,0.0,0.0,0.0,0.0,-0.7228,-0.7139,-0.7316,0.0,0.0,0.0,0.0,0.0,0.0,0.0,0.0,0.0,0.0,0.0,-1.0009,-1.0971,-1.1843,-1.2619,-1.2662,-1.2638,-1.2723,-1.3018,-1.3271,-1.3364,-1.3756,-1.3993,0.0,0.0,0.0,0.0,0.0,0.0,0.0,0.0,0.0,0.0,0.0,0.0,0.0,0.0,0.0,0.0,0.0,0.0,0.0,0.0,0.0,0.0,0.0,0.0,0.0,0.0,0.0,0.0,0.0,0.0,0.0,0.0,0.8598,0.8367,0.0,0.0,0.0,0.0,0.0,0.0,0.0,0.0,0.0,0.0,0.0,0.0,0.0,0.1768,0.1617,0.1617,0.1617,0.1617,0.1566,0.1566,0.1516,0.1263,0.101,0.0707,0.0455,0.0,-0.1462,-0.272,0.0,0.0,0.0,0.0,0.0,0.0,0.0,0.0,0.0,0.0,0.0,0.0,0.0,0.0,0.0,0.0,0.0,0.0,0.0,0.0,0.0,0.0,-0.7316,-0.8105,-0.7709,-0.7316,0.0,-0.7665,-0.736,-0.8149,-0.7665,0.0,0.0,0.0,0.0,0.0,0.0,0.0,-1.0977,-1.1923,-1.2577,-1.2705,-1.2499,-1.245,-1.2663,-1.2528,-1.27,-1.327,-1.3365,-1.3607,-1.4075,-1.4088,0.0,0.0,0.0,0.0,0.0,0.0,0.0,0.0,0.0,0.0,0.0,0.0,0.0,0.0,0.0,0.0,0.0,0.0,0.0,0.0,0.0,0.0,0.0,0.0,0.0,0.0,0.0,0.0,0.0,0.9701,0.9557,0.8573,0.8449,0.8288,0.0,0.0,0.0,0.0,0.0,0.0,0.0,0.0,0.0,0.4703,0.3854,0.2822,0.1617,0.1617,0.1617,0.1617,0.1617,0.1617,0.1617,0.1465,0.1212,0.0808,0.0657,-0.0555,-0.2519,-0.3022,-0.3827,-0.4885,0.0,0.0,0.0,0.0,-0.6323,-0.6346,-0.6738,-0.679,-0.6751,-0.7213,0.0,0.0,0.0,0.0,0.0,0.0,0.0,0.0,0.0,0.0,-0.8794,-0.9187,-0.8969,-0.8794,-0.9187,-0.8969,-0.8623,0.0,-0.8149,-0.8017,-0.8412,0.0,0.0,0.0,0.0,-1.0614,-1.1001,-1.1767,-1.2264,-1.2264,-1.2161,-1.2136,-1.2257,-1.2274,-1.2422,-1.2703,-1.283,-1.305,-1.3424,-1.3431,-1.3472,0.0,0.0,0.0,0.0,0.0,0.0,0.0,0.0,0.0,0.0,0.0,0.0,0.0,0.0,0.0,0.0,0.0,0.0,0.0,0.0,0.0,0.0,0.0,0.0,0.0,0.0,0.0,0.0,0.9985,1.0217,0.9004,0.8627,0.8321,0.0,0.0,0.0,0.0,0.0,0.0,0.76,0.7446,0.6546,0.4649,0.4482,0.3473,0.1617,0.1617,0.1617,0.1617,0.1617,0.1617,0.1617,0.1617,0.1364,0.0909,0.0808,-0.0706,-0.3123,-0.3173,-0.3977,-0.5286,-0.6087,-0.6387,-0.6384,-0.6404,-0.6339,-0.6395,-0.6928,-0.7204,-0.7378,-0.7982,-0.8316,-0.8544,-0.8851,0.0,0.0,0.0,0.0,-0.9749,-0.9061,-0.9362,-0.9966,-1.0188,-1.0053,-0.9966,-1.0226,-1.0053,-0.9749,0.0,-0.9017,-0.893,-0.9196,0.0,0.0,0.0,-1.0188,-1.0977,-1.1227,-1.163,-1.188,-1.188,-1.1826,-1.1784,-1.1784,-1.1915,-1.2066,-1.2186,-1.2351,-1.2534,-1.281,-1.285,-1.2969,-1.3134,0.0,0.0,0.0,0.0,0.0,0.0,0.0,0.0,0.0,0.0,0.0,0.0,0.0,0.0,0.0,0.0,0.0,0.0,0.0,0.0,0.0,0.0,0.0,0.0,0.0,0.0,0.0,0.0,0.0,0.9581,0.8698,0.0,0.0,0.0,0.0,0.7611,0.7604,0.76,0.76,0.6768,0.5766,0.4649,0.374,0.2723,0.1617,0.1617,0.1617,0.1617,0.1617,0.1617,0.1617,0.1617,0.1465,0.1162,0.0909,-0.0555,-0.282,-0.3073,-0.4429,-0.6337,-0.6387,-0.6387,-0.6373,-0.6317,-0.6322,-0.63,-0.6222,-0.665,-0.7304,-0.7343,-0.7875,-0.8719,-0.9854,-0.9719,0.0,0.0,-0.9666,-0.9879,-0.9836,-0.9879,-1.0139,-1.102,-1.0534,-1.0139,-1.102,-1.0534,-1.0144,0.0,-1.0448,-1.0096,-1.102,0.0,-1.0188,-1.102,-1.0995,-1.1227,-1.2106,-1.2042,-1.188,-1.188,-1.1663,-1.1513,-1.1513,-1.1304,-1.1382,-1.1888,-1.1952,-1.2142,-1.2605,-1.281,-1.2889,-1.2889,-1.3842,0.0,0.0,0.0,0.0,0.0,0.0,0.0,0.0,0.0,0.0,0.0,0.0,0.0,0.0,0.0,0.0,0.0,0.0,0.0,0.0,0.0,0.0,0.0,0.0,0.0,0.0,0.0,0.0,1.0098,0.9479,0.0,0.7916,0.7749,0.7636,0.7497,0.736,0.726,0.726,0.7076,0.6164,0.4473,0.4227,0.3255,0.1558,0.1558,0.1558,0.1558,0.1558,0.1558,0.1558,0.1558,0.1412,0.112,0.1023,-0.0437,-0.2766,-0.2814,-0.4251,-0.6328,-0.6328,-0.6282,-0.6206,-0.6165,-0.6151,-0.6227,-0.6703,-0.708,-0.7472,-0.8621,-0.956,-1.0255,-1.012,-1.0511,-1.0766,-0.9671,-1.0491,-1.1574,-1.0971,-1.123,-1.1789,-1.21,-1.1966,-1.175,-1.1893,-1.1685,-1.1508,-1.1652,-1.1196,-1.0928,-1.1235,-1.1537,-1.1567,-1.1122,-1.1316,-1.1595,-1.175,-1.1531,-1.1401,-1.1401,-1.1317,-1.1224,-1.1224,-1.1134,-1.1191,-1.1369,-1.1376,-1.1532,-1.1821,-1.1897,-1.2018,-1.2132,-1.2975,-1.3194,0.0,0.0,0.0,0.0,0.0,0.0,0.0,0.0,0.0,0.0,0.0,0.0,0.0,0.0,0.0,0.0,0.0,0.0,0.0,0.0,0.0,0.0,0.0,0.0,0.0,1.2522,1.2455,1.1145,1.018,0.9257,0.8432,0.7845,0.7424,0.7292,0.7156,0.7095,0.7095,0.7288,0.6447,0.4378,0.4514,0.3615,0.1526,0.1478,0.1478,0.1478,0.1478,0.1478,0.1478,0.1478,0.1383,0.124,0.1144,-0.0095,-0.2091,-0.2518,-0.3862,-0.5716,-0.6093,-0.6157,-0.6086,-0.6086,-0.6086,-0.6208,-0.704,-0.7307,-0.7598,-0.9345,-1.0342,-1.0781,-1.0472,-1.1084,-1.165,-1.0463,-1.1262,-1.2361,-1.1762,-1.2043,-1.2439,-1.2439,-1.2439,-1.2391,-1.2216,-1.2186,-1.2131,-1.1916,-1.1664,-1.1511,-1.1511,-1.2021,-1.2171,-1.1376,-1.1548,-1.1688,-1.1513,-1.1286,-1.1111,-1.1111,-1.1111,-1.1111,-1.1111,-1.1111,-1.1111,-1.1111,-1.1111,-1.1149,-1.1298,-1.1372,-1.1446,-1.1595,-1.2755,-1.3084,-1.2512,0.0,0.0,0.0,0.0,0.0,0.0,0.0,0.0,0.0,0.0,0.0,0.0,0.0,0.0,0.0,0.0,0.0,0.0,0.0,0.0,0.0,0.0,0.0,1.2747,1.2747,1.2747,1.2705,1.0707,0.9274,0.9192,0.7969,0.7139,0.7095,0.7095,0.7095,0.7095,0.7282,0.6441,0.442,0.4508,0.3607,0.157,0.1523,0.1476,0.1476,0.1476,0.1476,0.1476,0.1476,0.1476,0.1476,0.1237,0.038,-0.0901,-0.2179,-0.3368,-0.4608,-0.5652,-0.6078,-0.6075,-0.607,-0.6067,-0.6186,-0.6972,-0.7242,-0.7576,-0.924,-0.984,-1.0058,-1.0977,-1.1462,-1.172,-1.1886,-1.1964,-1.2011,-1.2218,-1.2073,-1.188,-1.188,-1.188,-1.192,-1.1902,-1.1896,-1.185,-1.1838,-1.1832,-1.1844,-1.1874,-1.188,-1.192,-1.1874,-1.1657,0.0,-1.1477,-1.1242,-1.1111,-1.1111,-1.1111,-1.1111,-1.1111,-1.1111,-1.1111,-1.1111,-1.1111,-1.1111,-1.1149,-1.1335,-1.1446,-1.1484,-1.3324,-1.4027,-1.3535,0.0,0.0,0.0,0.0,0.0,0.0,0.0,0.0,0.0,0.0,0.0,0.0,0.0,0.0,0.0,0.0,0.0,0.0,0.0,0.0,0.0,1.387,1.3743,1.3743,1.3743,1.3483,1.279,1.2009,1.0928,0.9362,0.8715,0.8061,0.7183,0.7095,0.7095,0.7095,0.7136,0.6621,0.5362,0.4712,0.3776,0.2507,0.1779,0.1414,0.1414,0.1414,0.1414,0.1414,0.1414,0.1414,0.1413,0.1347,0.0624,-0.0579,-0.1707,-0.2901,-0.4113,-0.5428,-0.5901,-0.582,-0.5686,-0.564,-0.5605,-0.5866,-0.6364,-0.7031,-0.7494,-0.8522,-0.9608,-0.9856,-1.0532,-1.1208,-1.1249,-1.1479,-1.1711,-1.1786,-1.1854,-1.188,-1.188,-1.188,-1.1778,-1.1419,-1.1335,-1.1182,-1.0803,-1.0731,-1.0978,-1.1787,-1.188,-1.182,-1.1627,-1.1537,0.0,-1.1212,-1.116,-1.1111,-1.1111,-1.1111,-1.1111,-1.1111,-1.1111,-1.1111,-1.1111,-1.1111,-1.1372,-1.1966,-1.2003,-1.2365,-1.3047,-1.3875,-1.4235,0.0,0.0,0.0,0.0,0.0,0.0,0.0,0.0,0.0,0.0,0.0,0.0,0.0,0.0,0.0,0.0,0.0,0.0,0.0,0.0,0.0,0.0,1.4088,1.4088,1.4088,1.4088,1.3913,1.3349,1.2741,1.1826,1.0491,0.9497,0.854,0.7753,0.7316,0.7095,0.7095,0.7095,0.6653,0.5719,0.5184,0.4229,0.2874,0.2299,0.1762,0.1355,0.1355,0.1355,0.1355,0.1355,0.1355,0.1354,0.1337,0.0901,0.0086,-0.1307,-0.239,0.0,0.0,0.0,0.0,0.0,-0.5428,-0.541,-0.541,-0.574,-0.6274,-0.6688,-0.7708,-0.8896,-0.9263,-1.005,-1.084,-1.0961,-1.1169,-1.1322,-1.1401,-1.1393,-1.1419,-1.1419,-1.1297,-1.1128,-1.0815,-1.0743,-1.0659,-1.0352,-1.0292,0.0,-1.111,-1.1309,-1.1327,-1.1176,-1.1248,-1.1298,-1.1135,-1.1111,-1.1111,-1.1111,-1.1111,-1.1111,-1.1111,-1.1111,0.0,0.0,0.0,-1.1298,-1.1781,-1.1781,0.0,0.0,0.0,-1.4263,-1.4422,0.0,0.0,0.0,-1.4417,-1.4539,0.0,0.0,0.0,0.0,0.0,0.0,0.0,0.0,0.0,0.0,0.0,0.0,0.0,0.0,0.0,0.0,1.4088,1.4088,1.4088,1.4088,1.4088,1.4088,1.3118,1.2334,1.2052,1.0323,0.9021,0.8588,0.7753,0.7221,0.7075,0.0,0.0,0.0,0.0,0.4837,0.3111,0.2895,0.2313,0.1432,0.1348,0.1305,0.1305,0.1305,0.1305,0.1305,0.1302,0.1133,0.0755,-0.0959,-0.208,-0.2831,-0.4687,-0.5402,-0.5391,-0.5391,-0.5383,-0.5372,-0.5372,0.0,0.0,-0.6473,-0.7327,-0.822,-0.9071,-0.9893,-1.0557,-1.0798,-1.0824,-1.0827,-1.102,-1.084,-1.0641,-1.0641,-1.046,-1.0286,-1.0256,-1.025,-1.0244,-1.0214,-1.0208,-1.0214,-1.0244,-1.0491,-1.0683,-1.0683,-1.0942,-1.1111,-1.1111,-1.1111,-1.1111,-1.1111,0.0,0.0,-1.1111,-1.1186,-1.1223,-1.1223,-1.1403,-1.1471,-1.1471,-1.1583,-1.2168,-1.323,-1.3903,-1.445,-1.4816,-1.6184,-1.6767,-1.6571,-1.5194,-1.4801,0.0,0.0,0.0,0.0,0.0,0.0,0.0,0.0,0.0,0.0,0.0,0.0,0.0,0.0,0.0,1.4088,1.4088,1.4088,1.4088,1.4088,1.4088,1.4088,1.3688,1.3118,1.2334,1.1574,1.0501,0.8934,0.8456,0.7833,0.6976,0.6927,0.6826,0.6534,0.5765,0.5202,0.4801,0.3374,0.2529,0.2351,0.0,0.0,0.1305,0.1305,0.1305,0.1304,0.1281,0.086,0.0082,-0.1121,-0.266,-0.4342,-0.5087,-0.535,-0.5222,-0.5222,-0.5165,-0.5086,-0.5086,-0.5514,-0.6094,-0.625,-0.734,-0.8585,-0.8778,-0.9399,0.0,-1.01,-1.0121,-1.0081,-1.0154,-1.0187,-1.0201,-1.0201,-1.0264,-1.0238,-1.0027,-0.9979,-0.9919,-0.9709,-0.9666,-0.9733,-0.9943,-1.037,-1.0683,-1.0683,-1.0942,-1.1111,-1.1111,-1.1111,-1.1111,-1.1111,-1.1111,-1.1111,-1.1111,-1.1706,-1.2077,-1.2077,-1.323,-1.3911,-1.3911,-1.4708,-1.5259,-1.548,-1.5727,-1.5974,-1.621,-1.6499,-1.7053,-1.774,-1.6783,-1.6663,0.0,0.0,0.0,0.0,0.0,0.0,0.0,0.0,0.0,0.0,0.0,1.3808,1.4195,0.0,1.4866,1.4783,1.4741,1.4741,1.4741,1.4377,1.4088,1.4088,1.3997,1.3646,1.3075,1.227,1.1345,1.0198,0.938,0.8653,0.8024,0.7602,0.7359,0.7315,0.644,0.5744,0.5271,0.4367,0.3648,0.3201,0.2314,0.1912,0.1871,0.1465,0.1303,0.1301,0.1286,0.1039,0.0518,-0.0984,-0.2702,-0.444,-0.4863,-0.5074,-0.5102,-0.5102,-0.5067,-0.5018,-0.5018,-0.5246,-0.5667,-0.6086,-0.7046,-0.8161,-0.8585,-0.9198,-0.975,-0.975,-0.9728,-0.9685,-0.9685,-0.9706,-0.9759,-0.9867,-0.9829,-0.9792,-0.9706,-0.9709,-0.9672,-0.954,-0.9516,-0.96,-0.9859,-1.0232,-1.0533,-1.0665,-1.0942,-1.1111,-1.1111,-1.1111,-1.1111,-1.1111,-1.1111,-1.1111,-1.1111,-1.1484,-1.1706,-1.1706,-1.2425,-1.2858,-1.2858,-1.3702,-1.4438,-1.4903,-1.5365,-1.5868,-1.6438,-1.6533,-1.6954,-1.7633,-1.733,-1.7412,0.0,0.0,0.0,0.0,0.0,0.0,0.0,1.4706,1.5228,1.5228,1.5228,1.5179,1.497,1.5553,1.5933,1.576,1.5711,1.5718,1.5677,1.4976,1.449,1.449,1.4204,1.3917,1.3694,1.2711,1.1876,1.1299,1.03,0.9492,0.909,0.844,0.802,0.7825,0.7178,0.639,0.5434,0.5231,0.4783,0.4025,0.3171,0.2666,0.247,0.1846,0.1453,0.1296,0.1139,0.106,0.0903,-0.098,-0.2586,-0.3919,-0.4426,-0.4779,-0.4937,-0.4979,-0.5018,-0.5018,-0.5018,-0.5093,-0.5323,-0.5973,-0.6773,-0.7647,-0.8382,-0.8971,-0.9379,-0.9482,-0.9442,-0.9366,-0.9366,-0.9344,-0.9319,-0.9503,-0.9367,-0.9274,-0.9446,-0.9446,-0.9478,-0.9484,-0.9516,-0.96,-0.9859,-1.0081,-1.0322,-1.0641,-1.0942,-1.1111,-1.1111,-1.1111,-1.1111,-1.1111,-1.1111,-1.1149,-1.1335,-1.1335,-1.144,-1.1768,-1.1768,-1.1842,-1.2027,-1.2475,-1.3091,-1.3854,-1.4502,-1.5223,-1.6026,-1.6368,-1.6714,-1.7144,-1.7171,-1.7422,1.5774,1.5888,1.611,1.7447,1.7406,1.696,0.0,1.6927,1.7009,1.7009,1.7009,1.7017,1.6968,1.705,1.705,1.6838,1.6838,1.6764,1.6576,1.6154,1.5894,1.5894,1.4572,1.3653,1.3605,1.3098,1.2357,1.1289,1.0858,1.0143,0.8999,0.8832,0.84,0.7584,0.7463,0.7033,0.6168,0.5419,0.4976,0.4846,0.4027,0.3248,0.2511,0.2393,0.1962,0.1257,0.047,0.0157,0.0,-0.1685,-0.2626,-0.3052,-0.4031,-0.4543,-0.474,-0.4937,-0.5018,-0.5018,-0.5018,-0.5476,-0.6089,-0.6163,-0.6773,-0.7622,-0.8166,-0.8396,-0.8558,-0.909,-0.9117,-0.8972,-0.8972,-0.8926,-0.8874,-0.8906,-0.8981,-0.9081,-0.9274,-0.9306,-0.9344,-0.9484,-0.9516,-0.96,-0.9859,-0.9925,-1.0118,-1.0611,-1.0942,-1.1111,-1.1111,-1.1111,-1.1111,-1.1111,-1.1111,-1.1409,-1.2114,-1.215,-1.2769,-1.4127,-1.4207,-1.4537,-1.5248,-1.4689,-1.4386,-1.4494,-1.4601,-1.4788,-1.5046,-1.5806,-1.6431,-1.6918,-1.6336,-1.6436,1.781,1.8975,1.9977,1.9316,1.9504,1.9593,1.8616,1.8426,1.8275,1.7779,1.7715,1.7666,1.7536,1.794,1.823,1.798,1.7819,1.7662,1.7332,1.6588,1.5992,1.5779,1.5002,1.4343,1.4057,1.3302,1.2583,1.1998,1.1566,1.1033,1.0395,0.9783,0.9288,0.8894,0.7978,0.733,0.6988,0.6173,0.5747,0.5747,0.4885,0.4302,0.3912,0.294,0.208,0.1296,0.0903,0.047,-0.0039,-0.0744,-0.1684,-0.2665,-0.3248,-0.3912,-0.4582,-0.4898,-0.5018,-0.5018,-0.5018,-0.5207,-0.5592,-0.6051,-0.6409,-0.681,-0.752,-0.7564,-0.7548,-0.8191,-0.8251,-0.819,-0.8558,-0.8652,-0.8641,-0.877,-0.8835,-0.8926,-0.9081,-0.9113,-0.9177,-0.9344,-0.9376,-0.9491,-0.9826,-0.9907,-1.0033,-1.04,-1.0551,-1.0617,-1.0617,-1.0617,-1.0617,-1.0617,-1.0617,-1.0938,-1.1642,-1.1713,-1.2164,-1.3204,-1.2892,-1.2822,-1.3177,-1.354,-1.3744,-1.3744,-1.477,-1.5346,-1.5426,-1.5885,-1.621,-1.6439,-1.6225,-1.5836,2.0638,2.184,2.2775,2.1381,2.1539,2.1742,2.0698,2.0352,2.0062,1.9504,1.9395,1.9346,1.918,1.9661,1.9954,1.9568,1.9385,1.9051,1.8274,1.7405,1.6669,1.6099,1.5605,1.5123,1.4767,1.3863,1.3222,1.301,1.2455,1.1996,1.1737,1.085,1.018,0.9922,0.8775,0.8055,0.7825,0.7026,0.6644,0.6606,0.5783,0.5237,0.4927,0.3251,0.2198,0.161,0.1414,0.0942,0.0353,0.0118,-0.0705,-0.1881,-0.2545,-0.3287,-0.4031,-0.4662,-0.4937,-0.5018,-0.5018,-0.5018,-0.5087,-0.5624,-0.5919,-0.6189,-0.6908,-0.706,-0.7146,-0.7793,-0.7905,-0.7884,-0.8382,-0.8517,-0.8549,-0.8673,-0.8705,-0.877,-0.8926,-0.8958,-0.899,-0.9177,-0.9274,-0.9403,-0.9691,-0.976,-0.9865,-1.0051,-1.0081,-1.013,-1.0274,-1.0292,-1.0292,-1.0292,-1.0292,-1.05,-1.097,-1.1005,-1.1348,-1.2016,-1.1614,-1.1444,-1.169,-1.231,-1.2674,-1.2674,-1.4142,-1.493,-1.5072,-1.5591,-1.5931,-1.6035,-1.6167,-1.5665,2.464,2.4103,2.3765,2.4542,2.3804,2.3005,2.355,2.3246,2.2872,2.2835,2.2835,2.2835,2.2835,2.2872,2.2646,2.1936,2.1788,2.1219,1.9598,1.8958,1.8386,1.754,1.6475,1.5788,1.5761,1.5018,1.4474,1.425,1.3564,1.2974,1.2565,1.1805,1.0925,0.9922,0.9841,0.9463,0.8665,0.7863,0.7446,0.7446,0.6644,0.5828,0.4927,0.3251,0.247,0.2433,0.1649,0.1296,0.1178,0.0353,-0.0039,-0.0274,-0.2074,-0.2818,-0.3013,-0.4268,-0.482,-0.5018,-0.5018,-0.5018,-0.4996,-0.4879,-0.532,-0.6009,-0.648,-0.7057,-0.7692,-0.8325,-0.8484,-0.8484,-0.8484,-0.8517,-0.8517,-0.8517,-0.8517,-0.8582,-0.877,-0.8802,-0.8835,-0.8985,-0.9177,-0.9306,-0.9318,-0.9426,-0.9528,-0.954,-0.954,-0.9721,-1.0232,-1.0292,-1.0292,-1.0292,-1.0292,-1.0298,-1.0327,-1.0327,-1.0667,-1.1471,-1.1505,-1.1853,-1.262,-1.1928,-1.1553,-1.1553,-1.2241,-1.2782,-1.3177,-1.4573,-1.5429,-1.5797,-1.6,-1.6167,2.6004,2.5625,2.552,2.5504,2.5725,2.579,2.5202,2.5281,2.5189,2.4244,2.4076,2.3936,2.3544,2.3213,2.2782,2.2162,2.1675,2.1066,2.0264,1.9661,1.9111,1.8556,1.7944,1.7575,1.7575,1.579,1.4565,1.4494,1.4163,1.3875,1.3723,1.2748,1.2094,1.1909,1.0582,0.9841,0.9685,0.8775,0.8016,0.7484,0.6683,0.5828,0.4963,0.4419,0.3561,0.247,0.2198,0.1805,0.1296,0.0982,0.051,-0.0078,-0.0704,-0.1721,-0.2857,-0.3287,-0.4031,-0.4818,-0.4937,-0.4925,-0.4852,-0.4812,-0.4871,-0.5,-0.5152,-0.5603,-0.6207,-0.6913,-0.7456,-0.7949,-0.8382,-0.8517,-0.8517,-0.8517,-0.8517,-0.8511,-0.8576,-0.8614,-0.8641,-0.8835,-0.8926,-0.899,-0.9081,-0.9242,-0.9408,-0.9484,-0.9516,-0.9582,-0.9757,-0.9781,-0.9939,-1.0392,-1.0418,-1.0803,-1.1685,-1.1749,-1.2069,-1.2767,-1.2419,-1.2292,-1.2553,-1.2544,-1.2568,-1.2568,-1.3498,-1.4023,-1.4145,-1.4622,-1.4932,-1.5069,-1.488,-1.4815,2.712,2.6867,2.6836,2.6492,2.6784,2.701,2.6434,2.6454,2.636,2.5573,2.5423,2.5257,2.4623,2.4274,2.3829,2.3053,2.2551,2.1945,2.1007,2.0445,1.9848,1.9108,1.871,1.8509,1.8509,1.6973,1.5895,1.5728,1.5171,1.4816,1.4736,1.3759,1.3113,1.2901,1.165,1.0844,1.0625,0.9722,0.8661,0.7484,0.6988,0.6289,0.5434,0.516,0.4419,0.3368,0.2744,0.2198,0.1689,0.1414,0.0981,0.0431,0.0118,-0.0744,-0.1878,-0.2543,-0.3348,-0.4173,-0.464,-0.4822,-0.4782,-0.4732,-0.4775,-0.4838,-0.4791,-0.5218,-0.5804,-0.6264,-0.6924,-0.7591,-0.8019,-0.8317,-0.8517,-0.8517,-0.8517,-0.8517,-0.8517,-0.8517,-0.8549,-0.8673,-0.8738,-0.8835,-0.8926,-0.9145,-0.9338,-0.9414,-0.9478,-0.9516,-0.9516,-0.9516,-0.967,-1.011,-1.0142,-1.0478,-1.1337,-1.1648,-1.1872,-1.2058,-1.2112,-1.1919,-1.1461,-1.2139,-1.2419,-1.2165,-1.3324,-1.3971,-1.4137,-1.4372,-1.4547,-1.4692,-1.4446,-1.4334,2.8204,2.7879,2.774,2.7602,2.7121,2.6794,2.7336,2.6976,2.6624,2.6948,2.6982,2.6788,2.623,2.6047,2.5643,2.461,2.4379,2.3746,2.1951,2.1412,2.0696,1.9354,1.8867,1.8633,1.8633,1.8566,1.8341,1.7808,0.0,1.5824,1.5604,1.4807,1.3947,1.3084,1.2938,1.2462,1.1521,1.0625,0.9344,0.7638,0.7522,0.7103,0.6338,0.5473,0.5043,0.4924,0.3329,0.2588,0.2431,0.1686,0.1333,0.1215,0.0391,0.0039,-0.0234,-0.1988,-0.2804,-0.3126,-0.4098,-0.4587,-0.4739,-0.4545,-0.4913,-0.5429,-0.5286,-0.5771,-0.633,-0.633,-0.6859,-0.7456,-0.7456,-0.7954,-0.8447,-0.8447,-0.8479,-0.8517,-0.8517,-0.8517,-0.8517,-0.8517,-0.8679,-0.8802,-0.8802,-0.9087,-0.9306,-0.9306,-0.9414,-0.9516,-0.9516,-0.9516,-0.9516,-0.9548,-0.9548,-0.9574,-0.9612,-1.0206,-1.0295,-0.9638,-1.0811,-1.093,-0.967,-1.0804,-1.1212,-1.0548,-1.1803,-1.2648,-1.3028,-1.3672,-1.4192,-1.4526,-1.4575,-1.4674,2.9326,2.9013,2.8749,2.8462,2.8596,2.8676,2.8184,2.8279,2.8462,2.84,2.8059,2.7766,2.771,2.6763,2.5761,2.5049,2.4272,2.3654,2.316,2.2792,2.2427,2.1966,2.1164,2.0602,2.0441,1.9628,1.9034,1.89,1.7867,1.7182,1.7148,1.5913,1.5136,1.5073,1.3665,1.2865,1.2725,1.1068,0.9879,0.9273,0.8055,0.7407,0.7176,0.6331,0.5631,0.4963,0.4535,0.364,0.2468,0.227,0.1796,0.1221,0.0973,0.0483,-0.0149,-0.0594,-0.1626,-0.282,-0.312,-0.381,-0.4553,-0.4525,-0.4549,-0.4605,-0.4573,-0.505,-0.5573,-0.5573,-0.61,-0.6695,-0.6695,-0.7223,-0.7754,-0.7754,-0.8149,-0.8517,-0.8517,-0.8517,-0.8517,-0.8517,-0.8679,-0.8835,-0.8926,-0.9145,-0.9338,-0.9446,-0.9484,-0.9516,-0.9516,-0.9516,-0.9702,-1.0206,-1.0238,-1.0446,-1.0961,-1.1149,-1.118,-1.0993,-1.1298,-1.1361,-1.0993,-1.1329,-1.1423,-1.1243,-1.1578,-1.1809,-1.1923,-1.2585,-1.2695,-1.2318,-1.3036,-1.3421,2.9881,2.9633,2.941,2.9022,2.9058,2.9092,2.8594,2.8508,2.8531,2.8538,2.8287,2.7999,2.7805,2.715,2.6476,2.5906,2.5329,2.4797,2.4326,2.3965,2.3555,2.3058,2.2267,2.1741,2.1635,2.0962,2.043,2.0117,1.8834,1.8037,1.8037,1.7035,1.6376,1.6167,1.4843,1.4027,1.3702,1.2057,1.1019,1.0527,0.9183,0.831,0.7806,0.706,0.638,0.5785,0.0,0.4284,0.3374,0.2655,0.2083,0.1598,0.132,0.0911,0.0437,0.0036,-0.0723,-0.1678,-0.2071,-0.2942,-0.3908,-0.429,-0.4352,-0.43,-0.43,-0.4521,-0.4762,-0.4762,-0.5315,-0.5866,-0.5866,-0.6441,-0.7027,-0.7027,-0.7288,-0.7652,-0.7987,-0.8052,-0.8149,-0.8447,-0.8582,-0.8705,-0.8765,-0.8958,-0.9119,-0.9253,-0.935,-0.9446,-0.9484,-0.9516,-0.9766,-1.0421,-1.0485,-1.0755,-1.1454,-1.1764,-1.1819,-1.1509,-1.1795,-1.1826,-1.1516,-1.1516,-1.1633,-1.1919,-1.195,-1.2074,-1.2389,-1.2451,-1.232,-1.1958,-1.2187,-1.2334,3.0105,3.0,2.9853,2.94,2.9047,2.8796,2.8729,2.8208,2.781,2.8087,2.8095,2.7892,2.7395,2.7461,2.7424,2.6886,2.6756,2.6373,2.5439,2.5051,2.4515,2.3539,2.293,2.2537,2.2445,2.2224,2.1834,2.1155,1.9683,1.8767,1.86,1.8104,1.7448,1.6636,1.607,1.5321,1.4307,1.3259,1.2311,1.1482,1.045,0.94,0.8371,0.7645,0.7159,0.6841,0.5476,0.4795,0.4504,0.3078,0.2388,0.2134,0.1552,0.1262,0.1082,0.0324,-0.0036,-0.0278,-0.1078,-0.1983,-0.2913,-0.3825,-0.4197,-0.4298,-0.4281,-0.4202,-0.4083,-0.4067,-0.4535,-0.5041,-0.5132,-0.5738,-0.6359,-0.6424,-0.6521,-0.6752,-0.7408,-0.7537,-0.7708,-0.8329,-0.8468,-0.8511,-0.8544,-0.8705,-0.8867,-0.8985,-0.9145,-0.9306,-0.9446,-0.9484,-0.9766,-1.0421,-1.0421,-1.0636,-1.1298,-1.1834,-1.1857,-1.1267,-1.1764,-1.1826,-1.1267,-1.1236,-1.1516,-1.2081,-1.2104,-1.2389,-1.2986,-1.2573,-1.2289,-1.2104,-1.1857,-1.1664,3.0285,3.0241,3.0162,2.9851,2.9607,2.9328,2.887,2.8313,2.7962,2.8283,2.828,2.827,2.8405,2.8224,2.7917,2.7449,2.699,2.6651,2.6453,2.6373,2.6038,2.5273,2.45,2.3794,2.3182,2.25,2.1834,2.1155,2.0826,2.0215,1.9199,1.8633,1.7813,1.6636,1.607,1.5321,1.4307,1.3774,1.3021,1.2053,1.087,0.984,0.8937,0.8158,0.7468,0.6877,0.6627,0.0,0.4571,0.4222,0.3342,0.2178,0.2027,0.1601,0.1091,0.0955,0.051,-0.0068,-0.0406,-0.0977,-0.1775,-0.2882,-0.3723,-0.4281,-0.4181,-0.4102,-0.4065,-0.3965,-0.4027,-0.4243,-0.4727,-0.5418,-0.6114,-0.6537,-0.7118,-0.7587,-0.7708,-0.7738,-0.7857,-0.8172,-0.8346,-0.8474,-0.8705,-0.8861,-0.8985,-0.8985,-0.9017,-0.9113,-0.9306,-0.9446,-0.9766,-1.0421,-0.9983,-0.9951,-1.0604,-1.0263,-0.9977,-0.9856,-0.9951,-0.9983,-0.9856,-0.9856,-0.9919,-1.0015,-1.0009,-1.0072,-1.0199,-1.118,-1.1087,-1.0072,-1.2174,-1.2573,3.0273,3.0247,3.0221,3.0087,2.9839,2.9523,2.9227,2.8505,2.7946,2.8065,2.8201,2.8264,2.8146,2.8421,2.8504,2.8042,2.7745,2.7479,2.7159,2.6886,2.6481,2.5838,2.5007,2.4381,2.4018,2.3471,2.2859,2.2194,2.2132,2.1416,1.9791,1.921,1.8398,1.7207,1.6906,1.6322,1.5359,1.4655,1.3739,1.2613,1.154,1.0496,0.9502,0.8767,0.8157,0.7681,0.6967,0.0,0.5487,0.4705,0.3725,0.2664,0.2259,0.1678,0.1109,0.1109,0.0874,0.0571,0.047,-0.01,-0.0886,-0.141,-0.246,-0.3603,-0.3974,-0.4028,-0.3917,-0.3857,-0.3841,-0.393,-0.4192,-0.4573,-0.4931,-0.517,-0.6048,-0.6892,-0.7161,-0.7523,-0.7833,-0.7976,-0.8034,-0.8133,-0.8242,-0.832,-0.8457,-0.8654,-0.8676,-0.8811,-0.9096,-0.9215,-0.9568,-1.0421,-1.0206,-1.0295,-1.0968,-1.0717,-1.0528,-1.0528,-1.0199,-1.0168,-1.0534,-0.9888,-0.9824,-1.0534,-1.0199,-1.0199,-1.0528,-1.085,-1.0661,-1.0047,-1.0975,-1.1062,3.0213,3.0211,3.0204,3.019,2.9888,2.957,2.9476,2.8646,2.7883,2.7797,2.793,2.7987,2.7778,2.8366,2.8801,2.859,2.8468,2.8235,2.777,2.7312,2.6849,2.6297,2.5605,2.5062,2.4806,2.4593,2.4118,2.3177,2.2967,2.2132,2.0421,1.9682,1.89,1.807,1.7755,1.7225,1.6479,1.5466,1.4346,1.3185,1.2186,1.1169,1.0108,0.9369,0.886,0.8484,0.7344,0.6691,0.0,0.5213,0.4217,0.3351,0.2614,0.1913,0.131,0.1143,0.1105,0.1067,0.1067,0.0589,-0.0064,-0.0255,-0.137,-0.2769,-0.3542,-0.3668,-0.3584,-0.3727,-0.3745,-0.3745,-0.3918,-0.3992,-0.4067,-0.4186,-0.5103,-0.6079,-0.6486,-0.7139,-0.7661,-0.7715,-0.7725,-0.7742,-0.779,-0.7801,-0.7895,-0.8212,-0.827,-0.8398,-0.8771,-0.8845,-0.9191,-1.0014,-1.0192,-1.0541,-1.1243,-1.1149,-1.108,-1.108,-1.0573,-1.051,-1.1055,-1.0072,-1.0009,-1.1055,-1.0541,-1.0541,-1.108,-1.0699,-1.0421,-1.0269,-1.004,-0.9856,3.0192,3.0211,3.019,3.0125,2.9847,2.9561,2.9365,2.8573,2.7855,2.7745,2.7487,2.7493,2.8127,2.8215,2.837,2.8933,2.8677,2.8372,2.8323,2.8259,2.8024,2.7414,2.717,2.6611,2.5425,2.5632,2.5065,2.3225,2.2531,2.1865,2.104,1.9922,1.9233,1.9166,1.7863,1.7129,1.7025,1.5722,1.4657,1.3794,1.2609,1.1657,1.087,0.9887,0.9168,0.8672,0.842,0.7572,0.0,0.6268,0.5408,0.412,0.3382,0.2648,0.1946,0.131,0.1059,0.1005,0.1005,0.0954,0.0744,-0.0124,-0.1111,-0.2086,-0.2595,-0.2732,-0.284,-0.3442,-0.3543,-0.3596,-0.4262,-0.4438,-0.4556,-0.5053,-0.5684,-0.6183,-0.6238,-0.6735,-0.7214,-0.7412,-0.7426,-0.7519,-0.7763,-0.7801,-0.7806,-0.7857,-0.7863,-0.7928,-0.8158,-0.8329,-0.8567,-0.884,-0.9202,-0.9716,-1.0516,-1.0047,-0.967,-0.967,-0.9638,-0.9606,-0.967,-0.9574,-0.9542,-0.967,-0.9606,-0.9606,-0.967,-1.0231,-1.0174,-0.9606,-1.078,-1.1,3.0211,3.0211,3.0171,3.0117,2.9839,2.9551,2.9345,2.856,2.7855,2.7745,2.7636,2.7704,2.8207,2.8379,2.8584,2.9032,2.87,2.855,2.8965,2.8722,2.8414,2.8195,2.7709,2.6897,2.5536,2.5467,2.5021,2.378,2.307,2.2592,2.2329,2.1069,1.9922,1.8921,1.8313,1.7582,1.6748,1.5939,1.4978,1.3883,1.3161,1.2399,1.1571,1.0685,1.018,0.9913,0.8935,0.7934,0.0,0.6564,0.5573,0.4287,0.3984,0.3152,0.2064,0.18,0.1416,0.1006,0.1006,0.0986,0.087,0.051,0.0059,-0.0524,-0.1611,-0.2122,-0.2434,-0.2837,-0.316,-0.3497,-0.3858,-0.3968,-0.4107,-0.468,-0.5007,-0.5254,-0.5582,-0.5855,-0.6041,-0.6124,-0.6142,-0.6276,-0.6755,-0.6831,-0.6989,-0.7477,-0.7562,-0.7639,-0.7898,-0.8001,-0.8122,-0.8303,-0.8814,-0.9306,-0.9748,-0.9536,-0.9414,-0.9484,-0.9516,-0.9516,-0.9516,-0.9516,-0.9516,-0.9516,-0.9516,-0.9516,-0.9516,-0.9766,-0.9766,-0.9516,-1.004,-1.0161,3.0211,3.0211,3.0183,3.0038,2.9787,2.9485,2.914,2.8435,2.7811,2.7595,2.7432,2.7508,2.8174,2.8237,2.8404,0.0,2.8872,2.8873,2.9325,2.9261,2.9135,2.9135,2.8505,2.7528,2.616,2.5355,2.4851,2.4666,2.3884,2.331,2.3118,2.2049,2.0722,1.9177,1.888,1.8081,1.6748,1.6007,1.5166,1.4284,1.3614,1.3009,1.2412,1.1547,1.1055,1.0798,0.9659,0.864,0.0,0.699,0.5975,0.4823,0.4396,0.3579,0.2543,0.2191,0.1714,0.1217,0.1036,0.0925,0.0901,0.0901,0.0829,0.0563,-0.0489,-0.1169,-0.1734,-0.2261,-0.2877,-0.3441,-0.3555,-0.3613,-0.3694,-0.4135,-0.438,-0.4598,-0.4979,-0.5199,-0.5304,-0.5304,-0.5304,-0.5441,-0.5855,-0.5937,-0.6124,-0.6697,-0.6918,-0.7115,-0.7305,-0.7534,-0.7728,-0.7868,-0.836,-0.8765,-0.9093,-0.9169,-0.9274,-0.9446,-0.9382,-0.9382,-0.9484,-0.9446,-0.9446,-0.9484,-0.9516,-0.9516,-0.9516,-0.9516,-0.9516,-0.9516,-0.9516,-0.9516,3.0211,3.0211,3.0135,2.9876,2.9644,2.9339,2.867,2.8139,2.7695,2.7291,2.6624,2.6568,2.8037,2.7602,2.7472,2.8876,2.9261,2.9371,2.9387,2.9971,3.0386,3.0386,2.9802,2.8884,2.7594,2.556,2.4781,2.5903,2.4808,0.0,2.3148,2.2514,2.1616,2.0427,1.9482,1.8466,1.7313,1.589,1.5206,1.5167,1.3893,1.3359,1.345,1.2451,1.164,1.0986,1.0836,0.9913,0.0,0.7679,0.6915,0.6053,0.4648,0.3971,0.3628,0.2371,0.1843,0.1705,0.1119,0.0895,0.0898,0.0898,0.0898,0.0898,0.087,0.0364,-0.0504,-0.1842,-0.2792,-0.3441,-0.3555,-0.3613,-0.3613,-0.3613,-0.4052,-0.4491,-0.4519,-0.4924,-0.5304,-0.5304,-0.5304,-0.5304,-0.5308,-0.5308,-0.5308,-0.5308,-0.5828,-0.6209,-0.6213,-0.691,-0.7399,-0.7399,-0.7637,-0.8053,-0.8671,-0.888,-0.9081,-0.9306,-0.9113,-0.9151,-0.9484,-0.9376,-0.9376,-0.9484,-0.9516,-0.9516,-0.9516,-0.9516,-0.9516,-0.9516,-0.9516,-0.9516,2.9937,2.9786,2.9697,2.9282,2.9058,2.8808,2.8226,2.7755,2.7411,2.7244,2.6995,2.7092,2.81,2.7969,2.7987,2.8932,2.9277,2.9556,3.0017,3.0674,3.1074,3.1074,2.9655,2.8323,2.7458,2.6286,2.5563,2.5467,2.5077,2.4551,2.3822,2.3209,2.1968,1.9968,1.9239,1.8349,1.7309,1.653,1.6161,1.6132,1.542,1.4932,1.4638,1.3717,1.271,1.164,1.1048,0.9913,0.0,0.8064,0.7458,0.6697,0.5659,0.4904,0.4304,0.3512,0.2599,0.1819,0.2044,0.1581,0.0981,0.1372,0.1232,0.0898,0.0898,0.0449,-0.0252,-0.1174,-0.2094,-0.2792,-0.285,-0.3216,-0.3613,-0.3613,-0.3749,-0.3888,-0.3888,-0.4024,-0.4132,-0.4132,-0.4132,-0.427,-0.468,-0.4763,-0.4873,-0.525,-0.5469,-0.5582,-0.5582,-0.5798,-0.5976,-0.5976,-0.6208,-0.6876,-0.8192,-0.8474,-0.8677,-0.8865,-0.8957,-0.9049,-0.9151,-0.9113,-0.9177,-0.9376,-0.9376,-0.9408,-0.9516,-0.9516,-0.9516,-0.9516,-0.9516,-0.9516,2.9922,2.9717,2.9551,2.8881,2.8603,2.837,2.7833,2.7692,2.7593,2.7215,2.7371,2.7671,2.8107,2.8067,2.8282,2.9085,2.9518,3.0002,3.0689,3.1351,3.1582,3.1074,2.9705,2.8491,2.7771,2.686,2.612,2.5605,2.5329,2.4893,2.4141,2.3341,2.2117,2.044,1.9587,1.8665,1.7617,1.6937,1.6599,1.6599,1.6132,1.5642,1.5167,1.4649,1.3687,1.2443,1.1515,0.0,0.0,0.8287,0.7684,0.7175,0.6347,0.557,0.4844,0.4248,0.3378,0.2514,0.2653,0.2207,0.1651,0.2014,0.1736,0.1206,0.0982,0.0477,-0.0112,-0.0616,-0.1342,-0.204,-0.2315,-0.2792,-0.3244,-0.3471,-0.3555,-0.3613,-0.3613,-0.3613,-0.3613,-0.3613,-0.3613,-0.3722,-0.4107,-0.4162,-0.427,-0.4598,-0.4842,-0.5007,-0.5007,-0.5171,-0.5304,-0.5304,-0.5461,-0.5969,-0.6961,-0.7315,-0.7588,-0.7797,-0.7835,-0.7944,-0.8095,-0.8059,-0.8265,-0.871,-0.88,-0.8979,-0.9318,-0.9318,-0.935,-0.9414,-0.9414,-0.9446,0.0,2.9885,2.9697,2.8732,2.8414,2.816,2.7594,2.7901,0.0,2.7302,2.7742,2.8225,2.804,2.8046,2.8388,2.9261,3.0002,3.0705,3.1305,3.1967,3.1905,3.0555,2.9951,2.9342,2.8486,2.7316,2.6522,2.6213,2.5618,2.4894,2.4076,2.3016,2.2117,2.1519,2.0391,1.9253,1.8093,1.7151,1.6655,1.6627,1.6218,1.5729,1.5255,1.5226,1.4503,0.0,1.2047,0.0,0.0,0.848,0.7692,0.7486,0.6734,0.6043,0.5359,0.469,0.4116,0.3569,0.3014,0.2764,0.2708,0.2708,0.2294,0.1685,0.1122,0.0533,0.0028,-0.014,-0.0617,-0.126,-0.1953,-0.2315,-0.2625,-0.316,-0.3385,-0.3471,-0.3527,-0.3527,-0.3555,-0.3583,-0.3613,-0.3613,-0.3613,-0.3613,-0.3613,-0.3613,-0.4079,-0.4436,-0.4436,-0.4873,-0.5171,-0.5171,-0.5171,-0.5171,-0.5171,-0.5682,-0.6062,-0.6237,-0.6104,-0.6169,-0.6549,-0.6489,-0.684,-0.7685,-0.7815,-0.8243,-0.8901,-0.8901,-0.8992,-0.9215,-0.9215,-0.9291,2.9435,0.0,3.0144,2.953,2.9372,2.9133,0.0,2.8206,2.8135,2.761,2.7788,2.8049,2.8025,2.8592,2.9126,2.9366,3.0397,3.1213,3.1393,3.1967,3.1905,3.0555,3.0282,2.972,2.851,2.8137,2.7469,2.6293,2.6053,2.5232,2.3502,2.2779,2.2124,2.1536,2.0393,1.9257,1.812,1.7468,1.7127,1.7127,1.7015,1.6542,1.5748,1.5419,1.4355,1.2701,0.0,0.0,0.9856,0.8826,0.8288,0.8043,0.7235,0.6829,0.6534,0.5492,0.4725,0.4199,0.4095,0.3486,0.2708,0.2708,0.2294,0.1769,0.1628,0.1178,0.0589,0.0084,-0.0559,-0.1147,-0.1312,-0.1928,-0.2408,-0.2097,-0.2125,-0.2348,-0.2822,-0.2905,-0.3047,-0.3499,-0.3613,-0.3613,-0.3613,-0.3613,-0.3613,-0.3613,-0.3722,-0.3805,-0.3805,-0.3913,-0.3996,-0.3996,-0.3996,-0.3996,-0.3996,-0.508,-0.5806,-0.5831,-0.5939,-0.6053,-0.6139,-0.6125,-0.6298,-0.6657,-0.682,-0.7208,-0.779,-0.779,-0.8037,-0.8524,-0.8524,-0.859,2.9653,2.9679,2.9608,2.8981,2.8821,2.8673,2.821,2.8312,2.838,2.7991,2.8246,2.8541,2.8701,2.91,2.9612,3.0212,3.092,3.1516,3.184,3.2167,3.1905,3.0555,3.0402,2.9863,2.8535,2.8411,2.7835,2.6455,2.6349,2.5448,2.3459,2.2811,2.2193,2.1525,2.0386,1.9384,1.8509,1.7952,1.7534,1.7306,1.7038,1.655,1.5823,1.5256,1.4326,1.3144,0.0,0.0,1.0359,0.9248,0.8645,0.836,0.7728,0.7333,0.6977,0.6046,0.5328,0.478,0.457,0.4073,0.3486,0.3209,0.2905,0.2519,0.1964,0.1572,0.1178,0.0588,-0.0084,-0.067,-0.095,-0.1649,-0.2268,-0.2212,-0.2378,-0.2545,-0.2601,-0.2655,-0.2708,-0.2768,-0.277,-0.277,-0.277,-0.2993,-0.3188,-0.3188,-0.3188,-0.3299,-0.3555,-0.3357,-0.3299,-0.3583,-0.3613,-0.3613,-0.3613,-0.4313,-0.4748,-0.4748,-0.4829,-0.4908,-0.4908,-0.4971,-0.5221,-0.5683,-0.6104,-0.6464,-0.6763,-0.6763,-0.6972,-0.7389,-0.7389,-0.7483,2.9767,2.9453,2.8851,2.8302,2.8131,2.8119,2.814,2.8491,2.8737,2.8427,2.8747,2.9171,2.953,2.9614,3.0017,3.1208,3.1501,3.1736,3.2321,3.2305,3.1797,3.054,3.0309,2.9756,2.8535,2.8411,2.79,2.6707,2.6628,2.5703,2.3632,2.3003,2.2313,2.1433,2.0374,1.9531,1.8998,1.8339,1.7757,1.7324,1.6683,1.6111,1.5596,1.4832,1.4218,1.3632,0.0,0.0,1.1064,0.969,0.8928,0.8626,0.8189,0.7681,0.7139,0.6561,0.6018,0.5469,0.4846,0.457,0.4405,0.3904,0.3683,0.3405,0.238,0.202,0.1825,0.1206,0.0532,-0.0112,-0.0642,-0.123,-0.1847,-0.2354,-0.2659,-0.274,-0.2519,-0.249,-0.243,-0.2097,-0.2069,-0.2041,-0.1958,-0.2374,-0.2681,-0.2569,-0.2569,-0.2738,-0.3246,-0.288,-0.2766,-0.3274,-0.3332,-0.3357,-0.3444,-0.3471,-0.3471,-0.3471,-0.3555,-0.3613,-0.3613,-0.3704,-0.4098,-0.4777,-0.5344,-0.5672,-0.5761,-0.5761,-0.5909,-0.6138,-0.6138,-0.6256,2.8094,2.8449,2.9016,2.9727,2.9901,2.9791,2.9355,2.9319,2.9243,2.8794,2.8787,2.8982,2.9496,3.0136,3.0773,3.1312,3.1859,3.2275,3.2382,3.1905,3.1259,3.0494,2.9894,2.9233,2.8488,2.8411,2.8048,2.7246,2.717,2.6115,2.3702,2.3383,2.2569,2.1034,2.0219,1.9515,1.8921,1.7981,1.7469,1.7364,1.6373,1.5509,1.4769,1.4245,1.361,1.2841,0.0,1.1234,1.0947,1.0061,0.9399,0.8902,0.86,0.8209,0.7714,0.7166,0.6891,0.6674,0.555,0.4873,0.4491,0.4405,0.4015,0.3569,0.3367,0.2963,0.2447,0.1825,0.0869,-0.0028,-0.0112,-0.0308,-0.0504,-0.0588,-0.0392,-0.056,-0.1959,-0.1986,-0.204,-0.2963,-0.3246,-0.3163,-0.2655,-0.2625,-0.2514,-0.2014,-0.1928,-0.1986,-0.2069,-0.1986,-0.1986,-0.2069,-0.2069,-0.2293,-0.2792,-0.285,-0.285,-0.285,-0.333,-0.3613,-0.3613,-0.363,-0.3674,-0.3806,-0.3919,-0.4226,-0.4724,-0.4724,-0.4975,-0.5445,-0.5445,-0.552,2.774,2.818,2.8755,2.9477,2.9566,2.9432,2.9205,2.9144,2.9091,2.8975,2.9155,2.9567,3.023,3.09,3.1493,3.1963,3.2252,3.2398,3.2398,3.1813,3.1151,3.0479,2.9802,2.915,2.8473,2.8411,2.8122,2.7464,2.7071,2.5975,2.3872,2.3296,2.2231,2.0464,2.0016,1.951,1.89,1.7895,1.7251,1.6894,1.5914,1.5232,1.4858,1.4163,1.353,1.2941,0.0,1.1785,1.1317,1.055,1.0082,0.9799,0.9007,0.862,0.8388,0.7456,0.6891,0.648,0.5605,0.5144,0.4897,0.4601,0.4322,0.4015,0.3699,0.34,0.3072,0.2454,0.1425,0.042,0.0084,-0.028,-0.0589,-0.0588,-0.0504,-0.0532,-0.1008,-0.1036,-0.1064,-0.1398,-0.151,-0.1595,-0.1706,-0.1986,-0.2124,-0.1846,-0.179,-0.179,-0.179,-0.1512,-0.1428,-0.1762,-0.179,-0.1902,-0.2179,-0.2514,-0.285,-0.316,-0.313,-0.3272,-0.3583,-0.3613,-0.3613,-0.3613,-0.3613,-0.3749,-0.4024,-0.4024,-0.4135,-0.438,-0.438,-0.4405,2.7464,2.7919,2.8389,2.8842,2.8905,2.8897,2.8959,2.8905,2.892,2.9068,2.9509,3.0118,3.0873,3.1534,3.2135,3.2598,3.2523,3.2336,3.2182,3.1582,3.092,3.0248,2.9556,2.8965,2.8458,2.8411,2.821,2.773,2.7088,2.5967,2.424,2.3231,2.189,2.0112,1.9643,1.9195,1.8715,1.7683,1.6967,1.654,1.5562,1.4978,1.4774,1.4098,1.3549,1.306,1.2813,1.2357,1.1744,1.1116,1.0796,1.0585,0.947,0.8928,0.8699,0.7723,0.6945,0.6344,0.5878,0.5527,0.5226,0.4825,0.4605,0.4405,0.395,0.3809,0.3696,0.3079,0.2254,0.1371,0.0616,0.0084,-0.0336,-0.0615,-0.0671,-0.0587,-0.0392,-0.0364,-0.0308,-0.014,-0.014,-0.028,-0.0701,-0.1204,-0.1483,-0.1343,-0.1371,-0.1371,-0.1371,-0.098,-0.0925,-0.1512,-0.1595,-0.1706,-0.1986,-0.243,-0.2961,-0.3555,-0.316,-0.313,-0.3583,-0.3613,-0.3613,-0.3613,-0.3613,-0.3613,-0.3613,-0.3613,-0.3613,-0.3613,-0.3613,-0.3613,2.6575,2.7261,2.8036,2.8439,2.8803,2.9075,2.9075,2.9075,2.9075,2.9098,2.9667,3.0337,3.0898,3.1846,3.2629,3.2827,3.2621,3.2167,3.1551,3.0905,3.0217,2.9541,2.8889,2.8458,2.8411,2.8411,2.8372,2.8348,2.7718,2.6613,2.4917,2.3522,2.1986,2.0241,1.8967,1.8254,1.8153,1.71,1.6618,1.6666,1.5614,1.4683,1.3886,1.3831,1.3416,1.2725,1.27,1.2455,1.2051,1.1744,1.1367,1.0889,1.0038,0.9119,0.8248,0.8168,0.7655,0.7031,0.6977,0.6236,0.5281,0.5254,0.4916,0.4491,0.446,0.4432,0.4319,0.3696,0.3473,0.3146,0.1962,0.1625,0.1314,0.0196,0.0364,0.0448,-0.0615,-0.0503,-0.0363,-0.0894,-0.1118,-0.1035,-0.0533,-0.0617,-0.0589,-0.0028,-0.0056,-0.014,-0.014,-0.0084,-0.0308,-0.0897,-0.0953,-0.1428,-0.2541,-0.2681,-0.2961,-0.3555,-0.3555,-0.3555,-0.3613,-0.3613,-0.3613,-0.3613,-0.3613,-0.3613,-0.3613,-0.3613,-0.3613,-0.3613,-0.3613,-0.3613,2.6283,2.6875,2.7399,2.7972,2.8439,2.8803,2.9029,2.9098,2.9225,2.969,3.0338,3.1151,3.2236,3.2243,3.2146,3.2257,3.1646,3.1089,3.0812,3.0212,2.9679,2.9417,2.8827,2.8411,2.8411,2.8411,2.8411,2.8411,2.738,2.6169,2.4802,2.3104,2.1382,1.9625,1.8765,1.8099,1.7671,1.7245,1.6751,1.6123,1.5438,1.4766,1.4163,1.4163,1.3763,1.3011,1.3011,1.2657,1.2076,1.1794,1.1694,1.1576,1.0474,0.9555,0.8765,0.8354,0.7949,0.7547,0.7219,0.681,0.6295,0.5536,0.5164,0.4947,0.4605,0.4491,0.446,0.4233,0.415,0.3871,0.2672,0.2371,0.2235,0.1788,0.1567,0.1343,0.0866,0.0615,0.0392,0.0084,-0.0028,-0.014,-0.0364,-0.0561,-0.0617,-0.0393,-0.0477,-0.0421,-0.0056,0.0,-0.0084,-0.0308,-0.0336,-0.0672,-0.1512,-0.1567,-0.1847,-0.2434,-0.2824,-0.3216,-0.3583,-0.3613,-0.3613,-0.3613,-0.3613,-0.3613,-0.3613,-0.3613,-0.3613,-0.3613,-0.3613,-0.3613,2.6028,2.651,2.6875,2.758,2.8027,2.8415,2.8826,2.9202,2.9595,3.0109,3.0559,3.1239,3.2424,3.2029,3.1534,3.1566,3.0928,3.0361,3.0109,2.9679,2.931,2.9095,2.8688,2.8411,2.8411,2.8411,2.8411,2.8411,2.6934,2.5626,2.4642,2.2597,2.0827,1.9429,1.8845,1.8255,1.7597,1.7584,1.706,1.602,1.5702,1.5142,1.4396,1.4396,1.4035,1.3386,1.3266,1.2842,1.2283,1.1952,1.1828,1.1769,1.0897,1.0123,0.9439,0.8765,0.8395,0.8156,0.7568,0.7246,0.6972,0.6127,0.574,0.5491,0.4919,0.4746,0.4719,0.4546,0.4491,0.4319,0.3473,0.3116,0.2929,0.2736,0.2374,0.2097,0.2097,0.1762,0.1428,0.1344,0.1344,0.1175,0.0671,0.042,0.0308,0.0308,0.0168,0.0168,0.0392,0.0364,0.0196,-0.0252,-0.0448,-0.0728,-0.1149,-0.1177,-0.1372,-0.1762,-0.2179,-0.2683,-0.3299,-0.3499,-0.3613,-0.3613,-0.3613,-0.3613,-0.3613,-0.3613,-0.3613,-0.3613,-0.3613,-0.3613,2.566,2.6096,2.6484,2.7207,2.7645,2.8012,2.8415,2.9382,3.0188,3.0204,3.0204,3.0401,3.1097,3.1099,3.0948,3.0816,3.0664,3.0304,2.9489,2.9371,2.9125,2.8488,2.8411,2.8411,2.8411,2.8396,2.8396,2.8396,2.6472,2.507,2.4612,2.2124,2.0423,1.9829,1.9224,1.8607,1.8008,1.7988,1.7503,1.65,1.65,1.5756,1.4407,1.4407,1.4186,1.3773,1.3386,1.3011,1.2676,1.2274,1.1794,1.1301,1.1301,1.0846,1.0141,0.9439,0.9119,0.8902,0.8156,0.7547,0.7112,0.7112,0.6693,0.6101,0.5495,0.5321,0.5203,0.466,0.4519,0.4519,0.4519,0.4064,0.3475,0.2873,0.2708,0.2708,0.2708,0.2708,0.2708,0.2708,0.2708,0.2708,0.2708,0.2595,0.2512,0.2512,0.2315,0.1981,0.1397,0.1202,0.0587,-0.0729,-0.1428,-0.179,-0.179,-0.179,-0.179,-0.179,-0.179,-0.2068,-0.2653,-0.3272,-0.3583,-0.3583,-0.3583,-0.3585,-0.3613,-0.3613,-0.3613,-0.3613,-0.3613,-0.3613,2.5133,2.5701,2.6231,2.7181,2.7645,2.8134,2.9049,2.9358,2.958,3.0093,3.0575,3.097,3.1151,3.0705,3.0277,3.0253,2.965,2.9115,2.8865,2.8753,2.8627,2.8427,2.8411,2.8411,2.8411,2.798,2.7703,2.7703,2.578,2.4332,2.3717,2.1786,2.0415,1.9753,1.9286,1.8769,1.8226,1.8114,1.7598,1.6637,1.6552,1.5944,1.488,1.488,1.4489,1.3787,1.3668,1.3396,1.3011,1.2666,1.2249,1.1828,1.1452,1.1074,1.0644,0.9588,0.9119,0.8902,0.8156,0.7794,0.7601,0.7219,0.6972,0.6723,0.6109,0.5922,0.5899,0.5752,0.5697,0.561,0.5175,0.4919,0.4664,0.4101,0.3655,0.332,0.332,0.2986,0.2708,0.2708,0.2708,0.2708,0.2708,0.2595,0.2512,0.2512,0.2315,0.2148,0.1953,0.1815,0.1426,0.0587,0.0252,-0.0084,-0.0504,-0.0532,-0.0532,-0.0532,-0.0924,-0.1428,-0.204,-0.2237,-0.2545,-0.2961,-0.2961,-0.3188,-0.3613,-0.3613,-0.3613,-0.3613,-0.3613,-0.3613,2.4753,2.5342,2.5989,2.6945,2.7454,2.802,2.9142,2.9478,2.9659,3.0109,3.0291,3.0361,3.0361,2.9982,2.9627,2.9564,2.91,2.8677,2.8597,2.8565,2.8532,2.8396,2.8444,2.8336,2.8027,2.7642,2.7165,2.6611,2.4918,2.3609,2.2932,2.1389,2.0364,1.9955,1.9708,1.9328,1.8789,1.8491,1.7967,1.7214,1.6913,1.638,1.5635,1.5266,1.4811,1.4303,1.3962,1.3563,1.317,1.2837,1.2554,1.2298,1.1803,1.1535,1.1309,1.0167,0.9703,0.9488,0.8521,0.8189,0.8109,0.7574,0.7423,0.7326,0.673,0.6571,0.6519,0.626,0.62,0.6114,0.5737,0.5668,0.5466,0.4684,0.4211,0.3959,0.3959,0.368,0.3403,0.3403,0.3403,0.3403,0.3403,0.3347,0.3289,0.3289,0.2982,0.2732,0.2676,0.24,0.2012,0.151,0.1372,0.1176,0.0756,0.0728,0.0728,0.0728,0.014,-0.0336,-0.0699,-0.1426,-0.1958,-0.2347,-0.2347,-0.2516,-0.2882,-0.3132,-0.3244,-0.3244,-0.3499,-0.3613,2.4452,2.5061,2.573,2.6707,2.7312,2.7889,2.8873,2.9627,3.0109,3.0109,2.958,2.9098,2.9098,2.9098,2.9052,2.8943,2.8904,2.885,2.8668,2.8747,2.87,2.846,2.8479,2.8224,2.7504,2.7272,2.6657,2.5296,2.3979,2.2917,2.224,2.0996,2.0304,2.0304,2.0304,2.0076,1.9604,1.9074,1.8576,1.809,1.7555,1.7041,1.6543,1.5591,1.5131,1.4994,1.4186,1.3634,1.3242,1.2934,1.2749,1.2652,1.2298,1.2126,1.1968,1.1007,1.0618,1.0415,0.9138,0.8653,0.8547,0.8109,0.7955,0.7842,0.7315,0.717,0.7052,0.6508,0.6364,0.6338,0.6306,0.6269,0.6014,0.4921,0.4625,0.4574,0.4519,0.4491,0.4491,0.4491,0.4491,0.4491,0.4491,0.4491,0.4491,0.4491,0.4042,0.3624,0.3511,0.3012,0.2512,0.2153,0.2099,0.2014,0.1846,0.1818,0.179,0.179,0.1288,0.0981,0.0981,-0.0699,-0.1651,-0.1706,-0.1706,-0.1734,-0.179,-0.2347,-0.2625,-0.2625,-0.3188,-0.3471,2.4063,2.4821,2.5798,2.7056,2.8061,2.8826,2.9052,2.9225,2.9335,2.9335,2.9209,2.9098,2.9098,2.9098,2.9075,2.9052,2.8967,2.8881,2.885,2.8826,2.8771,2.8723,2.8179,2.7744,2.7581,2.6463,2.5426,2.4594,2.3271,2.2228,2.155,2.0734,2.0304,2.0304,2.0304,2.0358,2.0438,1.9856,1.935,0.0,1.835,1.772,1.7031,1.6086,1.5243,1.4535,1.435,1.4046,1.3668,1.3583,1.3224,1.27,1.2603,1.2382,1.1993,1.12,1.0788,1.0491,0.9658,0.9119,0.8725,0.8521,0.8301,0.808,0.7815,0.7723,0.7696,0.7578,0.7519,0.7433,0.7026,0.6892,0.6736,0.6003,0.5467,0.5007,0.4601,0.4491,0.4491,0.4491,0.4491,0.4491,0.4491,0.4491,0.4491,0.4491,0.4377,0.4294,0.4267,0.4021,0.3658,0.3151,0.2875,0.2516,0.1987,0.1874,0.179,0.179,0.1679,0.1595,0.1595,0.0336,-0.0616,-0.1093,-0.1093,-0.1316,-0.179,-0.193,-0.1986,-0.1986,-0.2125,-0.2432,2.3741,2.4523,2.5564,2.6901,2.7913,2.8693,2.8943,2.9052,2.9098,2.9098,2.9098,2.9098,2.9098,2.9098,2.9098,2.9098,2.9052,2.8967,2.8904,2.8936,2.8771,2.8327,2.7906,2.7355,2.6658,2.5815,2.4764,2.344,2.2686,2.1874,2.0872,2.0489,2.0458,2.0782,2.0782,2.0998,2.1466,2.0576,2.0026,1.9809,1.8721,1.7767,1.6934,1.616,1.5411,1.472,1.4489,1.428,1.4069,1.3892,1.3573,1.3176,1.2847,1.2578,1.2298,1.1601,1.1242,1.1015,1.0174,0.978,0.9573,0.9066,0.8745,0.8525,0.8318,0.808,0.7901,0.7901,0.7901,0.7842,0.7551,0.7492,0.7341,0.6764,0.6176,0.5641,0.5363,0.5308,0.5226,0.4924,0.4869,0.4787,0.4546,0.4491,0.4491,0.4491,0.4491,0.4491,0.4491,0.4408,0.4187,0.3824,0.363,0.338,0.2991,0.2905,0.285,0.285,0.2514,0.232,0.232,0.1176,0.0336,-0.0028,-0.0308,-0.0588,-0.084,-0.1204,-0.1344,-0.1288,-0.1623,-0.1958,2.3488,2.4366,2.5425,2.6467,2.7424,2.8222,2.8669,2.8943,2.9098,2.9098,2.9098,2.9098,2.9098,2.9098,2.9098,2.9098,2.9098,2.9005,2.8794,2.8863,2.8604,2.7693,2.746,2.6901,2.5693,2.5333,2.4384,2.2478,2.2305,2.172,2.0381,2.0412,2.0736,2.1288,2.1411,2.1735,2.2286,2.122,2.0627,2.0474,1.8857,1.7639,1.6808,1.6194,1.5623,1.5062,1.4605,1.4396,1.4373,1.4046,1.3868,1.375,1.3128,1.2798,1.2627,1.2076,1.1803,1.1569,1.0762,1.055,1.0525,0.9718,0.9313,0.9084,0.8844,0.8405,0.802,0.802,0.7961,0.7901,0.7901,0.7901,0.7783,0.7347,0.6853,0.644,0.6236,0.6209,0.6041,0.555,0.5445,0.5281,0.4736,0.4625,0.4598,0.4519,0.4491,0.4491,0.4491,0.4491,0.4436,0.4276,0.4221,0.4166,0.4052,0.4024,0.3996,0.3996,0.3436,0.31,0.31,0.2043,0.1401,0.1289,0.0477,0.0112,0.0224,-0.0364,-0.0617,-0.0533,-0.1147,-0.1483,2.3399,2.4712,2.5918,2.6079,2.7129,2.8125,2.8198,2.8669,2.9098,2.9098,2.9098,2.9098,2.9098,2.9098,2.9098,2.9098,2.9098,2.8893,2.8293,2.8221,2.7962,2.7261,2.6561,2.6062,2.5869,2.5082,2.4013,2.2576,2.2377,2.172,2.0381,2.0841,2.1211,2.1304,2.1858,2.2212,2.2305,2.1756,2.1142,2.0474,1.8807,1.776,1.7287,1.6693,1.5923,1.5062,1.4605,1.4396,1.4396,1.4326,1.4116,1.3797,1.3702,1.3272,1.2686,1.2603,1.22,1.1678,1.1544,1.1217,1.0812,1.0499,1.0097,0.965,0.9505,0.9012,0.8498,0.8498,0.8226,0.7901,0.7901,0.7901,0.7875,0.7815,0.7735,0.7413,0.6426,0.6209,0.6182,0.61,0.6073,0.5882,0.5304,0.5199,0.5034,0.457,0.4491,0.4491,0.4491,0.4491,0.4491,0.4463,0.4304,0.4193,0.4166,0.4079,0.3996,0.3996,0.391,0.3855,0.3855,0.3186,0.2824,0.2796,0.1175,0.0364,0.0364,0.028,0.0224,0.0252,0.014,-0.014,2.3284,2.4368,2.5189,2.5783,2.6678,2.7515,2.7805,2.8439,2.899,2.899,2.8737,2.864,2.9035,2.9098,2.8972,2.8616,2.8553,2.8367,2.7881,2.7828,2.7571,2.6899,2.6449,2.5937,2.5329,2.5015,2.4441,2.3469,2.292,2.2381,2.1786,2.1479,2.1642,2.2413,2.2351,2.249,2.2855,2.1896,2.0847,1.9706,1.8903,1.8133,1.744,1.6871,1.6194,1.5467,1.5006,1.4628,1.4396,1.4396,1.4314,1.4116,1.3892,1.3607,1.3272,1.2847,1.2505,1.22,1.1828,1.1653,1.1519,1.1124,1.0771,1.041,1.0063,0.958,0.9133,0.8971,0.8618,0.8285,0.8285,0.8107,0.7901,0.7901,0.7901,0.7762,0.7273,0.7166,0.7052,0.6756,0.6426,0.6127,0.5855,0.58,0.5719,0.55,0.5445,0.5336,0.4979,0.4952,0.4846,0.4543,0.4411,0.4356,0.4356,0.4325,0.427,0.427,0.4162,0.4107,0.4107,0.3577,0.3272,0.3272,0.204,0.1453,0.1566,0.1119,0.1147,0.1566,0.0756,0.0448,2.3122,2.3888,2.4394,2.5411,2.6283,2.7004,2.7403,2.806,2.8607,2.863,2.8187,2.7962,2.8498,2.8593,2.8419,2.7936,2.7841,2.7725,2.7377,2.734,2.7122,2.6542,2.637,2.6021,2.5213,2.5227,2.5016,2.4328,2.3585,2.3077,2.2921,2.2035,2.2012,2.3009,2.2548,2.2455,2.2778,2.1627,2.044,1.925,1.902,1.8472,1.7625,1.711,1.6552,1.5954,1.5367,1.4903,1.4558,1.4443,1.4396,1.4373,1.4069,1.3892,1.3736,1.3176,1.2856,1.2631,1.2135,1.2026,1.2026,1.1619,1.1358,1.1106,1.0695,1.0197,0.9717,0.9592,0.9216,0.8844,0.8844,0.8584,0.8285,0.8107,0.808,0.8047,0.7928,0.7901,0.7794,0.7381,0.6945,0.6588,0.6453,0.6426,0.6372,0.6236,0.6209,0.6046,0.5582,0.5386,0.5144,0.4736,0.457,0.4491,0.4491,0.4491,0.4491,0.4491,0.4356,0.4273,0.4273,0.3885,0.3691,0.3691,0.3098,0.2704,0.2539,0.1955,0.1955,0.2539,0.1482,0.1147,2.2907,2.3475,2.4005,2.485,2.5987,2.6901,2.6927,2.7355,2.7788,2.7933,2.7428,2.7017,2.7172,2.7209,2.7194,2.7162,2.7162,2.7042,2.6703,2.6645,2.6509,2.6181,2.6118,2.6101,2.605,2.587,2.5484,2.48,2.42,2.3565,2.2918,2.2484,2.2289,2.2351,2.232,2.2012,2.1411,2.0687,2.0126,1.9657,1.9151,1.8612,1.8046,1.757,1.7023,1.6402,1.5501,1.5085,1.504,1.4581,1.4396,1.4396,1.4384,1.4138,1.3815,1.376,1.3298,1.2693,1.2656,1.2406,1.2101,1.2076,1.1886,1.1662,1.1641,1.0931,1.0226,1.0453,1.0056,0.9544,0.9551,0.9528,0.9347,0.8704,0.8558,0.8438,0.7994,0.7901,0.7901,0.7875,0.7821,0.7655,0.7139,0.7058,0.6864,0.629,0.6209,0.6182,0.6154,0.566,0.5277,0.5254,0.4814,0.4491,0.4491,0.4491,0.4491,0.4491,0.4491,0.4491,0.4491,0.4463,0.4436,0.4436,0.4405,0.3821,0.2681,0.2653,0.2653,0.2681,0.2625,0.2291,2.1251,2.1893,2.246,2.306,2.4394,2.5548,2.5548,2.6277,2.6943,2.7003,2.6539,2.6177,2.6314,2.6756,2.7026,2.6803,2.6779,2.6746,2.6672,2.6662,2.6615,2.6504,2.6436,2.6331,2.6066,2.6083,2.6021,2.579,2.4639,2.3955,2.3937,2.2693,2.2082,2.2289,2.1889,2.1334,2.0657,2.0428,2.0113,1.969,1.9254,1.8698,1.8086,1.7659,1.7282,1.6905,1.5954,1.539,1.5062,1.4581,1.4396,1.4396,1.4396,1.4314,1.4161,1.3892,1.3624,1.3331,1.2852,1.2608,1.2448,1.219,1.2036,1.1927,1.1765,1.1449,1.1149,1.1065,1.0661,1.0231,1.0242,0.9928,0.9506,0.9081,0.8791,0.8546,0.8401,0.8109,0.7901,0.7901,0.7901,0.7848,0.7655,0.7601,0.7547,0.7327,0.73,0.716,0.681,0.6588,0.6317,0.5905,0.5714,0.5445,0.5034,0.5007,0.4873,0.4515,0.4491,0.4491,0.4491,0.4491,0.4491,0.4491,0.4491,0.4294,0.3849,0.3458,0.3486,0.3849,0.307,0.2792,2.0086,2.0635,2.1166,2.1982,2.3211,2.4305,2.4703,2.5352,2.592,2.6134,2.5693,2.5332,2.5435,2.6015,2.6404,2.6251,2.6344,2.6484,2.6674,2.6691,2.6741,2.6875,2.6859,2.6742,2.6452,2.6503,2.6521,2.6521,2.5163,0.0,2.4489,2.2794,2.1755,2.1645,2.1196,2.0749,2.0304,2.0304,2.0166,1.9904,1.9475,1.8964,1.8361,1.7954,1.7591,1.7233,1.6454,1.5822,1.5277,1.4651,1.4396,1.4396,1.4396,1.4396,1.4373,1.4093,1.3909,1.3716,1.3252,1.2977,1.2803,1.2418,1.2308,1.2228,1.194,1.178,1.1665,1.1598,1.1266,1.0979,1.0979,1.0464,0.9859,0.9599,0.9223,0.8883,0.8653,0.8242,0.7901,0.7901,0.7901,0.7901,0.7901,0.7901,0.7901,0.7901,0.7901,0.7762,0.7408,0.7219,0.6945,0.6534,0.6317,0.6046,0.5637,0.5605,0.5363,0.4814,0.4763,0.468,0.4519,0.4491,0.4491,0.4491,0.4491,0.4491,0.4491,0.4098,0.4098,0.4491,0.3683,0.3514,0.0,0.0,0.0,2.1712,2.2525,2.3245,2.441,2.4631,2.4709,2.5324,2.4942,2.4498,2.4569,2.4934,2.5253,2.5465,2.5835,2.6245,2.6657,2.6725,2.6858,2.725,2.7299,2.7282,2.7282,2.7122,2.6991,2.7008,2.5782,2.4856,2.4507,2.2762,2.1318,2.032,2.0304,2.0304,2.0304,2.0304,2.0304,2.0287,1.9887,1.9424,1.8893,1.8467,1.7975,1.7363,1.6892,1.6367,1.5722,1.48,1.4396,1.4396,1.4396,1.4396,1.4396,1.4396,1.4138,1.3815,1.3797,1.3539,1.316,1.2817,1.272,1.2618,1.2228,1.194,1.178,1.2042,1.1916,1.1722,1.1697,1.1165,1.0554,1.0305,0.9917,0.9432,0.8778,0.8262,0.7928,0.7928,0.7928,0.7928,0.7928,0.7928,0.7928,0.7928,0.7928,0.7928,0.7928,0.7461,0.7139,0.7139,0.662,0.6236,0.6236,0.6236,0.5959,0.5363,0.5332,0.5089,0.457,0.4543,0.4515,0.4515,0.4519,0.4491,0.4491,0.4491,0.4491,0.4491,0.4491,0.4491,1.8268,0.0,0.0,0.0,0.0,0.0,2.2059,2.2771,2.3511,2.4031,2.3982,2.3994,2.4441,2.4851,2.5153,2.5272,2.5943,2.659,2.694,2.7071,2.7186,2.7299,2.7217,2.7136,2.7089,2.7041,2.6992,0.0,2.6048,2.5128,2.4265,2.2213,2.0849,2.032,2.0304,2.0304,2.0304,2.0304,2.0304,2.0287,1.9887,1.9424,1.8893,1.8467,1.7975,1.7363,1.6892,1.6367,1.5744,1.5164,1.472,1.4396,1.4396,1.4396,1.4396,1.4396,1.4337,1.4186,1.3903,1.3731,1.3567,1.3178,1.29,1.2677,1.2584,1.2286,1.2067,1.2423,1.2262,1.194,1.1756,1.1564,1.134,1.1074,1.0499,0.9987,0.9806,0.9276,0.8765,0.8474,0.8633,0.8844,0.8844,0.8844,0.8844,0.8844,0.8844,0.8844,0.8844,0.8441,0.8176,0.8176,0.7723,0.7273,0.6891,0.6837,0.6588,0.5991,0.5964,0.5878,0.5746,0.5308,0.5089,0.5089,0.4708,0.4491,0.4491,0.4491,0.4491,0.4491,0.4491,0.4491,1.747,1.7704,1.7918,1.8224,0.0,0.0,2.0924,2.1625,2.2438,2.3384,2.3595,2.3782,2.4317,2.4751,2.5017,2.5075,2.5723,2.6349,2.6758,2.7006,2.717,2.717,2.7105,2.7055,2.7039,2.6991,2.6942,2.6925,2.6129,2.5071,2.3664,2.1811,2.0712,2.051,2.0373,2.0304,2.0304,2.0304,2.0304,2.0304,2.0063,1.9711,1.9225,1.8827,1.8299,1.7659,1.7227,1.6667,1.6064,1.5812,1.5277,1.4697,1.4697,1.4697,1.4674,1.4466,1.4396,1.4373,1.4134,1.4055,1.3973,1.3575,1.3317,1.3133,1.2968,1.2746,1.2618,1.284,1.2746,1.2491,1.2194,1.2135,1.2002,1.1569,1.1049,1.0584,1.0269,1.0053,0.9699,0.8995,0.9126,0.9361,0.9361,0.9465,0.9536,0.9536,0.9439,0.9361,0.9361,0.9073,0.8837,0.8837,0.8606,0.8235,0.7777,0.7723,0.7396,0.6615,0.6566,0.6453,0.6209,0.5855,0.5664,0.5664,0.5363,0.5199,0.5199,0.4736,0.4491,0.4491,0.4491,0.4491,1.7007,1.7114,1.736,1.7949,1.8205,0.0,2.0419,2.0915,2.1435,2.298,2.3363,2.3573,2.4099,2.4497,2.4764,2.4823,2.5307,2.585,2.6331,2.6691,2.6942,2.6991,2.6991,2.7024,2.707,2.6991,2.6942,2.6975,2.6129,2.4839,2.3102,2.1714,2.0923,2.0794,2.046,2.0304,2.0304,2.0304,2.0304,2.0304,2.0304,2.0096,1.969,1.9288,1.8717,1.8086,1.7666,1.7123,1.65,1.6565,1.6032,1.5176,1.5176,1.5153,1.504,1.4627,1.4441,1.4396,1.4396,1.4396,1.4339,1.3964,1.3839,1.3731,1.3389,1.3239,1.3204,1.3204,1.3239,1.318,1.2846,1.2763,1.259,1.1972,1.1637,1.1284,1.0576,1.077,1.0778,0.9744,0.9692,0.9795,0.9795,0.9994,1.0123,1.009,0.9899,0.9744,0.9692,0.9439,0.9263,0.9263,0.9237,0.9054,0.8705,0.8679,0.8256,0.7321,0.7268,0.6999,0.6426,0.6344,0.629,0.629,0.626,0.6242,0.6242,0.5207,0.4719,0.4733,0.4733,0.4716,1.6625,1.6869,1.7166,1.6988,1.7617,0.0,1.877,1.9633,2.0582,2.1287,2.1889,2.2572,2.3428,2.373,2.3979,2.4349,2.504,2.5723,2.6243,2.6418,2.664,2.6958,2.6991,2.6975,2.6942,2.6958,2.6958,2.6926,2.6145,2.5123,2.385,2.272,2.1681,2.0826,2.046,2.0304,2.0304,2.0304,2.0304,2.0304,2.0304,2.0096,1.969,1.9288,1.8717,1.8086,1.7666,1.7123,1.6543,1.6905,1.6518,1.5656,1.5656,1.5423,1.5097,1.5004,1.4716,1.4396,1.4396,1.4396,1.4396,1.4305,1.4066,1.3782,1.3705,1.3452,1.3192,1.3192,1.3442,1.3577,1.3192,1.3111,1.2996,1.2593,1.2501,1.2384,1.1916,1.1965,1.2046,1.1814,1.1342,1.0964,1.0964,1.1006,1.0956,1.0761,1.0684,1.0565,1.036,0.9958,0.9692,0.9692,0.9387,0.9159,0.908,0.908,0.8863,0.8335,0.8309,0.8096,0.7601,0.7166,0.6918,0.6918,0.6648,0.6511,0.6506,0.6096,0.599,0.6195,0.6195,0.6028,1.6201,1.6439,1.6698,1.6335,1.686,0.0,0.0,1.8623,1.9581,2.0665,2.1194,2.1748,2.277,2.3253,2.3573,2.3809,2.4441,2.5079,2.5538,2.6156,2.6556,2.6556,2.6725,2.6859,2.6893,2.6876,2.6842,2.6809,2.6097,2.5407,2.4827,2.326,2.215,2.16,2.075,2.0304,2.0304,2.0304,2.0304,2.0304,2.0304,2.0096,1.969,1.9288,1.8717,1.8086,1.7666,1.7248,1.6863,1.7094,1.6913,1.6475,1.6238,1.5866,1.5424,1.5188,1.4807,1.4396,1.4396,1.4396,1.4396,1.4396,1.426,1.41,1.41,1.3964,1.3795,1.3795,1.393,1.3998,1.3603,1.3507,1.3402,1.305,1.288,1.274,1.253,1.2545,1.2584,1.2584,1.2408,1.2221,1.2073,1.2017,1.1952,1.1828,1.1519,1.12,1.0922,1.0582,1.0293,1.0164,0.9966,0.9758,0.951,0.9309,0.9021,0.8633,0.8388,0.8135,0.7901,0.7777,0.776,0.7886,0.7748,0.7659,0.7659,0.7512,0.7227,0.6813,0.6813,0.6694,1.5644,1.5807,1.5973,1.5723,1.6075,1.6616,0.0,0.0,0.0,2.0041,2.048,2.0888,2.196,2.2583,2.3024,2.3304,2.3873,2.4395,2.4803,2.5854,0.0,2.6139,2.6453,2.6742,2.6842,2.6792,2.6742,2.6691,2.6166,2.5777,2.5609,2.3819,2.2686,2.2411,2.1165,2.0428,2.0304,2.0304,2.0304,2.0304,2.0304,2.0131,1.9797,1.9325,1.8789,1.8204,1.7713,1.7393,1.7199,1.7199,1.7199,1.7157,1.6778,1.6358,1.5879,1.552,1.5004,1.4533,1.4533,1.4476,1.4396,1.4396,1.4396,1.4396,1.4396,1.4396,1.4396,1.4396,1.4396,1.4328,1.3998,1.393,1.3801,1.3413,1.3208,1.3078,1.3016,1.3054,1.3112,1.3112,1.328,1.3304,1.2943,1.2779,1.2676,1.2618,1.2101,1.1603,1.1318,1.1074,1.082,1.0598,1.0522,1.036,0.9976,0.9647,0.9276,0.8869,0.8439,0.8197,0.8107,0.8293,0.8466,0.8704,0.8758,0.8782,0.8782,0.8836,0.8347,0.742,0.742,0.7355,1.4744,1.4742,1.4745,1.4818,1.541,1.6104,1.6599,0.0,1.7665,1.8286,0.0,1.9709,2.0716,0.0,0.0,2.3002,2.3685,2.423,2.4739,2.5577,2.6157,2.6122,2.6453,2.6708,2.6725,2.6809,2.6842,2.6708,2.6741,2.6418,2.5642,2.4742,2.3693,2.2443,2.1604,2.0888,2.0304,2.0304,2.0304,2.0304,2.0304,2.027,2.0218,1.9453,1.8921,1.8593,1.7834,1.7393,1.7199,1.7199,1.7199,1.7199,1.7136,1.6829,1.6405,1.637,1.5771,1.5014,1.5014,1.475,1.4396,1.4396,1.4396,1.4396,1.4396,1.4396,1.4396,1.4396,1.4396,1.4396,1.4339,1.4328,1.4246,1.3834,1.3975,1.4116,1.3763,1.3975,1.4233,1.4233,1.4233,1.4035,1.329,1.29,1.2603,1.2314,1.1943,1.1603,1.1318,1.1074,1.0896,1.0871,1.065,1.047,1.0437,1.0385,1.0154,0.9688,0.949,0.9255,0.8891,0.8739,0.867,0.871,0.8933,0.9053,0.9053,0.9306,0.9231,0.8864,0.8864,0.8677,1.3923,1.4309,1.4718,1.4141,1.4874,1.5681,1.5526,1.6226,1.7073,1.7578,0.0,0.0,0.0,0.0,0.0,0.0,2.2517,2.3296,2.38,2.4444,2.5192,2.5998,0.0,0.0,2.6691,2.6742,2.6758,2.6691,2.6742,2.6623,2.6251,2.5139,2.4051,2.3061,2.1904,2.098,2.032,2.0304,2.0304,2.0304,2.0304,2.0183,1.994,1.9603,1.9221,1.8779,1.8139,1.7774,1.7639,1.7344,1.7199,1.7199,1.7199,1.6905,1.6488,1.6493,1.6076,1.5472,1.5188,1.498,1.4773,1.4499,1.4578,1.4773,1.4476,1.4396,1.4396,1.4396,1.4396,1.4396,1.4396,1.4396,1.4361,1.4186,1.428,1.435,1.4186,1.428,1.4396,1.4396,1.4396,1.4303,1.3941,1.3597,1.3214,1.2832,1.2486,1.2101,1.1603,1.1418,1.1251,1.0922,1.0794,1.0675,1.0522,1.0462,1.0362,1.0162,0.9774,0.9547,0.9506,0.914,0.9004,0.9173,0.9281,0.9336,0.9342,0.9456,0.9456,0.9336,0.9336,0.9237,1.3355,1.3758,1.418,1.3527,1.4192,1.4971,1.4736,1.541,1.6236,1.6856,1.7246,0.0,0.0,0.0,1.9991,2.0593,0.0,2.2331,2.3209,2.3691,2.4429,2.5746,2.6384,0.0,0.0,2.6742,2.6674,2.6539,2.6573,2.6539,2.6367,2.5254,2.4293,2.3619,2.229,2.1242,2.0582,2.0397,2.0304,2.0304,2.0304,2.0148,1.9851,1.9654,1.9295,1.8855,1.8224,1.7894,1.7801,1.7385,1.7199,1.7199,1.7199,1.6989,1.6689,1.6696,1.6388,1.5925,1.5457,1.521,1.5028,1.4698,1.4833,1.5014,1.4533,1.4396,1.4396,1.4396,1.4396,1.4396,1.4396,1.4396,1.4396,1.4396,1.4396,1.4396,1.4396,1.4396,1.4396,1.4396,1.4396,1.4396,1.4396,1.4069,1.3692,1.342,1.3069,1.2657,1.2157,1.2058,1.181,1.1318,1.1226,1.1088,1.0769,1.0709,1.0689,1.0646,1.0233,1.0058,1.0192,0.9831,0.9656,0.9721,0.9836,0.9766,0.9516,0.9638,0.9644,0.9516,0.9516,0.9516,0.0,0.0,0.0,1.2928,0.0,0.0,0.0,0.0,1.5001,0.0,0.0,1.6283,1.7263,1.7473,1.8186,2.0269,2.068,0.0,0.0,2.3746,2.4205,2.5294,2.6175,2.6691,0.0,2.6809,2.6691,2.6157,2.6243,2.6101,2.5577,2.5125,2.4574,2.3916,2.2842,2.1951,2.1273,2.061,2.0304,2.0304,2.0304,2.0287,2.0252,1.9457,1.9035,1.8855,1.7914,1.7468,1.7404,1.7253,1.7199,1.7199,1.7199,1.7199,1.7178,1.7186,1.6868,1.6417,1.5936,1.5491,1.51,1.5069,1.5085,1.5014,1.4533,1.4396,1.4396,1.4396,1.4396,1.4396,1.4396,1.4396,1.4396,1.4396,1.4396,1.4396,1.4396,1.4396,1.4396,1.4396,1.4396,1.4396,1.4396,1.4069,1.3797,1.3773,1.3443,1.317,1.3146,1.2943,1.2604,1.2206,1.2031,1.1798,1.1399,1.1419,1.1412,1.1291,1.1246,1.1145,1.0958,1.0943,1.0726,1.0264,1.0708,1.0485,0.9516,1.0021,1.0021,0.9516,0.9516,0.9516,0.0,0.0,1.2964,1.2359,0.0,0.0,0.0,0.0,0.0,0.0,0.0,0.0,1.6312,1.6957,1.7627,1.8374,1.9087,2.0067,0.0,2.2848,2.4028,2.4788,2.567,2.6349,2.6674,0.0,2.6297,2.6105,2.5906,2.5705,2.5503,2.5121,2.4586,2.391,2.3289,2.2443,2.1304,2.1073,2.0734,2.0304,2.0304,2.0304,2.0287,1.9744,1.9475,1.9369,1.8341,1.7935,1.7942,1.7427,1.7253,1.7329,1.722,1.7199,1.7199,1.7199,1.7097,1.6886,1.6429,1.6156,1.5919,1.5314,1.5309,1.5417,1.4649,1.4396,1.4396,1.4396,1.4396,1.4396,1.4396,1.4396,1.4396,1.4396,1.4396,1.4396,1.4396,1.4396,1.4396,1.4396,1.4396,1.4396,1.4396,1.4291,1.4104,1.3834,1.3692,1.342,1.2924,1.3021,1.2808,1.2033,1.2502,1.2482,1.1542,1.1679,1.1917,1.2154,1.1836,1.1589,1.1514,1.1186,1.0774,1.0314,1.0769,1.0674,1.0021,1.0206,1.0206,1.0021,0.9676,0.9516,1.2472,1.2742,0.0,1.2274,1.2797,0.0,1.2274,0.0,1.3833,0.0,0.0,0.0,0.0,1.612,1.6486,1.7208,1.7852,1.8809,0.0,2.1904,2.3193,2.4168,2.5297,2.605,2.621,2.6157,2.598,2.5689,2.5427,2.5218,0.0,0.0,2.4496,2.4057,2.3548,2.2886,2.2028,2.1535,2.1073,2.0641,2.0412,2.0304,2.0287,1.9744,1.9457,1.9369,1.8389,1.7968,1.7942,1.7481,1.7295,1.7329,1.722,1.7199,1.7199,1.7199,1.7084,1.692,1.6803,1.6642,1.6401,1.5791,1.5686,1.5651,1.4869,1.4535,1.4396,1.4396,1.4396,1.4396,1.4396,1.4396,1.4396,1.4396,1.4396,1.4396,1.4396,1.4396,1.4396,1.4396,1.4396,1.4396,1.4396,1.4549,1.451,1.4078,1.4148,1.4086,1.3602,1.3937,1.3824,1.2909,1.3276,1.3154,1.1998,1.2075,1.2314,1.2597,1.2266,1.2081,1.2081,1.1751,1.135,1.084,1.1317,1.1244,1.0555,1.0555,1.046,1.0301,0.974,0.9516]}]]